[[{"header":{"parameterUnit":"m.s-1","parameterCategory":1,"la1":31.0,"la2":29.5877,"lo1":-88.7671,"lo2":-86.6584,"dy":0.0162,"dx":0.0185,"nx":115,"ny":88,"refTime":"2024-09-04T12:00:00:Z","depth":0,"parameterNumber":2,"parameterNumberName":"U-component_of_WINDS"},"data":[0.0,0.0,0.0,0.0,0.0,0.0,0.0,0.0,0.0,0.0,0.0,0.0,0.0,0.0,0.0,0.0,0.0,0.0,0.0,0.0,0.0,0.0,0.0,0.0,0.0,0.0,0.0,0.0,0.0,0.0,0.0,0.0,0.0,0.0,0.0,0.0,0.0,0.0,0.0,0.0,0.0,0.0,0.0,0.0,0.0,0.0,0.0,0.0,0.0,0.0,0.0,0.0,0.0,0.0,0.0,0.0,0.0,0.0,0.0,0.0,0.0,0.0,0.0,0.0,0.0,0.0,0.0,0.0,0.0,0.0,0.0,0.0,0.0,0.0,0.0,0.0,0.0,0.0,0.0,0.0,0.0,0.0,0.0,0.0,0.0,0.0,0.0,0.0,0.0,0.0,0.0,0.0,0.0,0.0,0.0,0.0,0.0,0.0,0.0,0.0,0.0,0.0,0.0,0.0,0.0,0.0,0.0,0.0,0.0,0.0,0.0,0.0,0.0,0.0,0.0,0.0,0.0,0.0,0.0,0.0,0.0,0.0,0.0,0.0,0.0,0.0,0.0,0.0,0.0,0.0,0.0,0.0,0.0,0.0,0.0,0.0,0.0,0.0,0.0,0.0,0.0,0.0,0.0,0.0,0.0,0.0,0.0,0.0,0.0,0.0,0.0,0.0,0.0,0.0,0.0,0.0,0.0,0.0,0.0,0.0,0.0,0.0,0.0,0.0,0.0,0.0,0.0,0.0,0.0,0.0,0.0,0.0,0.0,0.0,0.0,0.0,0.0,0.0,0.0,0.0,0.0,0.0,0.0,0.0,0.0,0.0,0.0,0.0,0.0,0.0,0.0,0.0,0.0,0.0,0.0,0.0,0.0,0.0,0.0,0.0,0.0,0.0,0.0,0.0,0.0,0.0,0.0,0.0,0.0,0.0,0.0,0.0,0.0,0.0,0.0,0.0,0.0,0.0,0.0,0.0,0.0,0.0,0.0,0.0,0.0,0.0,0.0,0.0,0.0,0.0,0.0,0.0,0.0,0.0,0.0,0.0,0.0,0.0,0.0,0.0,0.0,0.0,0.0,0.0,0.0,0.0,0.0,0.0,0.0,0.0,0.0,0.0,0.0,0.0,0.0,0.0,0.0,0.0,0.0,0.0,0.0,0.0,0.0,0.0,0.0,0.0,0.0,0.0,0.0,0.0,0.0,0.0,0.0,0.0,0.0,0.0,0.0,0.0,0.0,0.0,0.0,0.0,0.0,0.0,0.0,0.0,0.0,0.0,0.0,0.0,0.0,0.0,0.0,0.0,0.0,0.0,0.0,0.0,0.0,0.0,0.0,0.0,0.0,0.0,0.0,0.0,0.0,0.0,0.0,0.0,0.0,0.0,0.0,0.0,0.0,0.0,0.0,0.0,0.0,0.0,0.0,0.0,0.0,0.0,0.0,0.0,0.0,0.0,0.0,0.0,0.0,0.0,0.0,0.0,0.0,0.0,0.0,0.0,0.0,0.0,0.0,0.0,0.0,0.0,0.0,0.0,0.0,0.0,0.0,0.0,0.0,0.0,0.0,0.0,0.0,0.0,0.0,0.0,0.0,0.0,0.0,0.0,0.0,0.0,0.0,0.0,0.0,0.0,0.0,0.0,0.0,0.0,0.0,0.0,0.0,0.0,0.0,0.0,0.0,0.0,0.0,0.0,0.0,0.0,0.0,0.0,0.0,0.0,0.0,0.0,0.0,0.0,0.0,0.0,0.0,0.0,0.0,0.0,0.0,0.0,0.0,0.0,0.0,0.0,0.0,0.0,0.0,0.0,0.0,0.0,0.0,0.0,0.0,0.0,0.0,0.0,0.0,0.0,0.0,0.0,0.0,0.0,0.0,0.0,0.0,0.0,0.0,0.0,0.0,0.0,0.0,0.0,0.0,0.0,0.0,0.0,0.0,0.0,0.0,0.0,0.0,0.0,0.0,0.0,0.0,0.0,0.0,0.0,0.0,0.0,0.0,0.0,0.0,0.0,0.0,0.0,0.0,0.0,0.0,0.0,0.0,0.0,0.0,0.0,0.0,0.0,0.0,0.0,0.0,0.0,0.0,0.0,0.0,0.0,0.0,0.0,0.0,0.0,0.0,0.0,0.0,0.0,0.0,0.0,0.0,0.0,0.0,0.0,0.0,0.0,0.0,0.0,0.0,0.0,0.0,0.0,0.0,0.0,0.0,0.0,0.0,0.0,0.0,0.0,0.0,0.0,0.0,0.0,0.0,0.0,0.0,0.0,0.0,0.0,0.0,0.0,0.0,0.0,0.0,0.0,0.0,0.0,0.0,0.0,0.0,0.0,0.0,0.0,0.0,0.0,0.0,0.0,0.0,0.0,0.0,0.0,0.0,0.0,0.0,0.0,0.0,0.0,0.0,0.0,0.0,0.0,0.0,0.0,0.0,0.0,0.0,0.0,0.0,0.0,0.0,0.0,0.0,0.0,0.0,0.0,0.0,0.0,0.0,0.0,0.0,0.0,0.0,0.0,0.0,0.0,0.0,0.0,0.0,0.0,0.0,0.0,0.0,0.0,0.0,0.0,0.0,0.0,0.0,0.0,0.0,0.0,0.0,0.0,0.0,0.0,0.0,0.0,0.0,0.0,0.0,0.0,0.0,0.0,0.0,0.0,0.0,0.0,0.0,0.0,0.0,0.0,0.0,0.0,0.0,0.0,0.0,0.0,0.0,0.0,0.0,0.0,0.0,0.0,0.0,0.0,0.0,0.0,0.0,0.0,0.0,0.0,0.0,0.0,0.0,0.0,0.0,0.0,0.0,0.0,0.0,0.0,0.0,0.0,0.0,0.0,0.0,0.0,0.0,0.0,0.0,0.0,0.0,0.0,0.0,0.0,0.0,0.0,0.0,0.0,0.0,0.0,0.0,0.0,0.0,0.0,0.0,0.0,0.0,0.0,0.0,0.0,0.0,0.0,0.0,0.0,0.0,0.0,0.0,0.0,0.0,0.0,0.0,0.0,0.0,0.0,0.0,0.0,0.0,0.0,0.0,0.0,0.0,0.0,0.0,0.0,0.0,0.0,0.0,0.0,0.0,0.0,0.0,0.0,0.0,0.0,0.0,0.0,0.0,0.0,0.0,0.0,0.0,0.0,0.0,0.0,0.0,0.0,0.0,0.0,0.0,0.0,0.0,0.0,0.0,0.0,0.0,0.0,0.0,0.0,0.0,0.0,0.0,0.0,0.0,0.0,0.0,0.0,0.0,0.0,0.0,0.0,0.0,0.0,0.0,0.0,0.0,0.0,0.0,0.0,0.0,0.0,0.0,0.0,0.0,0.0,0.0,0.0,0.0,0.0,0.0,0.0,0.0,0.0,0.0,0.0,0.0,0.0,0.0,0.0,0.0,0.0,0.0,0.0,0.0,0.0,0.0,0.0,0.0,0.0,0.0,0.0,0.0,0.0,0.0,0.0,0.0,0.0,0.0,0.0,0.0,0.0,0.0,0.0,0.0,0.0,0.0,0.0,0.0,0.0,0.0,0.0,0.0,0.0,0.0,0.0,0.0,0.0,0.0,0.0,0.0,0.0,0.0,0.0,0.0,0.0,0.0,0.0,0.0,0.0,0.0,0.0,0.0,0.0,0.0,0.0,0.0,0.0,0.0,0.0,0.0,0.0,0.0,0.0,0.0,0.0,0.0,0.0,0.0,0.0,0.0,0.0,0.0,0.0,0.0,0.0,0.0,0.0,0.0,0.0,0.0,0.0,0.0,0.0,0.0,0.0,0.0,0.0,0.0,0.0,0.0,0.0,0.0,0.0,0.0,0.0,0.0,0.0,0.0,0.0,0.0,0.0,0.0,0.0,0.0,0.0,0.0,0.0,0.0,0.0,0.0,0.0,0.0,0.0,0.0,0.0,0.0,0.0,0.0,0.0,0.0,0.0,0.0,0.0,0.0,0.0,0.0,0.0,0.0,0.0,0.0,0.0,0.0,0.0,0.0,0.0,0.0,0.0,0.0,0.0,0.0,0.0,0.0,0.0,0.0,0.0,0.0,0.0,0.0,0.0,0.0,0.0,0.0,0.0,0.0,0.0,0.0,0.0,0.0,0.0,0.0,0.0,0.0,0.0,0.0,0.0,0.0,0.0,0.0,0.0,0.0,0.0,0.0,0.0,0.0,0.0,0.0,0.0,0.0,0.0,0.0,0.0,0.0,0.0,0.0,0.0,0.0,0.0,0.0,0.0,0.0,0.0,0.0,0.0,0.0,0.0,0.0,0.0,0.0,0.0,0.0,0.0,4.0254,0.0,0.0,0.0,0.0,0.0,0.0,0.0,0.0,0.0,0.0,0.0,0.0,0.0,0.0,0.0,0.0,0.0,0.0,0.0,0.0,0.0,0.0,0.0,0.0,0.0,0.0,0.0,0.0,0.0,0.0,0.0,0.0,0.0,0.0,0.0,0.0,0.0,0.0,0.0,0.0,0.0,0.0,0.0,0.0,0.0,0.0,0.0,0.0,0.0,0.0,0.0,0.0,0.0,0.0,0.0,0.0,0.0,0.0,0.0,0.0,0.0,0.0,0.0,0.0,0.0,0.0,0.0,0.0,0.0,0.0,0.0,0.0,0.0,0.0,0.0,0.0,0.0,0.0,0.0,0.0,0.0,0.0,0.0,0.0,0.0,0.0,0.0,0.0,0.0,0.0,0.0,0.0,0.0,0.0,0.0,0.0,0.0,0.0,0.0,0.0,0.0,0.0,0.0,0.0,0.0,0.0,0.0,0.0,0.0,0.0,4.355,4.3315,4.2865,4.2082,4.0896,0.0,0.0,0.0,0.0,0.0,0.0,0.0,0.0,0.0,0.0,0.0,0.0,0.0,0.0,0.0,0.0,0.0,0.0,0.0,0.0,0.0,0.0,0.0,0.0,0.0,0.0,0.0,0.0,0.0,0.0,0.0,0.0,0.0,0.0,0.0,0.0,0.0,0.0,0.0,0.0,0.0,0.0,0.0,0.0,0.0,0.0,0.0,0.0,0.0,0.0,0.0,0.0,0.0,0.0,0.0,0.0,0.0,0.0,0.0,0.0,0.0,0.0,0.0,0.0,0.0,0.0,0.0,0.0,0.0,0.0,0.0,0.0,0.0,0.0,0.0,0.0,0.0,0.0,0.0,0.0,0.0,0.0,0.0,0.0,0.0,0.0,0.0,0.0,0.0,0.0,0.0,0.0,0.0,0.0,0.0,0.0,0.0,0.0,0.0,0.0,0.0,0.0,0.0,0.0,0.0,0.0,0.0,0.0,0.0,0.0,0.0,0.0,4.3258,4.2447,4.1267,0.0,0.0,0.0,0.0,0.0,0.0,0.0,0.0,0.0,0.0,0.0,0.0,0.0,0.0,0.0,0.0,0.0,0.0,0.0,0.0,0.0,0.0,0.0,0.0,0.0,0.0,0.0,0.0,0.0,0.0,0.0,0.0,0.0,0.0,0.0,0.0,0.0,0.0,0.0,0.0,0.0,0.0,0.0,0.0,0.0,0.0,0.0,0.0,0.0,0.0,0.0,0.0,0.0,0.0,0.0,0.0,0.0,0.0,0.0,0.0,0.0,0.0,0.0,0.0,0.0,0.0,0.0,0.0,0.0,0.0,0.0,0.0,0.0,0.0,0.0,0.0,0.0,0.0,0.0,0.0,0.0,0.0,0.0,0.0,0.0,0.0,0.0,0.0,0.0,0.0,0.0,0.0,0.0,0.0,0.0,0.0,0.0,0.0,0.0,0.0,0.0,0.0,0.0,0.0,0.0,0.0,0.0,0.0,0.0,0.0,4.4232,4.3569,4.4156,0.0,4.1185,0.0,0.0,0.0,0.0,0.0,0.0,0.0,0.0,0.0,0.0,0.0,0.0,0.0,0.0,0.0,0.0,0.0,0.0,0.0,0.0,0.0,0.0,0.0,0.0,0.0,0.0,0.0,0.0,0.0,0.0,0.0,0.0,0.0,0.0,0.0,0.0,0.0,0.0,0.0,0.0,0.0,0.0,0.0,0.0,0.0,0.0,0.0,0.0,0.0,0.0,0.0,0.0,0.0,0.0,0.0,0.0,0.0,0.0,0.0,0.0,0.0,0.0,0.0,0.0,0.0,0.0,0.0,0.0,0.0,0.0,0.0,0.0,0.0,0.0,0.0,0.0,0.0,0.0,0.0,0.0,0.0,0.0,0.0,0.0,0.0,0.0,0.0,0.0,0.0,0.0,0.0,0.0,0.0,0.0,0.0,0.0,0.0,0.0,0.0,0.0,0.0,0.0,0.0,0.0,0.0,0.0,0.0,0.0,0.0,0.0,4.4562,4.4232,4.3608,4.258,0.0,0.0,0.0,0.0,0.0,0.0,0.0,0.0,0.0,0.0,0.0,0.0,0.0,0.0,0.0,0.0,0.0,0.0,0.0,0.0,0.0,0.0,0.0,0.0,0.0,0.0,0.0,0.0,0.0,0.0,0.0,0.0,0.0,0.0,0.0,0.0,0.0,0.0,0.0,0.0,0.0,0.0,0.0,0.0,0.0,0.0,0.0,0.0,0.0,0.0,0.0,0.0,0.0,0.0,0.0,0.0,0.0,0.0,0.0,0.0,0.0,0.0,0.0,0.0,0.0,0.0,0.0,0.0,0.0,0.0,0.0,0.0,0.0,0.0,0.0,0.0,0.0,0.0,0.0,0.0,0.0,0.0,0.0,0.0,0.0,0.0,0.0,0.0,0.0,0.0,0.0,0.0,0.0,0.0,0.0,0.0,0.0,0.0,0.0,0.0,0.0,0.0,0.0,0.0,0.0,0.0,0.0,0.0,0.0,0.0,4.4488,0.0,4.4966,4.3057,4.1699,4.1111,0.0,0.0,0.0,0.0,0.0,0.0,0.0,0.0,0.0,0.0,0.0,0.0,0.0,0.0,0.0,0.0,0.0,0.0,0.0,0.0,0.0,0.0,0.0,0.0,0.0,0.0,0.0,0.0,0.0,0.0,0.0,0.0,0.0,0.0,0.0,0.0,0.0,0.0,0.0,0.0,0.0,0.0,0.0,0.0,0.0,0.0,0.0,0.0,0.0,0.0,0.0,0.0,0.0,0.0,0.0,0.0,0.0,0.0,0.0,0.0,0.0,0.0,0.0,0.0,0.0,0.0,0.0,0.0,0.0,0.0,0.0,0.0,0.0,0.0,0.0,0.0,0.0,0.0,0.0,0.0,0.0,0.0,0.0,0.0,0.0,0.0,0.0,0.0,0.0,0.0,0.0,0.0,0.0,0.0,0.0,0.0,0.0,0.0,0.0,0.0,0.0,0.0,0.0,0.0,0.0,0.0,0.0,0.0,0.0,4.5039,4.5847,4.5773,4.2837,4.1148,0.0,0.0,0.0,0.0,0.0,0.0,0.0,0.0,0.0,0.0,0.0,0.0,0.0,0.0,0.0,0.0,0.0,0.0,0.0,0.0,0.0,0.0,0.0,0.0,0.0,0.0,0.0,0.0,0.0,0.0,0.0,0.0,0.0,0.0,0.0,0.0,0.0,0.0,0.0,0.0,0.0,0.0,0.0,0.0,0.0,0.0,0.0,0.0,0.0,0.0,0.0,0.0,0.0,0.0,0.0,0.0,0.0,0.0,0.0,0.0,0.0,0.0,0.0,0.0,0.0,0.0,0.0,0.0,0.0,0.0,0.0,0.0,0.0,0.0,0.0,0.0,0.0,0.0,0.0,0.0,0.0,0.0,0.0,0.0,0.0,0.0,0.0,0.0,0.0,0.0,0.0,0.0,0.0,0.0,0.0,0.0,0.0,0.0,0.0,0.0,0.0,0.0,0.0,0.0,0.0,0.0,0.0,0.0,0.0,4.3571,4.5076,4.5883,4.5847,4.3754,4.2176,0.0,0.0,0.0,0.0,0.0,0.0,0.0,0.0,0.0,0.0,0.0,0.0,0.0,0.0,0.0,0.0,0.0,0.0,0.0,0.0,0.0,0.0,0.0,0.0,0.0,0.0,0.0,0.0,0.0,0.0,0.0,0.0,0.0,0.0,0.0,0.0,0.0,0.0,0.0,0.0,0.0,0.0,0.0,0.0,0.0,0.0,0.0,0.0,0.0,0.0,0.0,0.0,0.0,0.0,0.0,0.0,0.0,0.0,0.0,0.0,0.0,0.0,0.0,0.0,0.0,0.0,0.0,0.0,0.0,0.0,0.0,0.0,0.0,0.0,0.0,0.0,0.0,0.0,0.0,0.0,0.0,0.0,0.0,0.0,0.0,0.0,0.0,0.0,0.0,0.0,0.0,0.0,0.0,0.0,0.0,0.0,0.0,0.0,0.0,0.0,0.0,0.0,0.0,0.0,0.0,0.0,0.0,0.0,0.0,4.4268,0.0,4.5626,0.0,4.4342,4.2727,0.0,0.0,0.0,0.0,0.0,0.0,0.0,0.0,0.0,0.0,0.0,0.0,0.0,0.0,0.0,0.0,0.0,0.0,0.0,0.0,0.0,0.0,0.0,0.0,0.0,0.0,0.0,0.0,0.0,0.0,0.0,0.0,0.0,0.0,0.0,0.0,0.0,0.0,0.0,0.0,0.0,0.0,0.0,0.0,0.0,0.0,0.0,0.0,0.0,0.0,0.0,0.0,0.0,0.0,0.0,0.0,0.0,0.0,0.0,0.0,0.0,0.0,0.0,0.0,0.0,0.0,0.0,0.0,0.0,0.0,0.0,0.0,0.0,0.0,0.0,0.0,0.0,0.0,0.0,0.0,0.0,0.0,0.0,0.0,0.0,0.0,0.0,0.0,0.0,0.0,0.0,0.0,0.0,0.0,0.0,0.0,0.0,0.0,0.0,0.0,0.0,0.0,0.0,0.0,0.0,0.0,0.0,0.0,4.4305,4.581,4.5186,4.5296,4.5847,4.4415,4.28,0.0,0.0,0.0,0.0,0.0,0.0,0.0,0.0,0.0,0.0,0.0,0.0,0.0,0.0,0.0,0.0,0.0,0.0,0.0,0.0,0.0,0.0,0.0,0.0,0.0,0.0,0.0,0.0,0.0,0.0,0.0,0.0,0.0,0.0,0.0,0.0,0.0,0.0,0.0,0.0,0.0,0.0,0.0,0.0,0.0,0.0,0.0,0.0,0.0,0.0,0.0,0.0,0.0,0.0,0.0,0.0,0.0,0.0,0.0,0.0,0.0,0.0,0.0,0.0,0.0,0.0,0.0,0.0,0.0,0.0,0.0,0.0,0.0,0.0,0.0,0.0,0.0,0.0,0.0,0.0,0.0,0.0,0.0,0.0,0.0,0.0,0.0,0.0,0.0,0.0,0.0,0.0,0.0,0.0,0.0,0.0,0.0,0.0,0.0,0.0,0.0,0.0,0.0,0.0,0.0,0.0,0.0,0.0,0.0,4.7498,4.7315,4.7315,4.7498,4.5993,4.4158,0.0,0.0,0.0,0.0,0.0,0.0,0.0,0.0,0.0,0.0,0.0,0.0,0.0,0.0,0.0,0.0,0.0,0.0,0.0,0.0,0.0,0.0,0.0,0.0,0.0,0.0,0.0,0.0,0.0,0.0,0.0,0.0,0.0,0.0,0.0,0.0,0.0,0.0,0.0,0.0,0.0,0.0,0.0,0.0,0.0,0.0,0.0,0.0,0.0,0.0,0.0,0.0,0.0,0.0,0.0,0.0,0.0,0.0,0.0,0.0,0.0,0.0,0.0,0.0,0.0,0.0,0.0,0.0,0.0,0.0,0.0,0.0,0.0,0.0,0.0,0.0,0.0,0.0,0.0,0.0,0.0,0.0,0.0,0.0,0.0,0.0,0.0,0.0,0.0,0.0,0.0,0.0,0.0,0.0,0.0,0.0,0.0,0.0,0.0,0.0,0.0,0.0,0.0,0.0,0.0,0.0,0.0,0.0,0.0,4.9554,4.9077,4.8783,4.8746,4.7462,4.5663,4.324,0.0,0.0,0.0,0.0,0.0,0.0,0.0,0.0,0.0,0.0,0.0,0.0,0.0,0.0,0.0,0.0,0.0,0.0,0.0,0.0,0.0,0.0,0.0,0.0,0.0,0.0,0.0,0.0,0.0,0.0,0.0,0.0,0.0,0.0,0.0,0.0,0.0,0.0,0.0,0.0,0.0,0.0,0.0,0.0,0.0,0.0,0.0,0.0,0.0,0.0,0.0,0.0,0.0,0.0,0.0,0.0,0.0,0.0,0.0,0.0,0.0,0.0,0.0,0.0,0.0,0.0,0.0,0.0,0.0,0.0,0.0,0.0,0.0,0.0,0.0,0.0,0.0,0.0,0.0,0.0,0.0,0.0,0.0,0.0,0.0,0.0,0.0,0.0,0.0,0.0,0.0,0.0,0.0,0.0,0.0,0.0,0.0,0.0,0.0,0.0,0.0,0.0,0.0,0.0,0.0,0.0,0.0,0.0,5.205,5.0655,4.9884,4.9701,4.8893,4.7278,0.0,0.0,0.0,0.0,0.0,0.0,0.0,0.0,0.0,0.0,0.0,0.0,0.0,0.0,0.0,0.0,0.0,0.0,0.0,0.0,0.0,0.0,0.0,0.0,0.0,0.0,0.0,0.0,0.0,0.0,0.0,0.0,0.0,0.0,0.0,0.0,0.0,0.0,0.0,0.0,0.0,0.0,0.0,0.0,0.0,0.0,0.0,0.0,0.0,0.0,0.0,0.0,0.0,0.0,0.0,0.0,0.0,0.0,0.0,0.0,0.0,0.0,0.0,0.0,0.0,0.0,0.0,0.0,0.0,0.0,0.0,0.0,0.0,0.0,0.0,0.0,0.0,0.0,0.0,0.0,0.0,0.0,0.0,0.0,0.0,0.0,0.0,0.0,0.0,0.0,0.0,0.0,0.0,0.0,0.0,0.0,0.0,0.0,0.0,0.0,0.0,0.0,0.0,0.0,0.0,0.0,0.0,0.0,0.0,5.2821,5.3628,5.3445,5.227,5.0875,4.871,0.0,0.0,0.0,0.0,0.0,0.0,0.0,0.0,0.0,0.0,0.0,0.0,0.0,0.0,0.0,0.0,0.0,0.0,0.0,0.0,0.0,0.0,0.0,0.0,0.0,0.0,0.0,0.0,0.0,0.0,0.0,0.0,0.0,0.0,0.0,0.0,0.0,0.0,0.0,0.0,0.0,0.0,0.0,0.0,0.0,0.0,0.0,0.0,0.0,0.0,0.0,0.0,0.0,0.0,0.0,0.0,0.0,0.0,0.0,0.0,0.0,0.0,0.0,0.0,0.0,0.0,0.0,0.0,0.0,0.0,0.0,0.0,0.0,0.0,0.0,0.0,0.0,0.0,0.0,0.0,0.0,0.0,0.0,0.0,0.0,0.0,0.0,0.0,0.0,0.0,0.0,0.0,0.0,0.0,0.0,0.0,0.0,0.0,0.0,0.0,0.0,0.0,0.0,0.0,0.0,0.0,0.0,0.0,5.2087,5.3665,5.528,5.5647,5.4766,5.2858,5.0435,0.0,0.0,0.0,0.0,0.0,0.0,0.0,0.0,0.0,0.0,0.0,0.0,0.0,0.0,0.0,0.0,0.0,0.0,0.0,0.0,0.0,0.0,0.0,0.0,0.0,0.0,0.0,0.0,0.0,0.0,0.0,0.0,0.0,0.0,0.0,0.0,0.0,0.0,0.0,0.0,0.0,0.0,0.0,0.0,0.0,0.0,0.0,0.0,0.0,0.0,0.0,0.0,0.0,0.0,0.0,0.0,0.0,0.0,0.0,0.0,0.0,0.0,0.0,0.0,0.0,0.0,0.0,0.0,0.0,0.0,0.0,0.0,0.0,0.0,0.0,0.0,0.0,0.0,0.0,0.0,0.0,0.0,0.0,0.0,0.0,0.0,0.0,0.0,0.0,0.0,0.0,0.0,0.0,0.0,0.0,0.0,0.0,0.0,0.0,0.0,0.0,0.0,0.0,0.0,0.0,0.0,0.0,0.0,5.3041,5.462,5.6124,5.6932,5.6859,5.462,5.2197,0.0,0.0,0.0,0.0,0.0,0.0,0.0,0.0,0.0,0.0,0.0,0.0,0.0,0.0,0.0,0.0,0.0,0.0,0.0,0.0,0.0,0.0,0.0,0.0,0.0,0.0,0.0,0.0,0.0,0.0,0.0,0.0,0.0,0.0,0.0,0.0,0.0,0.0,0.0,0.0,0.0,0.0,0.0,0.0,0.0,0.0,0.0,0.0,0.0,0.0,0.0,0.0,0.0,0.0,0.0,0.0,0.0,0.0,0.0,0.0,0.0,0.0,0.0,0.0,0.0,0.0,0.0,0.0,0.0,0.0,0.0,0.0,0.0,0.0,0.0,0.0,0.0,0.0,0.0,0.0,0.0,0.0,0.0,0.0,0.0,0.0,0.0,0.0,0.0,0.0,0.0,0.0,0.0,0.0,0.0,0.0,0.0,0.0,0.0,0.0,0.0,0.0,0.0,0.0,0.0,0.0,0.0,0.0,5.4656,5.6271,5.7226,5.774,5.774,5.5427,5.3041,0.0,0.0,0.0,0.0,0.0,0.0,0.0,0.0,0.0,0.0,0.0,0.0,0.0,0.0,0.0,0.0,0.0,0.0,0.0,0.0,0.0,0.0,0.0,0.0,0.0,0.0,0.0,0.0,0.0,0.0,0.0,0.0,0.0,0.0,0.0,0.0,0.0,0.0,0.0,0.0,0.0,0.0,0.0,0.0,0.0,0.0,0.0,0.0,3.5569,0.0,0.0,0.0,0.0,0.0,0.0,0.0,0.0,0.0,0.0,0.0,0.0,0.0,0.0,0.0,0.0,0.0,0.0,0.0,0.0,0.0,0.0,0.0,0.0,0.0,0.0,0.0,0.0,0.0,0.0,0.0,0.0,0.0,0.0,0.0,0.0,0.0,0.0,0.0,0.0,0.0,0.0,0.0,0.0,0.0,0.0,0.0,0.0,0.0,0.0,0.0,0.0,0.0,0.0,0.0,0.0,0.0,0.0,0.0,5.517,5.6748,5.7593,5.7997,5.7923,5.6014,5.3849,0.0,0.0,0.0,0.0,0.0,0.0,0.0,0.0,0.0,0.0,0.0,0.0,0.0,0.0,0.0,0.0,0.0,0.0,0.0,0.0,0.0,0.0,0.0,0.0,0.0,0.0,0.0,0.0,0.0,0.0,0.0,0.0,0.0,0.0,0.0,0.0,0.0,0.0,0.0,0.0,0.0,0.0,0.0,0.0,0.0,0.0,0.0,0.0,0.0,0.0,0.0,0.0,0.0,0.0,0.0,0.0,0.0,0.0,0.0,0.0,0.0,0.0,0.0,0.0,0.0,0.0,0.0,0.0,0.0,0.0,0.0,0.0,0.0,0.0,0.0,0.0,0.0,0.0,0.0,0.0,0.0,0.0,0.0,0.0,0.0,0.0,0.0,0.0,0.0,0.0,0.0,0.0,0.0,0.0,0.0,0.0,0.0,0.0,0.0,0.0,0.0,0.0,0.0,0.0,0.0,0.0,0.0,5.3775,5.5354,5.6932,5.7629,5.7997,5.796,5.6418,5.4436,5.2013,0.0,0.0,0.0,0.0,0.0,0.0,0.0,0.0,0.0,0.0,0.0,0.0,0.0,0.0,0.0,0.0,0.0,0.0,0.0,0.0,0.0,0.0,0.0,0.0,0.0,0.0,0.0,0.0,0.0,0.0,0.0,0.0,0.0,0.0,0.0,0.0,0.0,0.0,3.41,3.6853,0.0,0.0,0.0,0.0,0.0,0.0,0.0,0.0,3.7093,0.0,0.0,0.0,0.0,0.0,0.0,0.0,0.0,0.0,0.0,0.0,0.0,0.0,0.0,0.0,0.0,0.0,0.0,0.0,0.0,0.0,0.0,0.0,0.0,0.0,0.0,0.0,0.0,0.0,0.0,0.0,0.0,0.0,0.0,0.0,0.0,0.0,0.0,0.0,0.0,0.0,0.0,0.0,0.0,0.0,0.0,0.0,0.0,0.0,0.0,0.0,0.0,0.0,0.0,0.0,0.0,5.2968,5.4583,5.6161,5.774,5.7923,5.7997,5.796,5.6455,5.4436,5.2013,0.0,0.0,0.0,0.0,0.0,0.0,0.0,0.0,0.0,0.0,0.0,0.0,0.0,0.0,0.0,0.0,0.0,0.0,0.0,0.0,0.0,0.0,0.0,0.0,0.0,0.0,0.0,0.0,0.0,0.0,0.0,0.0,0.0,0.0,0.0,0.0,0.0,0.0,0.0,3.7955,3.9245,0.0,0.0,0.0,0.0,0.0,0.0,0.0,0.0,3.8948,0.0,0.0,0.0,0.0,0.0,0.0,0.0,0.0,0.0,0.0,0.0,0.0,0.0,0.0,0.0,0.0,0.0,0.0,0.0,0.0,0.0,0.0,0.0,0.0,0.0,0.0,0.0,0.0,0.0,0.0,0.0,0.0,0.0,0.0,0.0,0.0,0.0,0.0,0.0,0.0,0.0,0.0,0.0,0.0,0.0,0.0,0.0,0.0,0.0,0.0,0.0,0.0,0.0,0.0,0.0,5.3115,5.4766,5.6381,5.7923,5.7997,5.7997,5.7923,5.6014,5.3849,0.0,0.0,0.0,0.0,0.0,0.0,0.0,0.0,0.0,0.0,0.0,0.0,0.0,0.0,0.0,0.0,0.0,0.0,0.0,0.0,0.0,0.0,0.0,0.0,0.0,0.0,0.0,0.0,0.0,0.0,0.0,0.0,0.0,0.0,0.0,0.0,0.0,0.0,0.0,0.0,3.936,4.039,4.1862,0.0,0.0,0.0,0.0,0.0,0.0,3.9878,3.9624,0.0,0.0,0.0,0.0,0.0,0.0,0.0,0.0,0.0,0.0,0.0,0.0,0.0,0.0,0.0,0.0,0.0,0.0,0.0,0.0,0.0,0.0,0.0,0.0,0.0,0.0,0.0,0.0,0.0,0.0,0.0,0.0,0.0,0.0,0.0,0.0,0.0,0.0,0.0,0.0,0.0,0.0,0.0,0.0,0.0,0.0,0.0,0.0,0.0,0.0,0.0,0.0,0.0,0.0,0.0,5.3151,5.4766,5.6455,5.8143,5.807,5.807,5.818,5.5757,5.3261,0.0,0.0,0.0,0.0,0.0,0.0,0.0,0.0,0.0,0.0,0.0,0.0,0.0,0.0,0.0,0.0,0.0,0.0,0.0,0.0,0.0,0.0,0.0,0.0,0.0,0.0,0.0,0.0,0.0,0.0,0.0,0.0,0.0,0.0,0.0,0.0,0.0,0.0,0.0,0.0,0.0,4.1827,4.3142,4.2849,0.0,0.0,0.0,0.0,4.0625,4.0592,0.0,0.0,0.0,0.0,0.0,0.0,0.0,0.0,0.0,0.0,0.0,0.0,0.0,0.0,0.0,0.0,0.0,0.0,0.0,0.0,0.0,0.0,0.0,0.0,0.0,0.0,0.0,0.0,0.0,0.0,0.0,0.0,0.0,0.0,0.0,0.0,0.0,0.0,0.0,0.0,0.0,0.0,0.0,0.0,0.0,0.0,0.0,0.0,0.0,0.0,0.0,0.0,0.0,0.0,0.0,0.0,5.3115,5.4766,5.6748,5.8914,5.8364,5.8364,5.8988,5.6051,5.3219,0.0,0.0,0.0,0.0,0.0,0.0,0.0,0.0,0.0,0.0,0.0,0.0,0.0,0.0,0.0,0.0,0.0,0.0,0.0,0.0,0.0,0.0,0.0,0.0,0.0,0.0,0.0,0.0,0.0,0.0,0.0,0.0,0.0,0.0,0.0,0.0,0.0,0.0,0.0,0.0,0.0,4.3031,4.3707,4.4237,4.451,0.0,0.0,4.3572,4.2133,4.2042,0.0,0.0,0.0,0.0,0.0,0.0,0.0,0.0,0.0,0.0,0.0,0.0,0.0,0.0,0.0,0.0,0.0,0.0,0.0,0.0,0.0,0.0,0.0,0.0,0.0,0.0,0.0,0.0,0.0,0.0,0.0,0.0,0.0,0.0,0.0,0.0,0.0,0.0,0.0,0.0,0.0,0.0,0.0,0.0,0.0,0.0,0.0,0.0,0.0,0.0,0.0,0.0,0.0,0.0,0.0,4.9921,5.3151,5.5244,5.718,5.8956,5.8747,5.8652,5.8835,5.5295,5.2404,0.0,0.0,0.0,0.0,0.0,0.0,0.0,0.0,0.0,0.0,0.0,0.0,0.0,0.0,0.0,0.0,0.0,0.0,0.0,0.0,0.0,0.0,0.0,0.0,0.0,0.0,0.0,0.0,0.0,0.0,0.0,0.0,0.0,0.0,0.0,0.0,0.0,0.0,0.0,0.0,0.0,0.0,4.4139,4.4436,0.0,0.0,0.0,4.3825,4.319,0.0,0.0,0.0,0.0,0.0,0.0,0.0,0.0,0.0,0.0,0.0,0.0,0.0,0.0,0.0,0.0,0.0,0.0,0.0,0.0,0.0,0.0,0.0,0.0,0.0,0.0,0.0,0.0,0.0,0.0,0.0,0.0,0.0,0.0,0.0,0.0,0.0,0.0,0.0,0.0,0.0,0.0,0.0,0.0,0.0,0.0,0.0,0.0,0.0,0.0,0.0,0.0,0.0,0.0,0.0,0.0,0.0,5.3146,5.553,5.7454,5.8848,5.8835,5.8737,5.8413,5.4604,0.0,0.0,0.0,0.0,0.0,0.0,0.0,0.0,0.0,0.0,0.0,0.0,0.0,0.0,0.0,0.0,0.0,0.0,0.0,0.0,0.0,0.0,0.0,0.0,0.0,0.0,0.0,2.8521,0.0,0.0,0.0,0.0,0.0,0.0,0.0,0.0,0.0,0.0,0.0,0.0,0.0,0.0,4.4026,4.4858,4.5081,4.514,0.0,0.0,4.4515,4.4314,4.3707,4.2927,0.0,0.0,0.0,0.0,0.0,0.0,0.0,0.0,0.0,0.0,0.0,0.0,0.0,0.0,0.0,0.0,0.0,0.0,0.0,0.0,0.0,0.0,0.0,0.0,0.0,0.0,0.0,0.0,0.0,0.0,0.0,0.0,0.0,0.0,0.0,0.0,0.0,0.0,0.0,0.0,0.0,0.0,0.0,0.0,0.0,0.0,0.0,0.0,0.0,0.0,0.0,0.0,0.0,0.0,0.0,5.298,5.5395,5.7229,5.8565,5.8522,5.8383,5.8156,5.4179,5.1227,0.0,0.0,0.0,0.0,0.0,0.0,0.0,0.0,0.0,0.0,0.0,0.0,0.0,0.0,0.0,0.0,0.0,0.0,0.0,0.0,0.0,0.0,0.0,0.0,0.0,0.0,0.0,0.0,0.0,0.0,0.0,0.0,0.0,0.0,0.0,0.0,0.0,0.0,0.0,0.0,0.0,4.6318,4.5993,4.7037,4.7715,0.0,0.0,4.6872,4.5492,4.5286,4.4784,4.3266,0.0,0.0,0.0,0.0,0.0,0.0,0.0,0.0,0.0,0.0,0.0,0.0,0.0,0.0,0.0,0.0,0.0,0.0,0.0,0.0,0.0,0.0,0.0,0.0,0.0,0.0,0.0,0.0,0.0,0.0,0.0,0.0,0.0,0.0,0.0,0.0,0.0,0.0,0.0,0.0,0.0,0.0,0.0,0.0,0.0,0.0,0.0,0.0,0.0,0.0,0.0,0.0,0.0,4.9679,5.268,5.5036,5.6804,5.7962,5.7927,5.771,5.7412,5.3868,5.0944,0.0,0.0,0.0,0.0,0.0,0.0,0.0,0.0,0.0,0.0,0.0,0.0,0.0,0.0,0.0,0.0,0.0,0.0,0.0,0.0,0.0,0.0,0.0,0.0,0.0,0.0,0.0,0.0,3.273,3.3494,3.4262,0.0,0.0,0.0,0.0,0.0,0.0,0.0,0.0,0.0,0.0,4.652,4.7056,4.783,0.0,0.0,4.7649,4.7557,4.6644,4.5651,4.4864,4.4316,4.2705,0.0,0.0,0.0,0.0,0.0,0.0,0.0,0.0,0.0,0.0,0.0,0.0,0.0,0.0,0.0,0.0,0.0,0.0,0.0,0.0,0.0,0.0,0.0,0.0,0.0,0.0,0.0,0.0,0.0,0.0,0.0,0.0,0.0,0.0,0.0,0.0,0.0,0.0,0.0,0.0,0.0,0.0,0.0,0.0,0.0,0.0,0.0,0.0,0.0,0.0,0.0,0.0,4.9646,5.2408,5.4665,5.6201,5.7041,5.7121,5.6869,5.6174,5.3264,5.0614,0.0,0.0,0.0,0.0,0.0,0.0,0.0,0.0,0.0,0.0,0.0,0.0,0.0,0.0,0.0,0.0,0.0,0.0,0.0,0.0,0.0,0.0,0.0,0.0,0.0,0.0,0.0,0.0,3.3844,3.4672,3.6062,0.0,0.0,0.0,0.0,0.0,0.0,0.0,0.0,0.0,0.0,4.7543,4.8148,4.8895,4.9163,4.8532,4.8583,4.8489,4.7826,4.6554,4.5637,4.558,0.0,0.0,0.0,0.0,0.0,0.0,0.0,0.0,0.0,0.0,0.0,0.0,0.0,0.0,0.0,0.0,0.0,0.0,0.0,0.0,0.0,0.0,0.0,0.0,0.0,0.0,0.0,0.0,0.0,0.0,3.7588,0.0,0.0,0.0,0.0,0.0,0.0,0.0,0.0,0.0,0.0,0.0,0.0,0.0,0.0,0.0,0.0,0.0,0.0,0.0,0.0,0.0,0.0,4.9973,5.2018,5.4215,5.5437,5.5694,5.6174,5.5846,5.471,5.2313,5.0355,4.8769,0.0,0.0,0.0,0.0,0.0,0.0,0.0,0.0,0.0,0.0,0.0,0.0,0.0,0.0,0.0,0.0,0.0,0.0,0.0,0.0,0.0,0.0,0.0,0.0,0.0,0.0,3.5457,3.5382,3.593,0.0,0.0,0.0,0.0,0.0,0.0,0.0,0.0,0.0,0.0,4.8379,4.9838,4.9462,5.0577,5.1274,5.1048,5.0473,4.9796,4.9052,4.8308,4.7597,0.0,0.0,0.0,0.0,0.0,0.0,0.0,0.0,0.0,0.0,0.0,0.0,0.0,0.0,0.0,0.0,0.0,0.0,0.0,0.0,0.0,0.0,0.0,0.0,0.0,0.0,0.0,4.3828,4.3094,0.0,0.0,0.0,0.0,0.0,0.0,0.0,0.0,0.0,0.0,0.0,5.0277,5.0873,0.0,0.0,0.0,0.0,0.0,0.0,0.0,0.0,0.0,0.0,0.0,0.0,5.0307,5.2371,5.3831,5.471,5.4948,5.4918,5.4701,5.4239,5.2814,5.07,4.7694,0.0,0.0,0.0,0.0,0.0,0.0,0.0,0.0,0.0,0.0,0.0,0.0,0.0,0.0,0.0,0.0,0.0,0.0,0.0,0.0,0.0,0.0,0.0,0.0,0.0,3.5535,0.0,0.0,0.0,0.0,0.0,0.0,0.0,0.0,0.0,0.0,0.0,4.6951,4.8568,4.97,5.048,5.0748,5.1511,5.1824,0.0,0.0,0.0,0.0,0.0,0.0,0.0,0.0,0.0,0.0,0.0,0.0,0.0,0.0,4.5954,4.392,4.351,4.3442,4.322,0.0,0.0,0.0,0.0,0.0,0.0,0.0,0.0,0.0,0.0,0.0,0.0,0.0,0.0,4.8159,0.0,4.6764,0.0,0.0,0.0,0.0,0.0,0.0,0.0,0.0,5.1104,5.2514,5.3235,5.3759,5.3761,0.0,5.185,4.998,0.0,0.0,0.0,0.0,0.0,0.0,0.0,0.0,5.0779,5.2181,5.3357,5.4096,5.4425,5.4205,5.3946,5.3783,5.27,5.06,4.7412,4.4665,4.2343,0.0,0.0,0.0,0.0,0.0,0.0,0.0,0.0,0.0,0.0,0.0,0.0,0.0,0.0,0.0,0.0,0.0,0.0,0.0,0.0,0.0,0.0,0.0,3.6969,0.0,0.0,0.0,0.0,0.0,0.0,0.0,0.0,0.0,4.5591,4.6898,4.8446,5.0021,5.0823,5.1366,5.1715,0.0,0.0,0.0,0.0,0.0,0.0,0.0,4.9763,4.9763,4.939,4.9221,4.9695,4.9763,4.9763,4.9796,0.0,0.0,4.6442,4.6102,4.6238,4.5966,4.6102,4.6363,4.6306,4.6306,4.6306,0.0,0.0,0.0,0.0,0.0,0.0,0.0,0.0,5.3702,5.3298,0.0,5.0839,0.0,0.0,0.0,0.0,0.0,4.9565,0.0,0.0,5.409,5.5426,5.6002,5.6453,5.6689,5.6456,5.4759,5.3922,5.3602,4.8639,0.0,0.0,0.0,0.0,0.0,0.0,5.1314,5.1628,5.2874,5.3673,5.3946,5.3783,5.3685,5.3484,5.2063,5.0236,4.8037,4.5906,4.4067,4.2581,3.9729,0.0,0.0,0.0,0.0,0.0,0.0,0.0,0.0,0.0,0.0,0.0,0.0,0.0,0.0,0.0,0.0,0.0,0.0,0.0,0.0,3.7674,0.0,0.0,0.0,0.0,0.0,0.0,0.0,0.0,0.0,0.0,4.703,4.8587,4.9966,5.053,0.0,0.0,0.0,0.0,5.3518,5.3518,5.2909,5.2435,5.2334,5.1725,5.1285,5.1285,0.0,0.0,5.1352,5.1386,5.142,5.1386,5.142,5.0676,4.8612,4.8646,4.8781,4.8173,4.8511,4.9018,4.9052,4.8917,4.8951,5.9158,0.0,0.0,0.0,0.0,5.7013,5.7109,5.6868,5.7198,5.6768,5.5721,5.506,0.0,0.0,0.0,0.0,0.0,0.0,5.4163,5.5,5.6436,5.7405,5.7963,5.7825,5.7681,5.7435,5.6329,5.5719,5.5578,5.2348,5.0066,4.8848,0.0,0.0,0.0,0.0,5.1709,5.2788,5.3479,5.3806,5.3783,5.3618,5.3551,5.3484,5.2536,5.1183,4.9526,4.8342,4.6549,4.4101,4.2102,0.0,0.0,0.0,0.0,0.0,0.0,0.0,0.0,0.0,0.0,0.0,0.0,0.0,0.0,0.0,0.0,0.0,0.0,0.0,3.91,3.9456,3.9984,0.0,0.0,0.0,0.0,0.0,0.0,0.0,0.0,0.0,5.0741,5.0918,5.1196,0.0,0.0,5.3246,5.3145,5.3788,5.4296,5.4262,5.4532,0.0,5.3315,5.2976,5.2841,5.2841,5.3721,5.4431,5.4431,5.4431,5.4431,5.4397,5.4431,5.4194,5.3551,5.1826,5.0642,5.0338,5.0439,5.0574,5.0608,5.0574,5.0574,6.2886,6.0645,5.9763,5.9255,5.9023,5.9924,6.0171,6.0063,6.0551,6.0139,5.8944,5.8322,5.7288,5.5905,5.5483,0.0,0.0,0.0,5.635,5.6942,5.8016,5.8609,5.8804,5.8738,5.857,5.8282,5.7485,5.7074,5.7004,5.4745,5.3142,5.2066,0.0,0.0,5.0645,5.1543,5.2268,5.3009,5.3604,5.3783,5.3618,5.3551,5.3518,5.3484,5.3044,5.2097,5.0608,4.983,4.8342,4.6007,4.4181,4.217,0.0,0.0,0.0,0.0,0.0,0.0,0.0,0.0,0.0,0.0,0.0,3.1915,3.3271,0.0,0.0,0.0,3.738,3.9155,4.0826,4.1336,0.0,0.0,0.0,0.0,0.0,0.0,0.0,4.8753,5.0425,5.2024,5.3211,5.3245,5.3313,5.3754,5.4161,5.4397,5.4363,0.0,5.504,5.504,5.5412,5.5412,5.4532,5.4397,5.4363,5.4363,5.5108,5.5683,5.5716,5.5716,5.5716,5.5716,5.5716,5.5716,5.5716,5.4194,5.2875,5.2604,5.2334,5.2131,5.2131,5.2131,5.2131,6.5669,6.4927,6.3017,6.1894,6.1545,6.2651,6.3321,6.3529,6.3693,6.3311,6.2453,6.0996,5.9801,5.8885,5.7831,0.0,5.7241,5.7729,5.7942,5.8052,5.8982,5.9205,5.8857,5.9234,5.9249,5.8909,5.8255,5.7945,5.7842,5.623,5.5444,5.5375,5.2757,5.1313,5.1226,5.2563,5.3092,5.2901,5.3515,5.3754,5.3585,5.3551,5.3518,5.3518,5.345,5.2706,5.1285,5.0507,4.939,4.7868,4.5805,4.3944,4.232,0.0,0.0,0.0,0.0,0.0,0.0,0.0,0.0,0.0,0.0,0.0,0.0,0.0,0.0,0.0,3.9812,0.0,4.229,4.3511,0.0,0.0,0.0,4.7783,4.8354,4.9712,5.0837,5.142,0.0,0.0,5.4668,5.5378,5.5818,5.5886,5.5784,5.5716,5.5716,5.575,5.5818,5.5784,5.5852,5.5886,5.575,5.575,5.5716,5.575,5.5852,5.5987,5.5987,5.5953,5.5919,5.5987,5.5919,5.5919,5.5886,5.5818,5.5581,5.4837,5.4093,5.3551,5.3416,5.3382,5.3348,6.7257,6.6519,6.5765,6.4737,6.3819,6.4827,6.4927,6.4423,6.5238,6.491,6.38,6.3437,6.2655,6.1672,6.054,5.9652,5.9037,5.9609,5.9466,5.885,5.9236,5.9404,5.9175,5.8977,5.8806,5.8597,5.8425,5.8357,5.8323,5.7191,5.6678,5.661,5.5281,5.4363,5.3851,5.4159,5.4466,5.4974,5.5143,5.4905,5.4329,5.3788,5.3518,5.3484,5.2909,5.2164,5.1251,5.0473,4.9154,4.7158,4.6007,4.4485,4.2388,4.002,0.0,0.0,0.0,0.0,0.0,0.0,0.0,0.0,0.0,3.5591,3.7308,0.0,3.9105,0.0,4.2552,4.434,4.5781,4.6624,0.0,0.0,4.9937,5.0663,5.1248,5.267,5.3653,5.3788,5.46,5.548,5.619,5.6427,5.6765,5.7273,5.6393,5.5716,5.5716,5.6224,5.6528,5.6596,5.7002,5.7171,5.6664,5.6562,5.6528,5.6562,5.7002,5.7374,5.7374,5.7374,5.7374,5.7374,5.7374,5.7374,5.734,5.6934,5.6528,5.6224,5.5243,5.416,5.3619,5.3518,5.3518,6.8167,6.7421,6.7229,6.6701,6.5833,6.6106,6.6141,6.5931,6.626,6.5806,6.4867,6.4088,6.337,6.2735,6.2027,6.1353,6.0811,6.1008,6.0779,6.0264,6.0217,6.0082,5.9907,5.959,5.9375,5.9191,5.9191,5.9021,5.8681,5.8201,5.7755,5.745,5.6938,5.6532,5.6161,5.5482,5.531,5.5716,5.5716,5.5513,5.5108,5.4363,5.3991,5.3957,5.2875,5.1961,5.1251,5.0507,4.9357,4.7834,4.6752,4.5466,4.3876,4.1677,3.9952,0.0,0.0,0.0,0.0,0.0,0.0,0.0,0.0,0.0,0.0,0.0,4.2411,4.4211,4.575,4.7242,4.8795,4.9548,5.06,5.2058,5.2601,5.3111,5.3754,5.4566,5.5209,5.5547,5.5953,5.6461,5.7171,5.7273,5.7408,5.7848,5.7205,5.6697,5.6697,5.7036,5.7273,5.7306,5.7645,5.778,5.734,5.7306,5.7273,5.7306,5.7611,5.7881,5.7881,5.7881,5.7881,5.7881,5.7881,5.7881,5.7848,5.7577,5.7205,5.6765,5.6156,5.5243,5.4194,5.3721,5.3518,6.8842,6.8166,6.7963,6.7776,6.751,6.6976,6.6983,6.7446,6.6946,6.6368,6.5611,6.3989,6.3194,6.3064,6.2868,6.2599,6.2293,6.2056,6.1814,6.1641,6.1146,6.0818,6.0637,6.0489,6.0265,6.008,6.008,5.9776,5.9167,5.9167,5.8761,5.8051,5.8051,5.7983,5.7814,5.663,5.5987,5.5987,5.5919,5.5852,5.5852,5.504,5.46,5.4532,5.301,5.186,5.1217,5.0405,4.9593,4.8883,4.7631,4.6616,4.5872,4.3842,4.2455,0.0,4.1102,0.0,0.0,0.0,0.0,0.0,0.0,0.0,0.0,4.4451,4.6244,4.8173,4.9187,5.027,5.1555,5.23,5.3315,5.4702,5.4871,5.5175,5.5886,5.5987,5.6258,5.6867,5.6934,5.7205,5.778,5.7881,5.7881,5.7881,5.7814,5.7746,5.7848,5.7814,5.7814,5.7881,5.7881,5.7881,5.7814,5.7848,5.7848,5.7848,5.7848,5.7881,5.7881,5.7881,5.7881,5.7881,5.7881,5.7881,5.7881,5.7881,5.7645,5.7103,5.6833,5.6224,5.4905,5.4126,5.3653,6.9891,6.9654,6.8402,6.7997,6.808,6.736,6.7212,6.7536,6.7578,6.6953,6.5723,6.4636,6.4146,6.4112,6.3939,6.3309,6.2401,6.2329,6.1803,6.0857,6.0637,6.0489,6.0415,6.0265,6.0114,6.008,6.008,6.0013,5.9911,5.9911,5.9505,5.8829,5.8795,5.849,5.7915,0.0,0.0,0.0,5.69,5.6596,5.6562,5.5277,5.46,5.4532,5.2536,0.0,5.1183,4.9932,4.8883,4.8173,4.7868,0.0,0.0,0.0,0.0,0.0,0.0,0.0,0.0,0.0,0.0,0.0,4.665,4.6786,4.6075,4.8409,5.0135,5.0608,5.2367,5.3653,5.3923,5.4634,5.5412,5.6258,5.6359,5.6664,5.7374,5.7476,5.7543,5.7645,5.7679,5.7712,5.7848,5.7881,5.7881,5.7881,5.7881,5.7881,5.7881,5.7881,5.7881,5.7881,5.7881,5.7881,5.7881,5.7881,5.7881,5.7881,5.7881,5.7881,5.7881,5.7881,5.7881,5.7881,5.7881,5.7881,5.7881,5.7881,5.7848,5.7712,5.7205,5.6359,5.4905,5.4499,5.4194,7.05,0.0,6.935,6.9015,0.0,6.803,6.7899,6.8014,6.7634,6.6965,6.6034,6.5088,6.463,6.4523,6.3958,6.3358,6.2719,6.2644,6.2214,6.1722,6.1461,6.1384,6.1384,6.1308,6.1231,6.1231,6.1231,6.1028,6.0723,6.0689,6.0317,5.9573,5.9201,5.8829,5.8457,5.8084,5.7881,5.7881,5.7509,5.734,5.7273,5.5919,5.5141,5.5074,5.2942,0.0,0.0,0.0,0.0,0.0,0.0,0.0,0.0,0.0,0.0,4.7327,4.6989,4.6752,4.6786,4.7462,4.8037,4.8409,5.0168,5.0913,5.0168,5.1826,5.3044,5.3416,5.4499,5.531,5.5649,5.6021,5.6562,5.7239,5.734,5.7509,5.7814,5.7881,5.7881,5.7881,5.7881,5.7881,5.7881,5.7881,5.7881,5.7881,5.7881,5.7881,5.7881,5.7881,5.7881,5.7881,5.7881,5.7881,5.7881,5.7881,5.7881,5.7881,5.7881,5.7881,5.7881,5.7881,5.7881,5.7881,5.7881,5.7881,5.7881,5.7881,5.7881,5.7848,5.7611,5.7002,5.5886,5.5108,5.4499,7.0939,7.0364,7.0229,6.9911,6.9474,6.8727,6.8489,6.85,0.0,0.0,0.0,6.5446,6.4985,6.469,6.3851,6.3357,6.3094,6.2838,6.2727,6.2615,6.2493,6.2415,6.2415,6.2415,6.2415,6.2415,6.2415,6.2076,6.1501,6.1501,6.1095,6.0317,5.9708,5.9268,5.8998,5.8254,5.7881,5.7881,5.7881,5.7881,5.7848,5.6596,5.5852,5.5716,5.3653,5.2164,5.142,5.0676,4.9999,4.9424,4.939,4.939,4.939,4.939,4.939,4.939,4.939,4.939,4.9424,5.0202,5.0811,5.1048,5.2942,5.4025,5.3923,5.4566,5.5243,5.5852,5.6021,5.6359,5.6934,5.7002,5.7239,5.7814,5.7881,5.7881,5.7881,5.7881,5.7881,5.7881,5.7881,5.7881,5.7881,5.7881,5.7881,5.7881,5.7881,5.7881,5.7881,5.7881,5.7881,5.7881,5.7881,5.7881,5.7881,5.7881,5.7881,5.7881,5.7881,5.7881,5.7881,5.7881,5.7881,5.7881,5.7881,5.7881,5.7881,5.7881,5.7881,5.7881,5.7881,5.7712,5.7036,5.5919,5.4972,7.1244,7.1109,7.0466,7.0128,7.008,6.9335,6.871,6.825,6.6997,6.6325,6.6268,6.5549,6.5128,6.5094,6.4298,6.3879,6.3689,6.2999,6.2649,6.2459,6.2381,6.2415,6.2415,6.2415,6.2415,6.2415,6.2415,6.2347,6.2245,6.2212,6.1873,6.1197,6.1028,6.0317,5.9066,5.8254,5.7881,5.7881,5.7881,5.7881,5.7881,5.707,5.6359,5.5683,5.4194,5.2976,5.2198,5.1454,5.1014,5.0913,5.0913,5.0913,5.0913,5.0913,5.0913,5.0913,5.0913,5.0913,5.0947,5.2232,5.3585,5.4837,5.5818,5.6089,5.548,5.6089,5.6528,5.6664,5.7171,5.7611,5.7746,5.7712,5.7746,5.7848,5.7881,5.7881,5.7881,5.7881,5.7881,5.7881,5.7881,5.7881,5.7881,5.7881,5.7881,5.7881,5.7881,5.7881,5.7881,5.7881,5.7881,5.7881,5.7881,5.7881,5.7881,5.7881,5.7881,5.7881,5.7881,5.7881,5.7881,5.7881,5.7881,5.7881,5.7881,5.7881,5.7881,5.7881,5.7881,5.7881,5.7881,5.7814,5.7645,5.6934,5.6055,7.1312,7.1278,7.0939,7.0804,7.0737,6.9992,6.9098,6.8065,6.7437,6.7059,6.6895,6.6016,6.5595,6.5527,6.4733,6.4347,6.4233,6.3487,6.3103,6.299,6.2584,6.2415,6.2415,6.2415,6.2415,6.2415,6.2415,6.2415,6.2415,6.2415,6.2212,6.1873,6.1501,6.0554,5.9099,5.866,5.8287,5.7881,5.7881,5.7881,5.7881,5.7171,5.663,5.6292,5.5243,5.416,5.2976,5.2638,5.2063,5.1251,5.1589,5.1792,5.1792,5.2198,5.2638,5.301,5.3044,5.3213,5.3653,5.4329,5.5175,5.6224,5.6596,5.6867,5.69,5.7205,5.7408,5.7408,5.7712,5.7881,5.7881,5.7881,5.7881,5.7881,5.7881,5.7881,5.7881,5.7881,5.7881,5.7881,5.7808,5.7735,5.7735,5.7662,5.7588,5.7588,5.7662,5.7735,5.7735,5.7808,5.7881,5.7881,5.7881,5.7881,5.7881,5.7881,5.7881,5.7881,5.7881,5.7881,5.7881,5.7881,5.7881,5.7881,5.7881,5.7881,5.7881,5.7881,5.7881,5.7881,5.7881,5.7881,5.7814,5.7306,5.6325,7.1312,7.1312,7.1312,7.1312,7.1244,7.05,6.9485,6.8402,6.8064,6.776,6.7516,6.6602,6.6181,6.6113,6.5271,6.485,6.4749,6.4072,6.3768,6.37,6.3159,6.2787,6.2651,6.2651,6.255,6.2415,6.2415,6.2415,6.2415,6.2415,6.2415,6.2313,6.167,6.0689,5.9464,5.9261,5.8822,5.8039,5.8005,5.7977,5.7881,5.7268,5.6896,5.6693,5.6115,5.5204,5.3956,5.3855,5.3315,5.2235,5.264,5.3011,5.3045,5.3653,5.4262,5.4769,5.4837,5.5175,5.5815,5.5812,5.6115,5.6824,5.6892,5.7128,5.7668,5.7735,5.7808,5.7881,5.7881,5.7881,5.7881,5.7881,5.7881,5.7881,5.7881,5.7808,5.7808,5.7808,5.7735,5.7735,5.7662,5.7514,5.7514,5.7364,5.7364,5.7364,5.7439,5.7514,5.7588,5.7662,5.7735,5.7808,5.7881,5.7881,5.7881,5.7881,5.7881,5.7881,5.7881,5.7881,5.7881,5.7881,5.7881,5.7881,5.7881,5.7881,5.7881,5.7881,5.7881,5.7881,5.7881,5.7881,5.7848,5.7476,5.6697,7.1312,7.1312,7.1312,7.1312,7.1244,7.0534,7.0094,6.9755,6.8538,6.7861,6.7777,6.7015,6.6711,6.6609,6.5899,6.5595,6.5527,6.485,6.4478,6.4478,6.4444,6.4038,6.3463,6.3429,6.3057,6.2482,6.2448,6.2448,6.2415,6.2381,6.2415,6.2313,6.167,6.112,6.0617,6.0045,5.9295,5.8404,5.837,5.8186,5.7949,5.7668,5.7184,5.6511,5.6298,5.5749,5.5018,5.4946,5.4879,5.4745,5.4925,5.5063,5.5063,5.5306,5.5547,5.5615,5.5615,5.5849,5.6309,5.6264,5.6493,5.7163,5.723,5.7264,5.7364,5.7364,5.7514,5.7808,5.7881,5.7881,5.7881,5.7881,5.7881,5.7808,5.7769,5.7662,5.7621,5.7439,5.7364,5.7364,5.7398,5.7289,5.7289,5.7214,5.7214,5.7214,5.7289,5.7289,5.7364,5.7364,5.7439,5.7588,5.7735,5.7881,5.7881,5.7881,5.7881,5.7881,5.7881,5.7881,5.7881,5.7881,5.7881,5.7881,5.7881,5.7881,5.7881,5.7881,5.7881,5.7881,5.7881,5.7881,5.7881,5.778,5.7306,7.1312,7.1312,7.1312,7.1312,7.1244,7.0973,7.0601,7.0128,6.9519,6.8774,6.7929,6.759,6.7218,6.6779,6.6474,6.6339,6.6305,6.5561,6.5256,6.5189,6.4816,6.4444,6.4174,6.4174,6.3768,6.3091,6.3057,6.2821,6.2448,6.2268,6.2189,6.2156,6.1728,6.1278,6.0763,6.046,5.9879,5.9098,5.9064,5.8773,5.8219,5.7674,5.7305,5.7036,5.6929,5.6519,5.585,5.5783,5.5509,5.518,5.5147,5.5219,5.5219,5.5291,5.5564,5.5967,5.6404,5.674,5.6969,5.6929,5.6955,5.7256,5.7289,5.7289,5.7289,5.7289,5.7364,5.7514,5.7514,5.7514,5.7547,5.7514,5.7514,5.7581,5.7808,5.8111,5.8111,5.8035,5.7959,5.7926,5.733,5.6944,5.6911,5.6757,5.668,5.6757,5.6834,5.6987,5.7063,5.7214,5.7364,5.7439,5.7514,5.7662,5.7808,5.7881,5.7881,5.7881,5.7881,5.7881,5.7881,5.7881,5.7881,5.7881,5.7881,5.7881,5.7881,5.7881,5.7881,5.7881,5.7881,5.7881,5.7881,5.7881,5.7712,7.1312,7.1312,7.1312,7.1312,7.1312,7.1312,7.1007,7.05,7.0297,6.9553,6.8538,6.8098,6.7624,6.7117,6.6914,6.6812,6.6745,6.6237,6.6,6.5933,6.5425,6.5087,6.4918,6.4918,6.4512,6.3903,6.3802,6.3429,6.264,6.2098,6.1917,6.1917,6.179,6.1361,6.0893,6.0745,6.0298,5.9551,5.9485,5.9073,5.8341,5.7775,5.7387,5.7205,5.7063,5.6754,5.6179,5.6146,5.5988,5.5488,5.5495,5.5569,5.5643,5.5643,5.5984,5.6486,5.6913,5.7214,5.7139,5.7063,5.7063,5.6987,5.6987,5.7087,5.722,5.7253,5.7387,5.7543,5.7509,5.7586,5.7591,5.7591,5.7658,5.7892,5.8351,5.8619,5.8575,5.8464,5.8386,5.8274,5.7707,5.702,5.6777,5.6455,5.6244,5.6323,5.6447,5.6603,5.6757,5.6911,5.7063,5.7139,5.7139,5.7364,5.7662,5.7735,5.7808,5.7808,5.7808,5.7881,5.7881,5.7881,5.7881,5.7881,5.7881,5.7881,5.7881,5.7881,5.7881,5.7881,5.7881,5.7881,5.7881,5.7881,5.7881,7.1312,7.1312,7.1312,7.1312,7.1312,7.1312,7.1278,7.1142,7.0534,7.0128,6.9789,6.8605,6.7895,6.776,6.7151,6.6812,6.6812,6.6745,6.6711,6.6677,6.6643,6.6305,6.5662,6.5628,6.5256,6.4613,6.4546,6.4059,6.3107,6.2192,6.1709,6.1709,6.1628,6.1547,6.1283,6.1036,6.0572,5.9746,5.9481,5.8987,5.8363,5.815,5.7705,5.6867,5.6558,5.6402,5.6179,5.61,5.6146,5.6348,5.6437,5.6668,5.682,5.6972,5.7047,5.7181,5.7063,5.6944,5.6857,5.6657,5.6501,5.631,5.6409,5.6493,5.7084,5.7149,5.7412,5.8019,5.8035,5.8049,5.8219,5.8241,5.8474,5.9009,5.9164,5.9073,5.8946,5.8786,5.8462,5.8265,5.8052,5.7609,5.7134,5.6479,5.6203,5.6105,5.6119,5.6198,5.6244,5.629,5.6525,5.668,5.6834,5.7063,5.7289,5.7514,5.7588,5.7662,5.7808,5.7881,5.7881,5.7881,5.7881,5.7881,5.7881,5.7881,5.7881,5.7881,5.7881,5.7881,5.7881,5.7881,5.7881,5.7881,5.7881,7.1718,7.1312,7.1312,7.1312,7.1312,7.1312,7.1312,7.1278,7.1041,7.0635,7.0161,6.9586,6.8842,6.7895,6.7624,6.7252,6.6846,6.6812,6.6812,6.6812,6.6812,6.6677,6.644,6.6406,6.5951,6.526,6.5076,6.4353,6.2997,6.2464,6.185,6.1401,6.1136,6.0969,6.0802,6.0666,6.0417,6.0102,5.9899,5.9369,5.8717,5.8515,5.8027,5.7084,5.689,5.6821,5.6741,5.6315,5.6165,5.6244,5.6323,5.629,5.6402,5.6447,5.6756,5.7153,5.7107,5.7258,5.7606,5.7624,5.7462,5.7331,5.7249,5.7199,5.7344,5.7326,5.7456,5.7683,5.7748,5.7967,5.8329,5.8363,5.836,5.8624,5.9053,5.9235,5.9152,5.907,5.8903,5.8587,5.8073,5.7365,5.7086,5.6711,5.6473,5.6187,5.6089,5.6059,5.5912,5.5894,5.6086,5.6211,5.6402,5.648,5.668,5.7139,5.7439,5.7588,5.7662,5.7808,5.7808,5.7881,5.7881,5.7881,5.7881,5.7881,5.7881,5.7881,5.7881,5.7881,5.7881,5.7881,5.7881,5.7881,5.7881,7.1751,7.1345,7.1312,7.1312,7.1312,7.1312,7.1312,7.1312,7.1312,7.1041,7.0567,7.0297,6.9586,6.8639,6.8132,6.7658,6.7151,6.6948,6.6812,6.6812,6.6812,6.6812,6.6812,6.6728,6.6407,6.5766,6.5295,6.4488,6.3366,6.2864,6.2146,6.1231,6.0995,6.0693,6.0325,6.012,6.0033,6.0033,5.9827,5.9393,5.9004,5.8798,5.8429,5.7708,5.7345,5.7196,5.7084,5.6629,5.6368,5.645,5.645,5.645,5.6531,5.6531,5.6727,5.7151,5.7216,5.7445,5.7818,5.7916,5.7748,5.7579,5.7611,5.7559,5.7582,5.7646,5.7743,5.7904,5.8001,5.8226,5.8571,5.8551,5.8515,5.8717,5.9108,5.9369,5.9317,5.9284,5.9112,5.8874,5.8011,5.7309,5.7125,5.6846,5.6582,5.6274,5.621,5.6091,5.5845,5.5815,5.5767,5.5879,5.5927,5.6086,5.6323,5.6603,5.7063,5.7214,5.7439,5.7588,5.7735,5.7808,5.7808,5.7881,5.7881,5.7881,5.7881,5.7881,5.7881,5.7881,5.7881,5.7881,5.7881,5.7881,5.7881,7.1345,7.1312,7.1312,7.1312,7.1312,7.1312,7.1312,7.1312,7.1312,7.1244,7.1075,7.0534,7.0195,6.9789,6.8707,6.7996,6.7827,6.7252,6.688,6.6812,6.6812,6.6812,6.6728,6.6558,6.6388,6.6201,6.522,6.4594,6.41,6.3276,6.2355,6.159,6.1131,6.0597,6.0033,5.9628,5.9331,5.9331,5.9152,5.8972,5.8972,5.8818,5.8664,5.8387,5.7783,5.7299,5.6989,5.6861,5.6787,5.7023,5.7109,5.7291,5.73,5.73,5.743,5.743,5.7462,5.7409,5.7335,5.7399,5.7409,5.7181,5.7021,5.7285,5.7732,5.7828,5.8052,5.8499,5.869,5.8818,5.8786,5.8812,5.8927,5.9531,5.9522,5.9467,5.9323,5.9298,5.9209,5.8844,5.8032,5.7502,5.7344,5.6879,5.641,5.643,5.6423,5.6288,5.5847,5.5878,5.5757,5.5586,5.5523,5.5653,5.5927,5.6165,5.6447,5.6834,5.7063,5.7289,5.7514,5.7662,5.7735,5.7808,5.7881,5.7881,5.7881,5.7881,5.7881,5.7881,5.7881,5.7881,5.7881,5.7881,5.7881,7.1751,7.1312,7.1312,7.1312,7.1312,7.1312,7.1312,7.1312,7.1312,7.1312,7.1278,7.1075,7.0703,7.0195,6.9654,6.918,6.8673,6.7757,6.715,6.6829,6.6677,6.6592,6.6592,6.6302,6.6042,6.5746,6.5227,6.4563,6.3833,6.3359,6.2631,6.171,6.1012,6.0387,5.9916,5.9228,5.876,5.8792,5.8427,5.8243,5.8243,5.8058,5.7965,5.784,5.7651,5.74,5.7304,5.6694,5.6486,5.675,5.6718,5.6805,5.7011,5.7066,5.729,5.7708,5.7772,5.7941,5.8147,5.8122,5.791,5.7702,5.7579,5.7582,5.7587,5.7619,5.7713,5.7933,5.7965,5.7933,5.7933,5.7965,5.8335,5.9152,5.9241,5.9062,5.8882,5.8518,5.8335,5.8243,5.7776,5.7557,5.7494,5.7027,5.6869,5.6524,5.6552,5.6361,5.591,5.5669,5.543,5.5368,5.5333,5.5293,5.5571,5.5783,5.5894,5.6369,5.668,5.7063,5.7289,5.7439,5.7588,5.7735,5.7808,5.7881,5.7881,5.7881,5.7881,5.7881,5.7881,5.7881,5.7881,5.7881,5.7881,7.1988,7.1345,7.1312,7.1312,7.1312,7.1312,7.1312,7.1312,7.1312,7.1312,7.1312,7.1312,7.1075,7.0601,7.0208,6.9836,6.9242,6.8324,6.7497,6.6997,6.6455,6.6302,6.6302,6.6009,6.557,6.5123,6.4885,6.4473,6.3773,6.3432,6.283,6.1842,6.1113,6.0323,5.963,5.8936,5.8527,5.8182,5.7871,5.7778,5.7684,5.759,5.7464,5.7401,5.7275,5.7211,5.7053,5.656,5.6401,5.6766,5.6857,5.6947,5.7127,5.7159,5.7349,5.7666,5.7793,5.786,5.818,5.8056,5.8058,5.7778,5.7778,5.7653,5.7559,5.7495,5.7495,5.7495,5.7495,5.7495,5.7495,5.7495,5.7778,5.8335,5.8427,5.8335,5.8119,5.7965,5.7778,5.7684,5.7559,5.737,5.718,5.718,5.7055,5.6683,5.6684,5.6529,5.6182,5.5862,5.5695,5.5462,5.5216,5.5304,5.5365,5.5422,5.536,5.5814,5.629,5.668,5.6987,5.7214,5.7289,5.7588,5.7735,5.7881,5.7881,5.7881,5.7881,5.7881,5.7881,5.7881,5.7881,5.7881,5.7881,7.2022,7.1345,7.1312,7.1312,7.1312,7.1312,7.1312,7.1312,7.1312,7.1312,7.1222,7.1222,7.1188,7.1019,7.0299,6.9906,6.9615,6.8831,6.7982,6.7246,6.6611,6.6142,6.5955,6.5481,6.5066,6.4702,6.4426,6.4114,6.3735,6.3451,6.294,6.1822,6.1342,6.0643,5.9379,5.8715,5.8151,5.7714,5.7432,5.7275,5.7275,5.737,5.7306,5.6988,5.6796,5.6634,5.6439,5.6317,5.6704,5.7338,5.7402,5.7371,5.7496,5.7464,5.7465,5.759,5.7464,5.7527,5.7495,5.7495,5.7495,5.7401,5.7306,5.7401,5.7306,5.7211,5.7211,5.7211,5.7306,5.7306,5.7306,5.7306,5.7401,5.7401,5.759,5.7559,5.7495,5.7401,5.7306,5.7306,5.718,5.6988,5.67,5.673,5.67,5.6669,5.6704,5.6586,5.6528,5.6217,5.6184,5.5865,5.5443,5.5146,5.5239,5.5272,5.5185,5.5246,5.5733,5.629,5.668,5.6911,5.7214,5.7514,5.7735,5.7808,5.7881,5.7881,5.7881,5.7881,5.7881,5.7881,5.7881,5.7881,5.7881,7.2462,7.1345,7.1312,7.1312,7.1312,7.1312,7.1312,7.1312,7.1312,7.1131,7.1007,7.1007,7.0916,7.0666,7.0406,7.0306,7.0013,6.9294,6.8744,6.8128,6.6784,6.5865,6.5346,6.4885,6.4426,6.4146,6.3865,6.358,6.3099,6.2873,6.2485,6.1932,6.1163,6.0689,5.9991,5.8665,5.7912,5.7634,5.6782,5.647,5.6439,5.6439,5.6342,5.6244,5.6244,5.6145,5.6077,5.6077,5.6439,5.7211,5.7401,5.7495,5.7401,5.7401,5.7401,5.7401,5.7495,5.7401,5.718,5.6988,5.6923,5.6634,5.6537,5.6439,5.6342,5.6439,5.6342,5.6342,5.6372,5.6439,5.6439,5.6439,5.6439,5.6439,5.6827,5.7084,5.6923,5.673,5.6664,5.6439,5.6342,5.6342,5.6244,5.6274,5.6274,5.6244,5.6342,5.6409,5.6361,5.6149,5.5998,5.6,5.5624,5.5301,5.504,5.5051,5.4962,5.4793,5.5246,5.5894,5.6369,5.6757,5.7139,5.7514,5.7588,5.7735,5.7808,5.7881,5.7881,5.7881,5.7881,5.7881,5.7881,5.7881,5.7881,7.2631,7.1312,7.1312,7.1312,7.1312,7.1222,7.1131,7.1098,7.1007,7.0916,7.0733,7.0733,7.0608,7.0515,7.033,7.0236,7.0076,6.9429,6.8781,6.8031,6.6499,6.533,6.4681,6.424,6.3959,6.358,6.3293,6.2971,6.2612,6.2284,6.1885,6.1551,6.1037,6.0493,5.9888,5.8969,5.797,5.7412,5.6755,5.6282,5.6009,5.5979,5.5979,5.5979,5.588,5.578,5.588,5.588,5.6047,5.6537,5.6827,5.6923,5.6827,5.6827,5.6923,5.6827,5.6827,5.6827,5.6634,5.6537,5.6342,5.6274,5.6077,5.5979,5.6077,5.5979,5.5979,5.6077,5.5979,5.5979,5.5979,5.5979,5.5979,5.6077,5.6342,5.6634,5.6439,5.6372,5.6176,5.6077,5.5979,5.5979,5.588,5.588,5.588,5.588,5.5979,5.6077,5.6183,5.5944,5.5892,5.5899,5.5875,5.5534,5.5218,5.5176,5.5027,5.4835,5.4832,5.5491,5.6053,5.6603,5.6911,5.7289,5.7439,5.7588,5.7735,5.7808,5.7881,5.7881,5.7881,5.7881,5.7881,5.7881,5.7881,7.2631,7.1312,7.1222,7.1222,7.1222,7.1007,7.0825,7.0825,7.0641,7.0515,7.0423,7.0423,7.033,7.033,6.986,6.9703,6.9703,6.922,6.8469,6.7427,6.5934,6.4674,6.4061,6.3835,6.3484,6.3099,6.2612,6.2284,6.2085,6.1683,6.141,6.1103,6.0763,6.0279,5.9643,5.9027,5.8225,5.7284,5.6819,5.6325,5.5901,5.578,5.578,5.578,5.5681,5.5581,5.5581,5.5581,5.5681,5.588,5.5979,5.6077,5.6077,5.6077,5.6077,5.6077,5.6145,5.6176,5.6077,5.6077,5.5979,5.5979,5.588,5.588,5.588,5.578,5.578,5.578,5.5849,5.588,5.588,5.588,5.588,5.588,5.588,5.588,5.588,5.5979,5.5979,5.588,5.588,5.578,5.5681,5.5681,5.578,5.5581,5.5681,5.578,5.588,5.5827,5.5932,5.6128,5.6015,5.5838,5.5534,5.5193,5.5086,5.4932,5.4836,5.5164,5.5894,5.6369,5.668,5.6987,5.7214,5.7439,5.7662,5.7735,5.7808,5.7881,5.7881,5.7881,5.7881,5.7881,5.7881,7.2631,7.1312,7.1098,7.1007,7.0916,7.0733,7.0608,7.0515,7.0515,7.0236,6.9955,6.9955,6.967,6.9382,6.9285,6.9188,6.9091,6.8765,6.811,6.687,6.56,6.4502,6.3603,6.3094,6.271,6.2481,6.1985,6.1714,6.141,6.1206,6.0794,6.0586,6.0377,6.0136,5.9848,5.9017,5.8308,5.7493,5.6775,5.6071,5.5561,5.5411,5.5381,5.5381,5.5381,5.528,5.531,5.528,5.528,5.5481,5.578,5.5979,5.5979,5.5979,5.5979,5.5979,5.5979,5.5979,5.5979,5.578,5.5681,5.5681,5.5581,5.5381,5.5381,5.5381,5.5381,5.5381,5.5381,5.5381,5.5481,5.5381,5.5381,5.5481,5.5381,5.5381,5.5381,5.5581,5.5581,5.5481,5.5381,5.5381,5.528,5.5381,5.5381,5.528,5.5381,5.5481,5.5581,5.5681,5.588,5.6077,5.6024,5.5822,5.5647,5.5316,5.5098,5.5014,5.4845,5.4697,5.5442,5.6053,5.6369,5.668,5.6911,5.7214,5.7439,5.7588,5.7735,5.7808,5.7881,5.7881,5.7881,5.7881,5.7881,7.2355,7.095,7.0825,7.0733,7.0641,7.0423,7.0236,7.0143,7.0049,6.9765,6.9478,6.9382,6.9188,6.8797,6.8699,6.86,6.8401,6.8,6.7208,6.6097,6.4989,6.4019,6.3021,6.2292,6.1885,6.1885,6.1481,6.1206,6.0897,6.0617,6.0407,6.0197,5.988,5.9773,5.9773,5.9198,5.8504,5.7813,5.7049,5.6286,5.5748,5.5329,5.5209,5.5209,5.5209,5.5209,5.5209,5.5209,5.5179,5.528,5.5481,5.5581,5.5581,5.5581,5.5581,5.5581,5.5581,5.5581,5.5581,5.5481,5.5381,5.5411,5.528,5.5179,5.5209,5.5209,5.5209,5.5209,5.5179,5.5179,5.5209,5.5179,5.5209,5.5209,5.5209,5.5209,5.5209,5.528,5.5381,5.5179,5.5179,5.5179,5.5179,5.5209,5.5179,5.528,5.528,5.5381,5.528,5.5381,5.5581,5.5681,5.578,5.5797,5.5688,5.5524,5.5225,5.4968,5.4781,5.4623,5.4729,5.5442,5.6053,5.6369,5.668,5.6911,5.7214,5.7364,5.7588,5.7662,5.7808,5.7881,5.7881,5.7881,5.7881,7.2076,7.0515,7.0423,7.0423,7.033,7.0082,6.9893,6.9703,6.9415,6.9188,6.8896,6.8797,6.86,6.8401,6.8201,6.7899,6.7593,6.7149,6.6416,6.5628,6.4465,6.3527,6.2664,6.1774,6.1206,6.1277,6.1,6.069,6.0481,6.0197,5.9986,5.988,5.9636,5.9422,5.9422,5.9177,5.871,5.8022,5.7513,5.6825,5.6196,5.5628,5.5418,5.5209,5.5209,5.5209,5.5209,5.5209,5.5209,5.5209,5.5209,5.5209,5.5209,5.5209,5.5209,5.5209,5.528,5.54,5.555,5.552,5.5388,5.5329,5.5359,5.5269,5.5239,5.5209,5.5209,5.5209,5.5209,5.5209,5.5209,5.5209,5.5209,5.5209,5.5209,5.5209,5.5209,5.5209,5.5209,5.5209,5.5209,5.5209,5.5209,5.5209,5.5209,5.5209,5.5209,5.5209,5.5209,5.5179,5.5381,5.5481,5.5481,5.5681,5.5637,5.5638,5.5284,5.5101,5.4867,5.4655,5.4473,5.4928,5.5637,5.6086,5.6369,5.668,5.6987,5.7289,5.7439,5.7588,5.7735,5.7881,5.7881,5.7881,5.7881,7.1855,7.0423,7.0049,6.9893,6.9893,6.9382,6.9188,6.9091,6.8797,6.86,6.8301,6.8101,6.7899,6.7593,6.7593,6.7317,6.6764,6.6417,6.6004,6.5277,6.4159,6.3065,6.2346,6.1212,6.0543,6.0302,6.0302,6.0272,6.0092,5.9743,5.9667,5.9529,5.9315,5.9207,5.9207,5.9069,5.883,5.8321,5.7932,5.7304,5.6466,5.5957,5.5598,5.5239,5.5209,5.5209,5.5209,5.5209,5.5209,5.5209,5.5209,5.5209,5.5269,5.5269,5.5269,5.5299,5.5359,5.5598,5.5927,5.6017,5.6017,5.6017,5.6017,5.5718,5.5418,5.5239,5.5269,5.5209,5.5209,5.5209,5.5209,5.5209,5.5209,5.5209,5.5209,5.5209,5.5209,5.5209,5.5209,5.5209,5.5209,5.5209,5.5209,5.5209,5.5209,5.5209,5.5209,5.5209,5.5209,5.5209,5.528,5.528,5.528,5.5381,5.5521,5.55,5.5371,5.5347,5.5069,5.4862,5.4743,5.4815,5.5127,5.5556,5.6086,5.6447,5.6757,5.7139,5.7364,5.7514,5.7662,5.7881,5.7881,5.7881,5.7881,7.1379,6.9893,6.9574,6.9285,6.9188,6.8896,6.86,6.8401,6.8201,6.8,6.7797,6.7523,6.7213,6.6974,6.6733,6.6448,6.613,6.5808,6.5405,6.4615,6.3426,6.2472,6.1951,6.073,6.0077,5.988,5.9849,5.9849,5.9743,5.9422,5.9315,5.9315,5.9099,5.9099,5.9099,5.9099,5.8949,5.859,5.8261,5.7663,5.6615,5.6107,5.5478,5.5299,5.5209,5.5209,5.5209,5.5209,5.5209,5.5209,5.5209,5.5388,5.5568,5.5688,5.5688,5.5748,5.5957,5.6256,5.6585,5.6645,5.6645,5.6645,5.6645,5.6526,5.6196,5.5957,5.5538,5.5269,5.5209,5.5209,5.5209,5.5209,5.5209,5.5209,5.5209,5.5209,5.5209,5.5209,5.5209,5.5209,5.5209,5.5209,5.5209,5.5209,5.5209,5.5209,5.5209,5.5209,5.5209,5.5209,5.5209,5.5209,5.5179,5.528,5.5481,5.5577,5.5511,5.5494,5.541,5.5127,5.492,5.4885,5.49,5.5095,5.5637,5.6244,5.6603,5.6834,5.7139,5.7439,5.7588,5.7735,5.7881,5.7881,5.7881,7.0798,6.9188,6.8994,6.8699,6.8401,6.8401,6.8101,6.7695,6.7625,6.7388,6.7078,6.6869,6.6586,6.6374,6.6023,6.57,6.5483,6.5187,6.4487,6.3763,6.284,6.1842,6.0957,6.0243,5.9773,5.9422,5.9422,5.9422,5.9422,5.9207,5.9099,5.9099,5.9099,5.9099,5.9099,5.9099,5.9099,5.8949,5.862,5.7962,5.7004,5.5897,5.5209,5.5209,5.5209,5.5209,5.5209,5.5209,5.5209,5.5209,5.5239,5.5478,5.6047,5.6286,5.6406,5.6585,5.6944,5.7094,5.7304,5.7304,5.7304,5.7304,5.7304,5.7214,5.6885,5.6376,5.5927,5.5478,5.5209,5.5209,5.5209,5.5209,5.5209,5.5209,5.5209,5.5209,5.5209,5.5209,5.5209,5.5209,5.5209,5.5209,5.5209,5.5209,5.5209,5.5209,5.5209,5.5209,5.5209,5.5209,5.5209,5.5209,5.5179,5.528,5.5481,5.5681,5.5614,5.5633,5.5558,5.5411,5.5184,5.4914,5.494,5.5005,5.536,5.5974,5.629,5.668,5.7063,5.7289,5.7514,5.7662,5.7808,5.7881,5.7881,7.0237,6.8699,6.8401,6.8101,6.7899,6.7593,6.742,6.7109,6.6901,6.6554,6.6311,6.6023,6.5808,6.5592,6.5156,6.4936,6.4715,6.4401,6.3731,6.303,6.2281,6.1395,6.0603,5.9861,5.9482,5.9207,5.9207,5.9099,5.9207,5.9099,5.9099,5.9099,5.9099,5.9099,5.9099,5.9099,5.9099,5.9099,5.8979,5.8291,5.7094,5.5837,5.5299,5.5209,5.5209,5.5209,5.5209,5.5209,5.5209,5.5209,5.5209,5.5508,5.6107,5.6705,5.7304,5.7543,5.7543,5.7363,5.7872,5.7992,5.7992,5.7992,5.7992,5.7663,5.7244,5.6735,5.6316,5.6077,5.5598,5.5239,5.5209,5.5209,5.5209,5.5209,5.5209,5.5209,5.5209,5.5209,5.5209,5.5209,5.5209,5.5209,5.5209,5.5209,5.5209,5.5209,5.5209,5.5209,5.5209,5.5209,5.5209,5.5209,5.5209,5.528,5.5381,5.5581,5.569,5.5773,5.5827,5.5781,5.5563,5.5328,5.5011,5.5112,5.5472,5.5766,5.6132,5.6525,5.6987,5.7214,5.7439,5.7662,5.7881,5.7881,5.7881,6.8904,6.8101,6.7695,6.7388,6.7109,6.6764,6.6554,6.6236,6.6161,6.6023,6.5808,6.5375,6.5046,6.4746,6.4412,6.43,6.4239,6.3741,6.294,6.2193,6.1528,6.0754,5.9825,5.9495,5.9237,5.9099,5.9099,5.9099,5.9099,5.9099,5.9099,5.9099,5.9099,5.9099,5.9099,5.9099,5.9099,5.889,5.8381,5.7693,5.6915,5.5927,5.5209,5.5209,5.5209,5.5209,5.5209,5.5209,5.5209,5.5209,5.5209,5.5688,5.6466,5.7034,5.7513,5.856,5.8441,5.8411,5.862,5.868,5.865,5.868,5.862,5.8381,5.7782,5.7393,5.6825,5.6196,5.5927,5.5628,5.5299,5.5209,5.5209,5.5209,5.5209,5.5209,5.5209,5.5209,5.5209,5.5209,5.5209,5.5209,5.5209,5.5209,5.5209,5.5209,5.5209,5.5209,5.5209,5.5209,5.5209,5.5209,5.5209,5.5179,5.528,5.5481,5.578,5.5857,5.6152,5.6084,5.6,5.5771,5.5399,5.5251,5.5486,5.5734,5.6039,5.6402,5.6757,5.7063,5.7364,5.7588,5.7808,5.7881,5.7881,6.7504,6.7285,6.6869,6.6554,6.6374,6.6098,6.5777,6.5483,6.5483,6.5375,6.5156,6.4826,6.4412,6.4106,6.3993,6.3849,6.3819,6.3071,6.2294,6.1519,6.0746,6.0006,5.9477,5.9099,5.9099,5.9099,5.9099,5.9099,5.9099,5.9099,5.9099,5.9099,5.9099,5.9099,5.9099,5.9099,5.9099,5.9009,5.7842,5.7244,5.6885,5.5837,5.5329,5.5209,5.5209,5.5209,5.5209,5.5209,5.5209,5.5209,5.5418,5.6017,5.6855,5.7334,5.7932,5.877,5.8919,5.8949,5.9009,5.9039,5.9099,5.9099,5.9099,5.883,5.8471,5.8261,5.7872,5.6855,5.6256,5.5927,5.5568,5.5359,5.5209,5.5209,5.5209,5.5209,5.5209,5.5209,5.5209,5.5209,5.5209,5.5209,5.5209,5.5209,5.5209,5.5209,5.5209,5.5209,5.5209,5.5209,5.5209,5.5209,5.5209,5.5179,5.528,5.5381,5.5681,5.5979,5.6274,5.6357,5.6311,5.5994,5.5658,5.558,5.5628,5.5799,5.6006,5.6323,5.6603,5.7063,5.7364,5.7588,5.7735,5.7808,5.7881,6.6464,6.5915,6.6098,6.5991,6.5808,6.57,6.5375,6.4826,6.4826,6.4604,6.43,6.4106,6.4106,6.388,6.3622,6.3508,6.3448,6.2588,6.1755,6.1096,6.0416,5.9697,5.9279,5.9099,5.9099,5.9099,5.9099,5.9099,5.9099,5.9099,5.9099,5.9099,5.9099,5.9099,5.9099,5.9099,5.9099,5.883,5.7782,5.7124,5.6765,5.5957,5.5239,5.5209,5.5209,5.5209,5.5209,5.5209,5.5209,5.5209,5.5688,5.6256,5.7004,5.7603,5.8291,5.889,5.9099,5.9099,5.9099,5.9099,5.9099,5.9099,5.9099,5.9069,5.886,5.8411,5.8052,5.7723,5.6885,5.6256,5.5927,5.5628,5.5239,5.5209,5.5209,5.5209,5.5209,5.5209,5.5209,5.5209,5.5209,5.5209,5.5209,5.5209,5.5209,5.5209,5.5209,5.5209,5.5209,5.5209,5.5209,5.5209,5.5209,5.5209,5.5209,5.5381,5.5681,5.5948,5.6244,5.6423,5.6497,5.6182,5.5847,5.5802,5.5905,5.5929,5.6006,5.6369,5.6757,5.7139,5.7364,5.7514,5.7735,5.7881,5.7881,6.5404,6.5156,6.4936,6.4936,6.5156,6.4936,6.4715,6.43,6.43,6.4075,6.3652,6.3652,6.3652,6.3394,6.3249,6.3069,6.2535,6.1905,6.1134,6.0475,5.9787,5.9368,5.9129,5.9099,5.9099,5.9099,5.9099,5.9099,5.9099,5.9099,5.9099,5.9099,5.9099,5.9099,5.9099,5.9099,5.9099,5.871,5.7872,5.7124,5.6825,5.5927,5.5209,5.5209,5.5209,5.5209,5.5209,5.5209,5.5209,5.5359,5.5867,5.6466,5.7094,5.7782,5.8441,5.9009,5.9099,5.9099,5.9099,5.9099,5.9099,5.9099,5.9099,5.9099,5.9099,5.883,5.8501,5.7992,5.7304,5.6615,5.6137,5.5628,5.5209,5.5209,5.5209,5.5209,5.5209,5.5209,5.5209,5.5209,5.5209,5.5209,5.5209,5.5209,5.5209,5.5209,5.5209,5.5209,5.5209,5.5209,5.5209,5.5209,5.5209,5.528,5.528,5.5481,5.5681,5.6047,5.6342,5.6676,5.6871,5.6333,5.6024,5.6039,5.6002,5.5978,5.6132,5.6525,5.6911,5.7214,5.7364,5.7514,5.7662,5.7881,5.7881,6.4524,6.4524,6.4218,6.4218,6.4524,6.4412,6.4075,6.3849,6.3849,6.3652,6.3424,6.3424,6.3309,6.3164,6.281,6.26,6.1972,6.1253,6.0595,6.0027,5.9548,5.9159,5.9099,5.9099,5.9099,5.9099,5.9099,5.9099,5.9099,5.9099,5.9099,5.9099,5.9099,5.9099,5.9099,5.9099,5.9009,5.856,5.7812,5.6944,5.6705,5.5807,5.5209,5.5209,5.5209,5.5209,5.5209,5.5209,5.5209,5.5478,5.5957,5.6615,5.7244,5.7872,5.856,5.8919,5.9099,5.9099,5.9099,5.9099,5.9099,5.9099,5.9099,5.9099,5.9099,5.9099,5.883,5.8471,5.7663,5.6915,5.6376,5.5777,5.5269,5.5209,5.5209,5.5209,5.5209,5.5209,5.5209,5.5209,5.5209,5.5209,5.5209,5.5209,5.5209,5.5209,5.5209,5.5209,5.5209,5.5209,5.5209,5.5209,5.5209,5.528,5.528,5.5581,5.588,5.6342,5.67,5.7084,5.7214,5.6608,5.6479,5.6681,5.6543,5.6107,5.6211,5.668,5.6987,5.7214,5.7439,5.7588,5.7735,5.7881,5.7881,6.3993,6.3993,6.3993,6.3993,6.3993,6.3993,6.388,6.3538,6.3538,6.3424,6.3194,6.3194,6.3194,6.2959,6.254,6.2151,6.1732,6.0745,6.0086,5.9817,5.9368,5.9129,5.9099,5.9099,5.9099,5.9099,5.9099,5.9099,5.9099,5.9099,5.9099,5.9099,5.9099,5.9099,5.9099,5.9099,5.88,5.8171,5.7483,5.6885,5.6256,5.5568,5.5269,5.5209,5.5209,5.5209,5.5209,5.5209,5.5209,5.5329,5.6346,5.6915,5.7154,5.8321,5.8949,5.9069,5.9099,5.9099,5.9099,5.9099,5.9099,5.9099,5.9099,5.9099,5.9099,5.9099,5.9099,5.877,5.7842,5.7214,5.6615,5.6017,5.5448,5.5209,5.5209,5.5209,5.5209,5.5209,5.5209,5.5209,5.5209,5.5209,5.5209,5.5209,5.5209,5.5209,5.5209,5.5209,5.5209,5.5209,5.5209,5.528,5.528,5.5381,5.5481,5.578,5.6145,5.6506,5.6957,5.7307,5.7369,5.6942,5.6965,5.7312,5.6856,5.6264,5.6447,5.6757,5.7063,5.7439,5.7662,5.7808,5.7881,5.7881,5.7881,6.3652,6.3652,6.3538,6.3424,6.3424,6.3652,6.3538,6.3309,6.3194,6.3194,6.3079,6.3079,6.3079,6.2869,6.2361,6.1822,6.1283,6.0625,5.9967,5.9428,5.9189,5.9159,5.9099,5.9099,5.9099,5.9099,5.9099,5.9099,5.9099,5.9099,5.9099,5.9099,5.9099,5.9099,5.9099,5.9069,5.88,5.8141,5.7453,5.6795,5.6166,5.5538,5.5209,5.5209,5.5209,5.5209,5.5209,5.5209,5.5209,5.5329,5.6376,5.6974,5.7274,5.8351,5.9039,5.9099,5.9099,5.9099,5.9099,5.9099,5.9099,5.9099,5.9099,5.9099,5.9099,5.9099,5.9099,5.883,5.7842,5.7244,5.6885,5.5867,5.5299,5.5209,5.5209,5.5209,5.5209,5.5209,5.5209,5.5209,5.5209,5.5209,5.5209,5.5209,5.5209,5.5209,5.5209,5.5209,5.5209,5.5209,5.5179,5.531,5.5381,5.5481,5.5681,5.5979,5.6342,5.67,5.7086,5.734,5.727,5.7236,5.7034,5.7029,5.6678,5.6369,5.668,5.6987,5.7364,5.7735,5.7808,5.7881,5.7881,5.7881,5.7881,6.3309,6.3279,6.3194,6.3079,6.3194,6.3309,6.3309,6.3079,6.3079,6.3079,6.3079,6.3079,6.2899,6.26,6.2032,6.1373,6.0745,6.0057,5.9638,5.9129,5.9099,5.9099,5.9099,5.9099,5.9099,5.9099,5.9099,5.9099,5.9099,5.9099,5.9099,5.9099,5.9099,5.8919,5.883,5.862,5.8381,5.7693,5.7034,5.6406,5.5837,5.5418,5.5209,5.5209,5.5209,5.5209,5.5209,5.5209,5.5209,5.5508,5.6077,5.6855,5.7363,5.8022,5.883,5.9009,5.9099,5.9099,5.9099,5.9099,5.9099,5.9099,5.9099,5.9099,5.9099,5.9099,5.8919,5.8501,5.7693,5.7154,5.6675,5.5628,5.5299,5.5209,5.5209,5.5209,5.5209,5.5209,5.5209,5.5209,5.5209,5.5209,5.5209,5.5209,5.5209,5.5209,5.5209,5.5179,5.5179,5.5179,5.528,5.5381,5.5481,5.5681,5.5979,5.6244,5.6634,5.6892,5.7214,5.7494,5.7507,5.7405,5.7098,5.6774,5.6657,5.6636,5.6987,5.7364,5.7588,5.7735,5.7881,5.7881,5.7881,5.7881,5.7881,6.3079,6.3079,6.3079,6.3079,6.3079,6.3079,6.3079,6.3079,6.3079,6.3049,6.3019,6.2959,6.263,6.2002,6.1373,6.0775,6.0176,5.9488,5.9249,5.9129,5.9099,5.9099,5.9099,5.9099,5.9099,5.9099,5.9099,5.9099,5.9099,5.9099,5.9099,5.8979,5.889,5.859,5.8261,5.7902,5.7603,5.7034,5.6645,5.6017,5.5478,5.5269,5.5209,5.5209,5.5209,5.5209,5.5209,5.5209,5.5209,5.5448,5.5867,5.6466,5.7094,5.7752,5.8411,5.8919,5.9099,5.9099,5.9099,5.9099,5.9099,5.9099,5.9099,5.9099,5.9099,5.9069,5.883,5.8291,5.7543,5.6885,5.6226,5.5718,5.5209,5.5209,5.5209,5.5209,5.5209,5.5209,5.5209,5.5209,5.5209,5.5209,5.5209,5.5209,5.5209,5.5209,5.5179,5.528,5.528,5.528,5.5381,5.5481,5.5681,5.5979,5.6244,5.6537,5.6988,5.737,5.7464,5.7706,5.7675,5.7528,5.7112,5.6857,5.6843,5.6934,5.7248,5.7514,5.7662,5.7808,5.7881,5.7881,5.7881,5.7881,5.7881,6.3079,6.3079,6.3079,6.3079,6.3079,6.3079,6.3079,6.3079,6.3079,6.2869,6.2391,6.2391,6.2002,6.1343,6.0685,6.0296,5.9907,5.9488,5.9219,5.9099,5.9099,5.9099,5.9099,5.9099,5.9099,5.9099,5.9099,5.9099,5.9099,5.9099,5.877,5.8471,5.8411,5.7992,5.7483,5.6974,5.6705,5.6466,5.6166,5.5777,5.5359,5.5209,5.5209,5.5209,5.5209,5.5209,5.5209,5.5209,5.5209,5.5299,5.5837,5.6436,5.7064,5.7752,5.8411,5.9009,5.9099,5.9099,5.9099,5.9099,5.9099,5.9099,5.9099,5.9099,5.9099,5.8979,5.871,5.8022,5.7363,5.6675,5.6107,5.5598,5.5269,5.5209,5.5209,5.5209,5.5209,5.5209,5.5209,5.5209,5.5209,5.5209,5.5209,5.5209,5.5209,5.5209,5.528,5.528,5.5381,5.5381,5.5581,5.5681,5.5948,5.6244,5.6537,5.6796,5.737,5.7808,5.7864,5.7751,5.7547,5.7352,5.707,5.6995,5.7033,5.7248,5.7514,5.7662,5.7808,5.7808,5.7881,5.7881,5.7881,5.7881,5.7881,6.3079,6.3079,6.3079,6.3079,6.3019,6.281,6.269,6.269,6.269,6.245,6.2091,6.1822,6.1343,6.0745,6.0296,5.9967,5.9638,5.9338,5.9099,5.9099,5.9099,5.9099,5.9099,5.9099,5.9099,5.9099,5.9099,5.9099,5.9009,5.871,5.8381,5.7782,5.7723,5.7304,5.6825,5.6436,5.6107,5.5897,5.5718,5.5538,5.5359,5.5209,5.5209,5.5209,5.5209,5.5209,5.5209,5.5209,5.5209,5.5209,5.5688,5.6077,5.6795,5.7573,5.8171,5.871,5.8979,5.9039,5.9099,5.9099,5.9099,5.9099,5.9069,5.8919,5.877,5.859,5.8201,5.7693,5.7064,5.6466,5.5927,5.5478,5.5329,5.5209,5.5209,5.5209,5.5209,5.5209,5.5209,5.5209,5.5209,5.5209,5.5209,5.5209,5.5179,5.5179,5.528,5.5481,5.5481,5.5481,5.578,5.5979,5.6244,5.6537,5.6892,5.718,5.7684,5.8022,5.8186,5.7964,5.7559,5.738,5.7244,5.7255,5.7281,5.7514,5.7662,5.7808,5.7881,5.7881,5.7881,5.7881,5.7881,5.7881,5.7881,6.3079,6.3079,6.3019,6.2959,6.2899,6.2301,6.2032,6.2002,6.1912,6.1912,6.1732,6.1283,6.0655,6.0086,5.9877,5.9608,5.9368,5.9159,5.9099,5.9099,5.9099,5.9099,5.9099,5.9099,5.9099,5.9099,5.8949,5.874,5.865,5.8291,5.7693,5.7064,5.7034,5.6705,5.6137,5.6017,5.5748,5.5448,5.5359,5.5269,5.5239,5.5209,5.5209,5.5209,5.5209,5.5209,5.5209,5.5209,5.5209,5.5209,5.5299,5.5598,5.6406,5.7274,5.7842,5.8112,5.8411,5.868,5.874,5.871,5.883,5.886,5.8949,5.8501,5.8171,5.8261,5.7992,5.7244,5.6555,5.6107,5.5598,5.5388,5.5239,5.5209,5.5209,5.5209,5.5209,5.5209,5.5209,5.5209,5.5209,5.5209,5.5209,5.5209,5.5209,5.528,5.5381,5.5581,5.578,5.578,5.6077,5.6372,5.6634,5.6892,5.737,5.7621,5.8024,5.826,5.8285,5.8076,5.7539,5.7445,5.7475,5.743,5.7514,5.7662,5.7808,5.7881,5.7881,5.7881,5.7954,5.7954,5.7954,5.7954,5.7954,6.3079,6.3019,6.254,6.2331,6.2241,6.1642,6.1343,6.1283,6.0775,6.0595,6.0535,6.0356,5.9997,5.9488,5.9428,5.9249,5.9159,5.9099,5.9099,5.9099,5.9099,5.9099,5.9099,5.9099,5.9099,5.8919,5.865,5.8112,5.7723,5.7363,5.7034,5.6466,5.6376,5.6077,5.5568,5.5508,5.5388,5.5209,5.5209,5.5209,5.5209,5.5209,5.5209,5.5209,5.5209,5.5209,5.5209,5.5209,5.5209,5.5209,5.5209,5.5568,5.6166,5.6944,5.7274,5.7393,5.7603,5.7962,5.8141,5.8082,5.8022,5.8082,5.7992,5.7633,5.7543,5.7902,5.7663,5.6795,5.6137,5.5718,5.5418,5.5299,5.5209,5.5209,5.5209,5.5209,5.5209,5.5209,5.5209,5.5209,5.5209,5.5209,5.5209,5.5209,5.5209,5.528,5.5481,5.5681,5.6047,5.6145,5.6537,5.673,5.6892,5.718,5.7653,5.8022,5.826,5.8229,5.8087,5.7832,5.7527,5.7529,5.743,5.7566,5.7662,5.7808,5.7881,5.7881,5.7881,5.7954,5.8027,5.8133,5.8205,5.8243,5.8205,6.2899,6.257,6.1942,6.1672,6.1553,6.0954,6.0655,6.0535,5.9937,5.9638,5.9668,5.9608,5.9428,5.9129,5.9099,5.9099,5.9099,5.9099,5.9099,5.9099,5.9099,5.9099,5.9099,5.9039,5.88,5.859,5.7962,5.7363,5.6765,5.6615,5.6376,5.5867,5.5718,5.5598,5.5209,5.5209,5.5209,5.5209,5.5209,5.5209,5.5209,5.5209,5.5209,5.5209,5.5209,5.5209,5.5209,5.5209,5.5209,5.5209,5.5209,5.5269,5.5777,5.6316,5.6645,5.6795,5.7004,5.7244,5.7423,5.7363,5.7214,5.7334,5.7393,5.7184,5.6735,5.7004,5.7004,5.6226,5.5777,5.5359,5.5299,5.5209,5.5209,5.5209,5.5209,5.5209,5.5209,5.5209,5.5209,5.5209,5.5209,5.5209,5.5209,5.5209,5.528,5.5481,5.5581,5.5979,5.6244,5.6634,5.6892,5.7213,5.7371,5.7496,5.7902,5.8169,5.8446,5.8249,5.7995,5.7593,5.7351,5.7463,5.7514,5.7662,5.7735,5.7808,5.7881,5.7954,5.8061,5.8099,5.8205,5.8348,5.8419,5.8456,5.8492,6.254,6.1912,6.1253,6.0984,6.0894,6.0266,5.9967,5.9877,5.9368,5.9129,5.9159,5.9159,5.9099,5.9099,5.9099,5.9099,5.9099,5.9099,5.9099,5.9099,5.9099,5.8949,5.889,5.889,5.8411,5.7842,5.7214,5.6645,5.6047,5.5987,5.5777,5.5299,5.5209,5.5209,5.5209,5.5209,5.5209,5.5209,5.5209,5.5209,5.5209,5.5209,5.5209,5.5209,5.5209,5.5209,5.5209,5.5209,5.5209,5.5209,5.5209,5.5239,5.5359,5.5777,5.5927,5.6137,5.6346,5.6675,5.6885,5.6765,5.6795,5.6915,5.6915,5.6645,5.6196,5.6077,5.6077,5.5867,5.5418,5.5239,5.5209,5.5209,5.5209,5.5209,5.5209,5.5209,5.5209,5.5209,5.5209,5.5209,5.5209,5.5209,5.5209,5.5209,5.5381,5.5581,5.588,5.6244,5.6603,5.6988,5.737,5.7683,5.7927,5.8082,5.8264,5.8307,5.8475,5.8125,5.7822,5.745,5.7287,5.739,5.7588,5.7662,5.7808,5.7954,5.8027,5.8133,5.8205,5.8277,5.8456,5.8631,5.8701,5.8806,5.8841,6.1912,6.1224,6.0565,6.0266,6.0176,5.9578,5.9308,5.9279,5.9189,5.9099,5.9099,5.9099,5.9099,5.9099,5.9099,5.9099,5.9099,5.9099,5.9099,5.9099,5.8979,5.871,5.8381,5.8141,5.7543,5.6974,5.6436,5.6017,5.5658,5.5478,5.5359,5.5209,5.5209,5.5209,5.5209,5.5209,5.5209,5.5209,5.5209,5.5209,5.5209,5.5209,5.5209,5.5209,5.5209,5.5209,5.5209,5.5209,5.5209,5.5209,5.5209,5.5209,5.5269,5.5359,5.5478,5.5568,5.5777,5.5987,5.6137,5.5987,5.6047,5.6286,5.6166,5.5777,5.5508,5.5508,5.5508,5.5508,5.5209,5.5209,5.5209,5.5209,5.5209,5.5209,5.5209,5.5209,5.5209,5.5209,5.5209,5.5209,5.5209,5.5209,5.531,5.5411,5.5481,5.578,5.6077,5.6439,5.6827,5.7275,5.784,5.805,5.8371,5.8502,5.8549,5.8355,5.83,5.8019,5.7734,5.7576,5.7448,5.7506,5.7662,5.7808,5.7954,5.8099,5.8171,5.8348,5.8419,5.8526,5.8736,5.8944,5.8944,5.8943,5.8938]},{"header":{"parameterUnit":"m.s-1","parameterCategory":1,"la1":31.0,"la2":29.5877,"lo1":-88.7671,"lo2":-86.6584,"dy":0.0162,"dx":0.0185,"nx":115,"ny":88,"refTime":"2024-09-04T12:00:00:Z","depth":0,"parameterNumber":3,"parameterNumberName":"V-component_of_WINDS"},"data":[0.0,0.0,0.0,0.0,0.0,0.0,0.0,0.0,0.0,0.0,0.0,0.0,0.0,0.0,0.0,0.0,0.0,0.0,0.0,0.0,0.0,0.0,0.0,0.0,0.0,0.0,0.0,0.0,0.0,0.0,0.0,0.0,0.0,0.0,0.0,0.0,0.0,0.0,0.0,0.0,0.0,0.0,0.0,0.0,0.0,0.0,0.0,0.0,0.0,0.0,0.0,0.0,0.0,0.0,0.0,0.0,0.0,0.0,0.0,0.0,0.0,0.0,0.0,0.0,0.0,0.0,0.0,0.0,0.0,0.0,0.0,0.0,0.0,0.0,0.0,0.0,0.0,0.0,0.0,0.0,0.0,0.0,0.0,0.0,0.0,0.0,0.0,0.0,0.0,0.0,0.0,0.0,0.0,0.0,0.0,0.0,0.0,0.0,0.0,0.0,0.0,0.0,0.0,0.0,0.0,0.0,0.0,0.0,0.0,0.0,0.0,0.0,0.0,0.0,0.0,0.0,0.0,0.0,0.0,0.0,0.0,0.0,0.0,0.0,0.0,0.0,0.0,0.0,0.0,0.0,0.0,0.0,0.0,0.0,0.0,0.0,0.0,0.0,0.0,0.0,0.0,0.0,0.0,0.0,0.0,0.0,0.0,0.0,0.0,0.0,0.0,0.0,0.0,0.0,0.0,0.0,0.0,0.0,0.0,0.0,0.0,0.0,0.0,0.0,0.0,0.0,0.0,0.0,0.0,0.0,0.0,0.0,0.0,0.0,0.0,0.0,0.0,0.0,0.0,0.0,0.0,0.0,0.0,0.0,0.0,0.0,0.0,0.0,0.0,0.0,0.0,0.0,0.0,0.0,0.0,0.0,0.0,0.0,0.0,0.0,0.0,0.0,0.0,0.0,0.0,0.0,0.0,0.0,0.0,0.0,0.0,0.0,0.0,0.0,0.0,0.0,0.0,0.0,0.0,0.0,0.0,0.0,0.0,0.0,0.0,0.0,0.0,0.0,0.0,0.0,0.0,0.0,0.0,0.0,0.0,0.0,0.0,0.0,0.0,0.0,0.0,0.0,0.0,0.0,0.0,0.0,0.0,0.0,0.0,0.0,0.0,0.0,0.0,0.0,0.0,0.0,0.0,0.0,0.0,0.0,0.0,0.0,0.0,0.0,0.0,0.0,0.0,0.0,0.0,0.0,0.0,0.0,0.0,0.0,0.0,0.0,0.0,0.0,0.0,0.0,0.0,0.0,0.0,0.0,0.0,0.0,0.0,0.0,0.0,0.0,0.0,0.0,0.0,0.0,0.0,0.0,0.0,0.0,0.0,0.0,0.0,0.0,0.0,0.0,0.0,0.0,0.0,0.0,0.0,0.0,0.0,0.0,0.0,0.0,0.0,0.0,0.0,0.0,0.0,0.0,0.0,0.0,0.0,0.0,0.0,0.0,0.0,0.0,0.0,0.0,0.0,0.0,0.0,0.0,0.0,0.0,0.0,0.0,0.0,0.0,0.0,0.0,0.0,0.0,0.0,0.0,0.0,0.0,0.0,0.0,0.0,0.0,0.0,0.0,0.0,0.0,0.0,0.0,0.0,0.0,0.0,0.0,0.0,0.0,0.0,0.0,0.0,0.0,0.0,0.0,0.0,0.0,0.0,0.0,0.0,0.0,0.0,0.0,0.0,0.0,0.0,0.0,0.0,0.0,0.0,0.0,0.0,0.0,0.0,0.0,0.0,0.0,0.0,0.0,0.0,0.0,0.0,0.0,0.0,0.0,0.0,0.0,0.0,0.0,0.0,0.0,0.0,0.0,0.0,0.0,0.0,0.0,0.0,0.0,0.0,0.0,0.0,0.0,0.0,0.0,0.0,0.0,0.0,0.0,0.0,0.0,0.0,0.0,0.0,0.0,0.0,0.0,0.0,0.0,0.0,0.0,0.0,0.0,0.0,0.0,0.0,0.0,0.0,0.0,0.0,0.0,0.0,0.0,0.0,0.0,0.0,0.0,0.0,0.0,0.0,0.0,0.0,0.0,0.0,0.0,0.0,0.0,0.0,0.0,0.0,0.0,0.0,0.0,0.0,0.0,0.0,0.0,0.0,0.0,0.0,0.0,0.0,0.0,0.0,0.0,0.0,0.0,0.0,0.0,0.0,0.0,0.0,0.0,0.0,0.0,0.0,0.0,0.0,0.0,0.0,0.0,0.0,0.0,0.0,0.0,0.0,0.0,0.0,0.0,0.0,0.0,0.0,0.0,0.0,0.0,0.0,0.0,0.0,0.0,0.0,0.0,0.0,0.0,0.0,0.0,0.0,0.0,0.0,0.0,0.0,0.0,0.0,0.0,0.0,0.0,0.0,0.0,0.0,0.0,0.0,0.0,0.0,0.0,0.0,0.0,0.0,0.0,0.0,0.0,0.0,0.0,0.0,0.0,0.0,0.0,0.0,0.0,0.0,0.0,0.0,0.0,0.0,0.0,0.0,0.0,0.0,0.0,0.0,0.0,0.0,0.0,0.0,0.0,0.0,0.0,0.0,0.0,0.0,0.0,0.0,0.0,0.0,0.0,0.0,0.0,0.0,0.0,0.0,0.0,0.0,0.0,0.0,0.0,0.0,0.0,0.0,0.0,0.0,0.0,0.0,0.0,0.0,0.0,0.0,0.0,0.0,0.0,0.0,0.0,0.0,0.0,0.0,0.0,0.0,0.0,0.0,0.0,0.0,0.0,0.0,0.0,0.0,0.0,0.0,0.0,0.0,0.0,0.0,0.0,0.0,0.0,0.0,0.0,0.0,0.0,0.0,0.0,0.0,0.0,0.0,0.0,0.0,0.0,0.0,0.0,0.0,0.0,0.0,0.0,0.0,0.0,0.0,0.0,0.0,0.0,0.0,0.0,0.0,0.0,0.0,0.0,0.0,0.0,0.0,0.0,0.0,0.0,0.0,0.0,0.0,0.0,0.0,0.0,0.0,0.0,0.0,0.0,0.0,0.0,0.0,0.0,0.0,0.0,0.0,0.0,0.0,0.0,0.0,0.0,0.0,0.0,0.0,0.0,0.0,0.0,0.0,0.0,0.0,0.0,0.0,0.0,0.0,0.0,0.0,0.0,0.0,0.0,0.0,0.0,0.0,0.0,0.0,0.0,0.0,0.0,0.0,0.0,0.0,0.0,0.0,0.0,0.0,0.0,0.0,0.0,0.0,0.0,0.0,0.0,0.0,0.0,0.0,0.0,0.0,0.0,0.0,0.0,0.0,0.0,0.0,0.0,0.0,0.0,0.0,0.0,0.0,0.0,0.0,0.0,0.0,0.0,0.0,0.0,0.0,0.0,0.0,0.0,0.0,0.0,0.0,0.0,0.0,0.0,0.0,0.0,0.0,0.0,0.0,0.0,0.0,0.0,0.0,0.0,0.0,0.0,0.0,0.0,0.0,0.0,0.0,0.0,0.0,0.0,0.0,0.0,0.0,0.0,0.0,0.0,0.0,0.0,0.0,0.0,0.0,0.0,0.0,0.0,0.0,0.0,0.0,0.0,0.0,0.0,0.0,0.0,0.0,0.0,0.0,0.0,0.0,0.0,0.0,0.0,0.0,0.0,0.0,0.0,0.0,0.0,0.0,0.0,0.0,0.0,0.0,0.0,0.0,0.0,0.0,0.0,0.0,0.0,0.0,0.0,0.0,0.0,0.0,0.0,0.0,0.0,0.0,0.0,0.0,0.0,0.0,0.0,0.0,0.0,0.0,0.0,0.0,0.0,0.0,0.0,0.0,0.0,0.0,0.0,0.0,0.0,0.0,0.0,0.0,0.0,0.0,0.0,0.0,0.0,0.0,0.0,0.0,0.0,0.0,0.0,0.0,0.0,0.0,0.0,0.0,0.0,0.0,0.0,0.0,0.0,0.0,0.0,0.0,0.0,0.0,0.0,0.0,0.0,0.0,0.0,0.0,0.0,0.0,0.0,0.0,0.0,0.0,0.0,0.0,0.0,0.0,0.0,0.0,0.0,0.0,0.0,0.0,0.0,0.0,0.0,0.0,0.0,0.0,0.0,0.0,0.0,0.0,0.0,0.0,0.0,0.0,0.0,0.0,0.0,0.0,0.0,0.0,0.0,0.0,0.0,0.0,0.0,0.0,0.0,0.0,0.0,0.0,0.0,0.0,0.0,0.0,0.0,0.0,0.0,0.0,0.0,0.0,0.0,0.0,0.0,0.0,0.0,0.0,0.0,0.0,0.0,0.0,0.0,0.0,0.0,0.0,0.0,0.0,0.0,0.0,0.0,0.0,0.0,1.2885,0.0,0.0,0.0,0.0,0.0,0.0,0.0,0.0,0.0,0.0,0.0,0.0,0.0,0.0,0.0,0.0,0.0,0.0,0.0,0.0,0.0,0.0,0.0,0.0,0.0,0.0,0.0,0.0,0.0,0.0,0.0,0.0,0.0,0.0,0.0,0.0,0.0,0.0,0.0,0.0,0.0,0.0,0.0,0.0,0.0,0.0,0.0,0.0,0.0,0.0,0.0,0.0,0.0,0.0,0.0,0.0,0.0,0.0,0.0,0.0,0.0,0.0,0.0,0.0,0.0,0.0,0.0,0.0,0.0,0.0,0.0,0.0,0.0,0.0,0.0,0.0,0.0,0.0,0.0,0.0,0.0,0.0,0.0,0.0,0.0,0.0,0.0,0.0,0.0,0.0,0.0,0.0,0.0,0.0,0.0,0.0,0.0,0.0,0.0,0.0,0.0,0.0,0.0,0.0,0.0,0.0,0.0,0.0,0.0,0.0,1.5102,1.4703,1.4447,1.408,1.3684,0.0,0.0,0.0,0.0,0.0,0.0,0.0,0.0,0.0,0.0,0.0,0.0,0.0,0.0,0.0,0.0,0.0,0.0,0.0,0.0,0.0,0.0,0.0,0.0,0.0,0.0,0.0,0.0,0.0,0.0,0.0,0.0,0.0,0.0,0.0,0.0,0.0,0.0,0.0,0.0,0.0,0.0,0.0,0.0,0.0,0.0,0.0,0.0,0.0,0.0,0.0,0.0,0.0,0.0,0.0,0.0,0.0,0.0,0.0,0.0,0.0,0.0,0.0,0.0,0.0,0.0,0.0,0.0,0.0,0.0,0.0,0.0,0.0,0.0,0.0,0.0,0.0,0.0,0.0,0.0,0.0,0.0,0.0,0.0,0.0,0.0,0.0,0.0,0.0,0.0,0.0,0.0,0.0,0.0,0.0,0.0,0.0,0.0,0.0,0.0,0.0,0.0,0.0,0.0,0.0,0.0,0.0,0.0,0.0,0.0,0.0,0.0,1.5106,1.4823,1.4411,0.0,0.0,0.0,0.0,0.0,0.0,0.0,0.0,0.0,0.0,0.0,0.0,0.0,0.0,0.0,0.0,0.0,0.0,0.0,0.0,0.0,0.0,0.0,0.0,0.0,0.0,0.0,0.0,0.0,0.0,0.0,0.0,0.0,0.0,0.0,0.0,0.0,0.0,0.0,0.0,0.0,0.0,0.0,0.0,0.0,0.0,0.0,0.0,0.0,0.0,0.0,0.0,0.0,0.0,0.0,0.0,0.0,0.0,0.0,0.0,0.0,0.0,0.0,0.0,0.0,0.0,0.0,0.0,0.0,0.0,0.0,0.0,0.0,0.0,0.0,0.0,0.0,0.0,0.0,0.0,0.0,0.0,0.0,0.0,0.0,0.0,0.0,0.0,0.0,0.0,0.0,0.0,0.0,0.0,0.0,0.0,0.0,0.0,0.0,0.0,0.0,0.0,0.0,0.0,0.0,0.0,0.0,0.0,0.0,0.0,1.6099,1.575,1.5963,0.0,1.499,0.0,0.0,0.0,0.0,0.0,0.0,0.0,0.0,0.0,0.0,0.0,0.0,0.0,0.0,0.0,0.0,0.0,0.0,0.0,0.0,0.0,0.0,0.0,0.0,0.0,0.0,0.0,0.0,0.0,0.0,0.0,0.0,0.0,0.0,0.0,0.0,0.0,0.0,0.0,0.0,0.0,0.0,0.0,0.0,0.0,0.0,0.0,0.0,0.0,0.0,0.0,0.0,0.0,0.0,0.0,0.0,0.0,0.0,0.0,0.0,0.0,0.0,0.0,0.0,0.0,0.0,0.0,0.0,0.0,0.0,0.0,0.0,0.0,0.0,0.0,0.0,0.0,0.0,0.0,0.0,0.0,0.0,0.0,0.0,0.0,0.0,0.0,0.0,0.0,0.0,0.0,0.0,0.0,0.0,0.0,0.0,0.0,0.0,0.0,0.0,0.0,0.0,0.0,0.0,0.0,0.0,0.0,0.0,0.0,0.0,1.6219,1.6099,1.5872,1.5498,0.0,0.0,0.0,0.0,0.0,0.0,0.0,0.0,0.0,0.0,0.0,0.0,0.0,0.0,0.0,0.0,0.0,0.0,0.0,0.0,0.0,0.0,0.0,0.0,0.0,0.0,0.0,0.0,0.0,0.0,0.0,0.0,0.0,0.0,0.0,0.0,0.0,0.0,0.0,0.0,0.0,0.0,0.0,0.0,0.0,0.0,0.0,0.0,0.0,0.0,0.0,0.0,0.0,0.0,0.0,0.0,0.0,0.0,0.0,0.0,0.0,0.0,0.0,0.0,0.0,0.0,0.0,0.0,0.0,0.0,0.0,0.0,0.0,0.0,0.0,0.0,0.0,0.0,0.0,0.0,0.0,0.0,0.0,0.0,0.0,0.0,0.0,0.0,0.0,0.0,0.0,0.0,0.0,0.0,0.0,0.0,0.0,0.0,0.0,0.0,0.0,0.0,0.0,0.0,0.0,0.0,0.0,0.0,0.0,0.0,1.6192,0.0,1.6366,1.5671,1.5177,1.4963,0.0,0.0,0.0,0.0,0.0,0.0,0.0,0.0,0.0,0.0,0.0,0.0,0.0,0.0,0.0,0.0,0.0,0.0,0.0,0.0,0.0,0.0,0.0,0.0,0.0,0.0,0.0,0.0,0.0,0.0,0.0,0.0,0.0,0.0,0.0,0.0,0.0,0.0,0.0,0.0,0.0,0.0,0.0,0.0,0.0,0.0,0.0,0.0,0.0,0.0,0.0,0.0,0.0,0.0,0.0,0.0,0.0,0.0,0.0,0.0,0.0,0.0,0.0,0.0,0.0,0.0,0.0,0.0,0.0,0.0,0.0,0.0,0.0,0.0,0.0,0.0,0.0,0.0,0.0,0.0,0.0,0.0,0.0,0.0,0.0,0.0,0.0,0.0,0.0,0.0,0.0,0.0,0.0,0.0,0.0,0.0,0.0,0.0,0.0,0.0,0.0,0.0,0.0,0.0,0.0,0.0,0.0,0.0,0.0,1.6393,1.6687,1.666,1.5591,1.4977,0.0,0.0,0.0,0.0,0.0,0.0,0.0,0.0,0.0,0.0,0.0,0.0,0.0,0.0,0.0,0.0,0.0,0.0,0.0,0.0,0.0,0.0,0.0,0.0,0.0,0.0,0.0,0.0,0.0,0.0,0.0,0.0,0.0,0.0,0.0,0.0,0.0,0.0,0.0,0.0,0.0,0.0,0.0,0.0,0.0,0.0,0.0,0.0,0.0,0.0,0.0,0.0,0.0,0.0,0.0,0.0,0.0,0.0,0.0,0.0,0.0,0.0,0.0,0.0,0.0,0.0,0.0,0.0,0.0,0.0,0.0,0.0,0.0,0.0,0.0,0.0,0.0,0.0,0.0,0.0,0.0,0.0,0.0,0.0,0.0,0.0,0.0,0.0,0.0,0.0,0.0,0.0,0.0,0.0,0.0,0.0,0.0,0.0,0.0,0.0,0.0,0.0,0.0,0.0,0.0,0.0,0.0,0.0,0.0,1.5858,1.6406,1.67,1.6687,1.5925,1.5351,0.0,0.0,0.0,0.0,0.0,0.0,0.0,0.0,0.0,0.0,0.0,0.0,0.0,0.0,0.0,0.0,0.0,0.0,0.0,0.0,0.0,0.0,0.0,0.0,0.0,0.0,0.0,0.0,0.0,0.0,0.0,0.0,0.0,0.0,0.0,0.0,0.0,0.0,0.0,0.0,0.0,0.0,0.0,0.0,0.0,0.0,0.0,0.0,0.0,0.0,0.0,0.0,0.0,0.0,0.0,0.0,0.0,0.0,0.0,0.0,0.0,0.0,0.0,0.0,0.0,0.0,0.0,0.0,0.0,0.0,0.0,0.0,0.0,0.0,0.0,0.0,0.0,0.0,0.0,0.0,0.0,0.0,0.0,0.0,0.0,0.0,0.0,0.0,0.0,0.0,0.0,0.0,0.0,0.0,0.0,0.0,0.0,0.0,0.0,0.0,0.0,0.0,0.0,0.0,0.0,0.0,0.0,0.0,0.0,1.6112,0.0,1.6607,0.0,1.6139,1.5551,0.0,0.0,0.0,0.0,0.0,0.0,0.0,0.0,0.0,0.0,0.0,0.0,0.0,0.0,0.0,0.0,0.0,0.0,0.0,0.0,0.0,0.0,0.0,0.0,0.0,0.0,0.0,0.0,0.0,0.0,0.0,0.0,0.0,0.0,0.0,0.0,0.0,0.0,0.0,0.0,0.0,0.0,0.0,0.0,0.0,0.0,0.0,0.0,0.0,0.0,0.0,0.0,0.0,0.0,0.0,0.0,0.0,0.0,0.0,0.0,0.0,0.0,0.0,0.0,0.0,0.0,0.0,0.0,0.0,0.0,0.0,0.0,0.0,0.0,0.0,0.0,0.0,0.0,0.0,0.0,0.0,0.0,0.0,0.0,0.0,0.0,0.0,0.0,0.0,0.0,0.0,0.0,0.0,0.0,0.0,0.0,0.0,0.0,0.0,0.0,0.0,0.0,0.0,0.0,0.0,0.0,0.0,0.0,1.6126,1.6673,1.6446,1.6486,1.6687,1.6166,1.5578,0.0,0.0,0.0,0.0,0.0,0.0,0.0,0.0,0.0,0.0,0.0,0.0,0.0,0.0,0.0,0.0,0.0,0.0,0.0,0.0,0.0,0.0,0.0,0.0,0.0,0.0,0.0,0.0,0.0,0.0,0.0,0.0,0.0,0.0,0.0,0.0,0.0,0.0,0.0,0.0,0.0,0.0,0.0,0.0,0.0,0.0,0.0,0.0,0.0,0.0,0.0,0.0,0.0,0.0,0.0,0.0,0.0,0.0,0.0,0.0,0.0,0.0,0.0,0.0,0.0,0.0,0.0,0.0,0.0,0.0,0.0,0.0,0.0,0.0,0.0,0.0,0.0,0.0,0.0,0.0,0.0,0.0,0.0,0.0,0.0,0.0,0.0,0.0,0.0,0.0,0.0,0.0,0.0,0.0,0.0,0.0,0.0,0.0,0.0,0.0,0.0,0.0,0.0,0.0,0.0,0.0,0.0,0.0,0.0,1.7288,1.7221,1.7221,1.7288,1.674,1.6072,0.0,0.0,0.0,0.0,0.0,0.0,0.0,0.0,0.0,0.0,0.0,0.0,0.0,0.0,0.0,0.0,0.0,0.0,0.0,0.0,0.0,0.0,0.0,0.0,0.0,0.0,0.0,0.0,0.0,0.0,0.0,0.0,0.0,0.0,0.0,0.0,0.0,0.0,0.0,0.0,0.0,0.0,0.0,0.0,0.0,0.0,0.0,0.0,0.0,0.0,0.0,0.0,0.0,0.0,0.0,0.0,0.0,0.0,0.0,0.0,0.0,0.0,0.0,0.0,0.0,0.0,0.0,0.0,0.0,0.0,0.0,0.0,0.0,0.0,0.0,0.0,0.0,0.0,0.0,0.0,0.0,0.0,0.0,0.0,0.0,0.0,0.0,0.0,0.0,0.0,0.0,0.0,0.0,0.0,0.0,0.0,0.0,0.0,0.0,0.0,0.0,0.0,0.0,0.0,0.0,0.0,0.0,0.0,0.0,1.8036,1.7862,1.7756,1.7742,1.7275,1.662,1.5738,0.0,0.0,0.0,0.0,0.0,0.0,0.0,0.0,0.0,0.0,0.0,0.0,0.0,0.0,0.0,0.0,0.0,0.0,0.0,0.0,0.0,0.0,0.0,0.0,0.0,0.0,0.0,0.0,0.0,0.0,0.0,0.0,0.0,0.0,0.0,0.0,0.0,0.0,0.0,0.0,0.0,0.0,0.0,0.0,0.0,0.0,0.0,0.0,0.0,0.0,0.0,0.0,0.0,0.0,0.0,0.0,0.0,0.0,0.0,0.0,0.0,0.0,0.0,0.0,0.0,0.0,0.0,0.0,0.0,0.0,0.0,0.0,0.0,0.0,0.0,0.0,0.0,0.0,0.0,0.0,0.0,0.0,0.0,0.0,0.0,0.0,0.0,0.0,0.0,0.0,0.0,0.0,0.0,0.0,0.0,0.0,0.0,0.0,0.0,0.0,0.0,0.0,0.0,0.0,0.0,0.0,0.0,0.0,1.8945,1.8437,1.8156,1.809,1.7796,1.7208,0.0,0.0,0.0,0.0,0.0,0.0,0.0,0.0,0.0,0.0,0.0,0.0,0.0,0.0,0.0,0.0,0.0,0.0,0.0,0.0,0.0,0.0,0.0,0.0,0.0,0.0,0.0,0.0,0.0,0.0,0.0,0.0,0.0,0.0,0.0,0.0,0.0,0.0,0.0,0.0,0.0,0.0,0.0,0.0,0.0,0.0,0.0,0.0,0.0,0.0,0.0,0.0,0.0,0.0,0.0,0.0,0.0,0.0,0.0,0.0,0.0,0.0,0.0,0.0,0.0,0.0,0.0,0.0,0.0,0.0,0.0,0.0,0.0,0.0,0.0,0.0,0.0,0.0,0.0,0.0,0.0,0.0,0.0,0.0,0.0,0.0,0.0,0.0,0.0,0.0,0.0,0.0,0.0,0.0,0.0,0.0,0.0,0.0,0.0,0.0,0.0,0.0,0.0,0.0,0.0,0.0,0.0,0.0,0.0,1.9225,1.9519,1.9452,1.9025,1.8517,1.7729,0.0,0.0,0.0,0.0,0.0,0.0,0.0,0.0,0.0,0.0,0.0,0.0,0.0,0.0,0.0,0.0,0.0,0.0,0.0,0.0,0.0,0.0,0.0,0.0,0.0,0.0,0.0,0.0,0.0,0.0,0.0,0.0,0.0,0.0,0.0,0.0,0.0,0.0,0.0,0.0,0.0,0.0,0.0,0.0,0.0,0.0,0.0,0.0,0.0,0.0,0.0,0.0,0.0,0.0,0.0,0.0,0.0,0.0,0.0,0.0,0.0,0.0,0.0,0.0,0.0,0.0,0.0,0.0,0.0,0.0,0.0,0.0,0.0,0.0,0.0,0.0,0.0,0.0,0.0,0.0,0.0,0.0,0.0,0.0,0.0,0.0,0.0,0.0,0.0,0.0,0.0,0.0,0.0,0.0,0.0,0.0,0.0,0.0,0.0,0.0,0.0,0.0,0.0,0.0,0.0,0.0,0.0,0.0,1.8958,1.9533,2.012,2.0254,1.9933,1.9239,1.8357,0.0,0.0,0.0,0.0,0.0,0.0,0.0,0.0,0.0,0.0,0.0,0.0,0.0,0.0,0.0,0.0,0.0,0.0,0.0,0.0,0.0,0.0,0.0,0.0,0.0,0.0,0.0,0.0,0.0,0.0,0.0,0.0,0.0,0.0,0.0,0.0,0.0,0.0,0.0,0.0,0.0,0.0,0.0,0.0,0.0,0.0,0.0,0.0,0.0,0.0,0.0,0.0,0.0,0.0,0.0,0.0,0.0,0.0,0.0,0.0,0.0,0.0,0.0,0.0,0.0,0.0,0.0,0.0,0.0,0.0,0.0,0.0,0.0,0.0,0.0,0.0,0.0,0.0,0.0,0.0,0.0,0.0,0.0,0.0,0.0,0.0,0.0,0.0,0.0,0.0,0.0,0.0,0.0,0.0,0.0,0.0,0.0,0.0,0.0,0.0,0.0,0.0,0.0,0.0,0.0,0.0,0.0,0.0,1.9305,1.988,2.0428,2.0722,2.0695,1.988,1.8998,0.0,0.0,0.0,0.0,0.0,0.0,0.0,0.0,0.0,0.0,0.0,0.0,0.0,0.0,0.0,0.0,0.0,0.0,0.0,0.0,0.0,0.0,0.0,0.0,0.0,0.0,0.0,0.0,0.0,0.0,0.0,0.0,0.0,0.0,0.0,0.0,0.0,0.0,0.0,0.0,0.0,0.0,0.0,0.0,0.0,0.0,0.0,0.0,0.0,0.0,0.0,0.0,0.0,0.0,0.0,0.0,0.0,0.0,0.0,0.0,0.0,0.0,0.0,0.0,0.0,0.0,0.0,0.0,0.0,0.0,0.0,0.0,0.0,0.0,0.0,0.0,0.0,0.0,0.0,0.0,0.0,0.0,0.0,0.0,0.0,0.0,0.0,0.0,0.0,0.0,0.0,0.0,0.0,0.0,0.0,0.0,0.0,0.0,0.0,0.0,0.0,0.0,0.0,0.0,0.0,0.0,0.0,0.0,1.9893,2.0481,2.0828,2.1015,2.1015,2.0174,1.9305,0.0,0.0,0.0,0.0,0.0,0.0,0.0,0.0,0.0,0.0,0.0,0.0,0.0,0.0,0.0,0.0,0.0,0.0,0.0,0.0,0.0,0.0,0.0,0.0,0.0,0.0,0.0,0.0,0.0,0.0,0.0,0.0,0.0,0.0,0.0,0.0,0.0,0.0,0.0,0.0,0.0,0.0,0.0,0.0,0.0,0.0,0.0,0.0,1.2946,0.0,0.0,0.0,0.0,0.0,0.0,0.0,0.0,0.0,0.0,0.0,0.0,0.0,0.0,0.0,0.0,0.0,0.0,0.0,0.0,0.0,0.0,0.0,0.0,0.0,0.0,0.0,0.0,0.0,0.0,0.0,0.0,0.0,0.0,0.0,0.0,0.0,0.0,0.0,0.0,0.0,0.0,0.0,0.0,0.0,0.0,0.0,0.0,0.0,0.0,0.0,0.0,0.0,0.0,0.0,0.0,0.0,0.0,0.0,2.008,2.0655,2.0962,2.1109,2.1082,2.0388,1.9599,0.0,0.0,0.0,0.0,0.0,0.0,0.0,0.0,0.0,0.0,0.0,0.0,0.0,0.0,0.0,0.0,0.0,0.0,0.0,0.0,0.0,0.0,0.0,0.0,0.0,0.0,0.0,0.0,0.0,0.0,0.0,0.0,0.0,0.0,0.0,0.0,0.0,0.0,0.0,0.0,0.0,0.0,0.0,0.0,0.0,0.0,0.0,0.0,0.0,0.0,0.0,0.0,0.0,0.0,0.0,0.0,0.0,0.0,0.0,0.0,0.0,0.0,0.0,0.0,0.0,0.0,0.0,0.0,0.0,0.0,0.0,0.0,0.0,0.0,0.0,0.0,0.0,0.0,0.0,0.0,0.0,0.0,0.0,0.0,0.0,0.0,0.0,0.0,0.0,0.0,0.0,0.0,0.0,0.0,0.0,0.0,0.0,0.0,0.0,0.0,0.0,0.0,0.0,0.0,0.0,0.0,0.0,1.9573,2.0147,2.0722,2.0975,2.1109,2.1096,2.0535,1.9813,1.8931,0.0,0.0,0.0,0.0,0.0,0.0,0.0,0.0,0.0,0.0,0.0,0.0,0.0,0.0,0.0,0.0,0.0,0.0,0.0,0.0,0.0,0.0,0.0,0.0,0.0,0.0,0.0,0.0,0.0,0.0,0.0,0.0,0.0,0.0,0.0,0.0,0.0,0.0,1.2412,1.3414,0.0,0.0,0.0,0.0,0.0,0.0,0.0,0.0,1.4332,0.0,0.0,0.0,0.0,0.0,0.0,0.0,0.0,0.0,0.0,0.0,0.0,0.0,0.0,0.0,0.0,0.0,0.0,0.0,0.0,0.0,0.0,0.0,0.0,0.0,0.0,0.0,0.0,0.0,0.0,0.0,0.0,0.0,0.0,0.0,0.0,0.0,0.0,0.0,0.0,0.0,0.0,0.0,0.0,0.0,0.0,0.0,0.0,0.0,0.0,0.0,0.0,0.0,0.0,0.0,0.0,1.9279,1.9867,2.0441,2.1015,2.1082,2.1109,2.1096,2.0548,1.9813,1.8931,0.0,0.0,0.0,0.0,0.0,0.0,0.0,0.0,0.0,0.0,0.0,0.0,0.0,0.0,0.0,0.0,0.0,0.0,0.0,0.0,0.0,0.0,0.0,0.0,0.0,0.0,0.0,0.0,0.0,0.0,0.0,0.0,0.0,0.0,0.0,0.0,0.0,0.0,0.0,1.3814,1.4381,0.0,0.0,0.0,0.0,0.0,0.0,0.0,0.0,1.4951,0.0,0.0,0.0,0.0,0.0,0.0,0.0,0.0,0.0,0.0,0.0,0.0,0.0,0.0,0.0,0.0,0.0,0.0,0.0,0.0,0.0,0.0,0.0,0.0,0.0,0.0,0.0,0.0,0.0,0.0,0.0,0.0,0.0,0.0,0.0,0.0,0.0,0.0,0.0,0.0,0.0,0.0,0.0,0.0,0.0,0.0,0.0,0.0,0.0,0.0,0.0,0.0,0.0,0.0,0.0,1.9332,1.9933,2.0521,2.1082,2.1109,2.1109,2.1082,2.0388,1.9599,0.0,0.0,0.0,0.0,0.0,0.0,0.0,0.0,0.0,0.0,0.0,0.0,0.0,0.0,0.0,0.0,0.0,0.0,0.0,0.0,0.0,0.0,0.0,0.0,0.0,0.0,0.0,0.0,0.0,0.0,0.0,0.0,0.0,0.0,0.0,0.0,0.0,0.0,0.0,0.0,1.4521,1.5001,1.586,0.0,0.0,0.0,0.0,0.0,0.0,1.6314,1.611,0.0,0.0,0.0,0.0,0.0,0.0,0.0,0.0,0.0,0.0,0.0,0.0,0.0,0.0,0.0,0.0,0.0,0.0,0.0,0.0,0.0,0.0,0.0,0.0,0.0,0.0,0.0,0.0,0.0,0.0,0.0,0.0,0.0,0.0,0.0,0.0,0.0,0.0,0.0,0.0,0.0,0.0,0.0,0.0,0.0,0.0,0.0,0.0,0.0,0.0,0.0,0.0,0.0,0.0,0.0,1.9345,1.9933,2.0548,2.1162,2.1136,2.1136,2.1176,2.0294,1.9386,0.0,0.0,0.0,0.0,0.0,0.0,0.0,0.0,0.0,0.0,0.0,0.0,0.0,0.0,0.0,0.0,0.0,0.0,0.0,0.0,0.0,0.0,0.0,0.0,0.0,0.0,0.0,0.0,0.0,0.0,0.0,0.0,0.0,0.0,0.0,0.0,0.0,0.0,0.0,0.0,0.0,1.5951,1.6777,1.6987,0.0,0.0,0.0,0.0,1.7559,1.744,0.0,0.0,0.0,0.0,0.0,0.0,0.0,0.0,0.0,0.0,0.0,0.0,0.0,0.0,0.0,0.0,0.0,0.0,0.0,0.0,0.0,0.0,0.0,0.0,0.0,0.0,0.0,0.0,0.0,0.0,0.0,0.0,0.0,0.0,0.0,0.0,0.0,0.0,0.0,0.0,0.0,0.0,0.0,0.0,0.0,0.0,0.0,0.0,0.0,0.0,0.0,0.0,0.0,0.0,0.0,0.0,1.9332,1.9933,2.0655,2.1443,2.1243,2.1243,2.147,2.0401,1.9502,0.0,0.0,0.0,0.0,0.0,0.0,0.0,0.0,0.0,0.0,0.0,0.0,0.0,0.0,0.0,0.0,0.0,0.0,0.0,0.0,0.0,0.0,0.0,0.0,0.0,0.0,0.0,0.0,0.0,0.0,0.0,0.0,0.0,0.0,0.0,0.0,0.0,0.0,0.0,0.0,0.0,1.7059,1.7992,1.855,1.9008,0.0,0.0,1.9399,1.898,1.8609,0.0,0.0,0.0,0.0,0.0,0.0,0.0,0.0,0.0,0.0,0.0,0.0,0.0,0.0,0.0,0.0,0.0,0.0,0.0,0.0,0.0,0.0,0.0,0.0,0.0,0.0,0.0,0.0,0.0,0.0,0.0,0.0,0.0,0.0,0.0,0.0,0.0,0.0,0.0,0.0,0.0,0.0,0.0,0.0,0.0,0.0,0.0,0.0,0.0,0.0,0.0,0.0,0.0,0.0,0.0,1.817,1.9345,2.0107,2.0953,2.1896,2.1673,2.1929,2.2438,2.1087,2.0116,0.0,0.0,0.0,0.0,0.0,0.0,0.0,0.0,0.0,0.0,0.0,0.0,0.0,0.0,0.0,0.0,0.0,0.0,0.0,0.0,0.0,0.0,0.0,0.0,0.0,0.0,0.0,0.0,0.0,0.0,0.0,0.0,0.0,0.0,0.0,0.0,0.0,0.0,0.0,0.0,0.0,0.0,1.9078,1.9668,0.0,0.0,0.0,2.0903,2.0601,0.0,0.0,0.0,0.0,0.0,0.0,0.0,0.0,0.0,0.0,0.0,0.0,0.0,0.0,0.0,0.0,0.0,0.0,0.0,0.0,0.0,0.0,0.0,0.0,0.0,0.0,0.0,0.0,0.0,0.0,0.0,0.0,0.0,0.0,0.0,0.0,0.0,0.0,0.0,0.0,0.0,0.0,0.0,0.0,0.0,0.0,0.0,0.0,0.0,0.0,0.0,0.0,0.0,0.0,0.0,0.0,0.0,1.9475,2.0348,2.1339,2.2295,2.2438,2.2694,2.3305,2.1785,0.0,0.0,0.0,0.0,0.0,0.0,0.0,0.0,0.0,0.0,0.0,0.0,0.0,0.0,0.0,0.0,0.0,0.0,0.0,0.0,0.0,0.0,0.0,0.0,0.0,0.0,0.0,1.0381,0.0,0.0,0.0,0.0,0.0,0.0,0.0,0.0,0.0,0.0,0.0,0.0,0.0,0.0,1.9143,2.0443,2.1262,2.1773,0.0,0.0,2.2682,2.2215,2.203,2.1755,0.0,0.0,0.0,0.0,0.0,0.0,0.0,0.0,0.0,0.0,0.0,0.0,0.0,0.0,0.0,0.0,0.0,0.0,0.0,0.0,0.0,0.0,0.0,0.0,0.0,0.0,0.0,0.0,0.0,0.0,0.0,0.0,0.0,0.0,0.0,0.0,0.0,0.0,0.0,0.0,0.0,0.0,0.0,0.0,0.0,0.0,0.0,0.0,0.0,0.0,0.0,0.0,0.0,0.0,0.0,1.9809,2.0711,2.1825,2.2922,2.3348,2.3588,2.394,2.2719,2.1877,0.0,0.0,0.0,0.0,0.0,0.0,0.0,0.0,0.0,0.0,0.0,0.0,0.0,0.0,0.0,0.0,0.0,0.0,0.0,0.0,0.0,0.0,0.0,0.0,0.0,0.0,0.0,0.0,0.0,0.0,0.0,0.0,0.0,0.0,0.0,0.0,0.0,0.0,0.0,0.0,0.0,2.1476,2.2432,2.358,2.4575,0.0,0.0,2.4922,2.4189,2.3826,2.3438,2.2884,0.0,0.0,0.0,0.0,0.0,0.0,0.0,0.0,0.0,0.0,0.0,0.0,0.0,0.0,0.0,0.0,0.0,0.0,0.0,0.0,0.0,0.0,0.0,0.0,0.0,0.0,0.0,0.0,0.0,0.0,0.0,0.0,0.0,0.0,0.0,0.0,0.0,0.0,0.0,0.0,0.0,0.0,0.0,0.0,0.0,0.0,0.0,0.0,0.0,0.0,0.0,0.0,0.0,1.8822,2.0486,2.1541,2.2806,2.4305,2.4589,2.5093,2.5862,2.4691,2.3756,0.0,0.0,0.0,0.0,0.0,0.0,0.0,0.0,0.0,0.0,0.0,0.0,0.0,0.0,0.0,0.0,0.0,0.0,0.0,0.0,0.0,0.0,0.0,0.0,0.0,0.0,0.0,0.0,1.24,1.3025,1.3843,0.0,0.0,0.0,0.0,0.0,0.0,0.0,0.0,0.0,0.0,2.2689,2.3976,2.5032,0.0,0.0,2.6277,2.6361,2.559,2.5045,2.4613,2.4312,2.3187,0.0,0.0,0.0,0.0,0.0,0.0,0.0,0.0,0.0,0.0,0.0,0.0,0.0,0.0,0.0,0.0,0.0,0.0,0.0,0.0,0.0,0.0,0.0,0.0,0.0,0.0,0.0,0.0,0.0,0.0,0.0,0.0,0.0,0.0,0.0,0.0,0.0,0.0,0.0,0.0,0.0,0.0,0.0,0.0,0.0,0.0,0.0,0.0,0.0,0.0,0.0,0.0,1.9556,2.1174,2.2364,2.3856,2.5545,2.6032,2.667,2.7398,2.6412,2.5511,0.0,0.0,0.0,0.0,0.0,0.0,0.0,0.0,0.0,0.0,0.0,0.0,0.0,0.0,0.0,0.0,0.0,0.0,0.0,0.0,0.0,0.0,0.0,0.0,0.0,0.0,0.0,0.0,1.3417,1.4184,1.5215,0.0,0.0,0.0,0.0,0.0,0.0,0.0,0.0,0.0,0.0,2.4225,2.5601,2.6686,2.7252,2.7179,2.7487,2.7574,2.6921,2.6473,2.5952,2.5657,0.0,0.0,0.0,0.0,0.0,0.0,0.0,0.0,0.0,0.0,0.0,0.0,0.0,0.0,0.0,0.0,0.0,0.0,0.0,0.0,0.0,0.0,0.0,0.0,0.0,0.0,0.0,0.0,0.0,0.0,1.3681,0.0,0.0,0.0,0.0,0.0,0.0,0.0,0.0,0.0,0.0,0.0,0.0,0.0,0.0,0.0,0.0,0.0,0.0,0.0,0.0,0.0,0.0,2.0317,2.2214,2.3433,2.4827,2.6415,2.7398,2.8149,2.848,2.7669,2.6774,2.5931,0.0,0.0,0.0,0.0,0.0,0.0,0.0,0.0,0.0,0.0,0.0,0.0,0.0,0.0,0.0,0.0,0.0,0.0,0.0,0.0,0.0,0.0,0.0,0.0,0.0,0.0,1.4326,1.5019,1.5623,0.0,0.0,0.0,0.0,0.0,0.0,0.0,0.0,0.0,0.0,2.465,2.6499,2.7276,2.8325,2.9157,2.9473,2.9141,2.875,2.832,2.7891,2.748,0.0,0.0,0.0,0.0,0.0,0.0,0.0,0.0,0.0,0.0,0.0,0.0,0.0,0.0,0.0,0.0,0.0,0.0,0.0,0.0,0.0,0.0,0.0,0.0,0.0,0.0,0.0,1.5952,1.5685,0.0,0.0,0.0,0.0,0.0,0.0,0.0,0.0,0.0,0.0,0.0,1.8673,1.9528,0.0,0.0,0.0,0.0,0.0,0.0,0.0,0.0,0.0,0.0,0.0,0.0,2.1744,2.3454,2.4959,2.6389,2.7847,2.8589,2.9085,2.945,2.9125,2.8104,2.6437,0.0,0.0,0.0,0.0,0.0,0.0,0.0,0.0,0.0,0.0,0.0,0.0,0.0,0.0,0.0,0.0,0.0,0.0,0.0,0.0,0.0,0.0,0.0,0.0,0.0,1.4447,0.0,0.0,0.0,0.0,0.0,0.0,0.0,0.0,0.0,0.0,0.0,2.3665,2.488,2.6426,2.7694,2.842,2.9292,2.977,0.0,0.0,0.0,0.0,0.0,0.0,0.0,0.0,0.0,0.0,0.0,0.0,0.0,0.0,2.5867,2.422,2.3994,2.3956,2.3711,0.0,0.0,0.0,0.0,0.0,0.0,0.0,0.0,0.0,0.0,0.0,0.0,0.0,0.0,1.7528,0.0,1.7021,0.0,0.0,0.0,0.0,0.0,0.0,0.0,0.0,1.9361,2.0158,2.0568,2.1584,2.1994,0.0,2.2009,2.1215,0.0,0.0,0.0,0.0,0.0,0.0,0.0,0.0,2.3275,2.4889,2.6313,2.7712,2.8938,2.9431,2.9903,3.0274,2.9968,2.892,2.7098,2.5528,2.4079,0.0,0.0,0.0,0.0,0.0,0.0,0.0,0.0,0.0,0.0,0.0,0.0,0.0,0.0,0.0,0.0,0.0,0.0,0.0,0.0,0.0,0.0,0.0,1.6075,0.0,0.0,0.0,0.0,0.0,0.0,0.0,0.0,0.0,2.298,2.4284,2.5624,2.6737,2.7882,2.8914,2.9408,0.0,0.0,0.0,0.0,0.0,0.0,0.0,2.873,2.873,2.8516,2.8418,2.8691,2.873,2.873,2.875,0.0,0.0,2.6275,2.6083,2.616,2.6006,2.6083,2.6097,2.6198,2.6198,2.6198,0.0,0.0,0.0,0.0,0.0,0.0,0.0,0.0,1.9546,1.9399,0.0,1.8504,0.0,0.0,0.0,0.0,0.0,1.8902,0.0,0.0,2.1171,2.2253,2.2911,2.3963,2.4502,2.4841,2.4524,2.429,2.4146,2.1655,0.0,0.0,0.0,0.0,0.0,0.0,2.4889,2.6448,2.7524,2.8689,2.9903,3.0274,3.0528,3.0879,3.0059,2.9004,2.7734,2.6504,2.5314,2.4214,2.2592,0.0,0.0,0.0,0.0,0.0,0.0,0.0,0.0,0.0,0.0,0.0,0.0,0.0,0.0,0.0,0.0,0.0,0.0,0.0,0.0,1.7368,0.0,0.0,0.0,0.0,0.0,0.0,0.0,0.0,0.0,0.0,2.4875,2.6106,2.7413,2.8009,0.0,0.0,0.0,0.0,3.0898,3.0898,3.0547,3.0273,3.0215,2.9863,2.9609,2.9609,0.0,0.0,2.9648,2.9668,2.9687,2.9668,2.9687,2.9258,2.8066,2.8086,2.8164,2.7812,2.8008,2.8301,2.832,2.8242,2.8262,2.6649,0.0,0.0,0.0,0.0,2.2171,2.1922,2.1121,2.1243,2.0943,2.0281,2.004,0.0,0.0,0.0,0.0,0.0,0.0,2.1199,2.1526,2.3089,2.4219,2.4903,2.5897,2.6591,2.6935,2.6717,2.6726,2.6658,2.5532,2.4149,2.2519,0.0,0.0,0.0,0.0,2.6632,2.7773,2.8886,2.9672,3.0274,3.0645,3.0762,3.0879,3.0332,2.9551,2.8594,2.791,2.6875,2.5333,2.4185,0.0,0.0,0.0,0.0,0.0,0.0,0.0,0.0,0.0,0.0,0.0,0.0,0.0,0.0,0.0,0.0,0.0,0.0,0.0,1.865,1.935,2.0044,0.0,0.0,0.0,0.0,0.0,0.0,0.0,0.0,0.0,2.8271,2.8516,2.8818,0.0,0.0,3.0587,3.0684,3.1055,3.1348,3.1328,3.1484,0.0,3.0781,3.0586,3.0508,3.0508,3.1016,3.1426,3.1426,3.1426,3.1426,3.1406,3.1426,3.1289,3.0918,2.9922,2.9238,2.9062,2.9121,2.9199,2.9219,2.9199,2.9199,3.1012,2.8279,2.6921,2.5458,2.4297,2.4363,2.3854,2.3056,2.3092,2.2635,2.2038,2.1806,2.1562,2.146,2.1576,0.0,0.0,0.0,2.3197,2.3296,2.5076,2.6248,2.6954,2.8017,2.8725,2.9217,2.8975,2.8924,2.8888,2.8498,2.7517,2.6101,0.0,0.0,2.6224,2.7118,2.8085,2.8932,2.9713,3.0274,3.0645,3.0762,3.0898,3.0879,3.0625,3.0078,2.9219,2.8769,2.791,2.6562,2.5508,2.4224,0.0,0.0,0.0,0.0,0.0,0.0,0.0,0.0,0.0,0.0,0.0,1.6349,1.7044,0.0,0.0,0.0,1.9046,1.9951,2.0802,2.1518,0.0,0.0,0.0,0.0,0.0,0.0,0.0,2.7583,2.8674,2.9734,3.0413,3.0432,3.0471,3.0723,3.1112,3.1406,3.1387,0.0,3.1777,3.1777,3.1992,3.1992,3.1484,3.1406,3.1387,3.1387,3.1816,3.2148,3.2168,3.2168,3.2168,3.2168,3.2168,3.2168,3.2168,3.1289,3.0527,3.0371,3.0215,3.0098,3.0098,3.0098,3.0098,3.4917,3.3979,3.0566,2.837,2.7241,2.6755,2.6067,2.5345,2.4929,2.462,2.413,2.3567,2.3406,2.3493,2.3806,0.0,2.4003,2.4952,2.5344,2.5091,2.7035,2.8398,2.9025,3.0019,3.0843,3.1488,3.1138,3.0972,3.0917,3.0531,3.026,3.0223,2.8496,2.7716,2.7958,2.8688,2.9429,2.993,3.0432,3.0723,3.0937,3.0918,3.0898,3.0898,3.0859,3.043,2.9609,2.916,2.8516,2.7637,2.6445,2.5371,2.4434,0.0,0.0,0.0,0.0,0.0,0.0,0.0,0.0,0.0,0.0,0.0,0.0,0.0,0.0,0.0,2.1392,0.0,2.2723,2.3748,0.0,0.0,0.0,2.676,2.7497,2.8269,2.9056,2.9687,0.0,0.0,3.1562,3.1973,3.2226,3.2266,3.2207,3.2168,3.2168,3.2187,3.2226,3.2207,3.2246,3.2266,3.2187,3.2187,3.2168,3.2187,3.2246,3.2324,3.2324,3.2305,3.2285,3.2324,3.2285,3.2285,3.2266,3.2226,3.209,3.166,3.123,3.0918,3.084,3.082,3.0801,3.7473,3.6872,3.5152,3.2985,3.0611,3.0402,2.9248,2.7678,2.7357,2.6721,2.5615,2.5469,2.5633,2.5861,2.6324,2.6403,2.644,2.7166,2.7572,2.7599,2.9051,2.9942,3.0477,3.1194,3.1763,3.2147,3.2053,3.2016,3.1997,3.1865,3.1741,3.1703,3.1277,3.0757,3.0313,3.0642,3.113,3.1579,3.1677,3.1699,3.1367,3.1055,3.0898,3.0879,3.0547,3.0117,2.959,2.9141,2.8379,2.7226,2.6562,2.5684,2.4473,2.3105,0.0,0.0,0.0,0.0,0.0,0.0,0.0,0.0,0.0,1.983,2.068,0.0,2.1788,0.0,2.3708,2.4832,2.5377,2.6111,0.0,0.0,2.8109,2.881,2.9439,3.0256,3.082,3.1055,3.1523,3.2031,3.2441,3.2578,3.2773,3.3066,3.2559,3.2168,3.2168,3.2461,3.2637,3.2676,3.291,3.3008,3.2715,3.2656,3.2637,3.2656,3.291,3.3125,3.3125,3.3125,3.3125,3.3125,3.3125,3.3125,3.3105,3.2871,3.2637,3.2461,3.1894,3.1269,3.0957,3.0898,3.0898,3.8961,3.8534,3.7843,3.6216,3.427,3.2959,3.137,2.9873,2.9328,2.8613,2.7534,2.7369,2.7554,2.7931,2.8267,2.8609,2.8843,2.9427,2.9808,2.9882,3.1014,3.1778,3.2189,3.2692,3.3081,3.3489,3.3489,3.3392,3.32,3.3096,3.301,3.2836,3.2708,3.2474,3.2099,3.1871,3.1934,3.2168,3.2168,3.2051,3.1816,3.1387,3.1172,3.1152,3.0527,3.0,2.959,2.916,2.8496,2.7617,2.6992,2.625,2.5332,2.4062,2.3066,0.0,0.0,0.0,0.0,0.0,0.0,0.0,0.0,0.0,0.0,0.0,2.4117,2.5141,2.6148,2.7001,2.7748,2.8319,2.892,2.9754,3.0064,3.0509,3.1035,3.1504,3.1875,3.207,3.2305,3.2598,3.3008,3.3066,3.3144,3.3398,3.3027,3.2734,3.2734,3.293,3.3066,3.3086,3.3281,3.3359,3.3105,3.3086,3.3066,3.3086,3.3262,3.3418,3.3418,3.3418,3.3418,3.3418,3.3418,3.3418,3.3398,3.3242,3.3027,3.2773,3.2422,3.1894,3.1289,3.1016,3.0898,3.9746,3.9355,3.9238,3.8542,3.7421,3.4866,3.3214,3.199,3.1218,3.0421,2.9728,2.933,2.9468,2.9743,3.0155,3.0532,3.0889,3.1449,3.1836,3.1917,3.2855,3.3539,3.3785,3.4049,3.4444,3.4687,3.4687,3.4512,3.416,3.416,3.3926,3.3516,3.3516,3.3476,3.3379,3.2695,3.2324,3.2324,3.2285,3.2246,3.2246,3.1777,3.1523,3.1484,3.0605,2.9941,2.957,2.9101,2.8633,2.8223,2.75,2.6914,2.6484,2.5312,2.4512,0.0,2.373,0.0,0.0,0.0,0.0,0.0,0.0,0.0,0.0,2.5664,2.6699,2.7812,2.8398,2.9023,2.9766,3.0195,3.0781,3.1582,3.168,3.1855,3.2266,3.2324,3.248,3.2832,3.2871,3.3027,3.3359,3.3418,3.3418,3.3418,3.3379,3.334,3.3398,3.3379,3.3379,3.3418,3.3418,3.3418,3.3379,3.3398,3.3398,3.3398,3.3398,3.3418,3.3418,3.3418,3.3418,3.3418,3.3418,3.3418,3.3418,3.3418,3.3281,3.2969,3.2812,3.2461,3.1699,3.125,3.0976,4.0351,4.0215,3.9492,3.8864,3.8322,3.753,3.5926,3.3856,3.3509,3.2655,3.1701,3.1525,3.146,3.1617,3.2053,3.2432,3.2657,3.2793,3.3035,3.3387,3.3785,3.4049,3.4181,3.4444,3.4707,3.4687,3.4687,3.4648,3.459,3.459,3.4355,3.3965,3.3945,3.3769,3.3437,0.0,0.0,0.0,3.2851,3.2676,3.2656,3.1914,3.1523,3.1484,3.0332,0.0,2.9551,2.8828,2.8223,2.7812,2.7637,0.0,0.0,0.0,0.0,0.0,0.0,0.0,0.0,0.0,0.0,0.0,2.6934,2.7012,2.6602,2.7949,2.8945,2.9219,3.0234,3.0976,3.1133,3.1543,3.1992,3.248,3.2539,3.2715,3.3125,3.3184,3.3223,3.3281,3.3301,3.332,3.3398,3.3418,3.3418,3.3418,3.3418,3.3418,3.3418,3.3418,3.3418,3.3418,3.3418,3.3418,3.3418,3.3418,3.3418,3.3418,3.3418,3.3418,3.3418,3.3418,3.3418,3.3418,3.3418,3.3418,3.3418,3.3418,3.3398,3.332,3.3027,3.2539,3.1699,3.1465,3.1289,4.0703,0.0,4.0039,3.9445,0.0,3.849,3.7444,3.6164,3.5208,3.412,3.3103,3.2985,3.3109,3.3232,3.3472,3.3688,3.4053,3.419,3.4486,3.4566,3.495,3.5084,3.5084,3.5218,3.5351,3.5351,3.5351,3.5234,3.5059,3.5039,3.4824,3.4394,3.418,3.3965,3.375,3.3535,3.3418,3.3418,3.3203,3.3105,3.3066,3.2285,3.1836,3.1797,3.0566,0.0,0.0,0.0,0.0,0.0,0.0,0.0,0.0,0.0,0.0,2.7324,2.7129,2.6992,2.7012,2.7402,2.7734,2.7949,2.8965,2.9394,2.8965,2.9922,3.0625,3.084,3.1465,3.1934,3.2129,3.2344,3.2656,3.3047,3.3105,3.3203,3.3379,3.3418,3.3418,3.3418,3.3418,3.3418,3.3418,3.3418,3.3418,3.3418,3.3418,3.3418,3.3418,3.3418,3.3418,3.3418,3.3418,3.3418,3.3418,3.3418,3.3418,3.3418,3.3418,3.3418,3.3418,3.3418,3.3418,3.3418,3.3418,3.3418,3.3418,3.3418,3.3418,3.3398,3.3262,3.291,3.2266,3.1816,3.1465,4.0957,4.0625,4.0547,4.016,3.9507,3.9082,3.8552,3.797,0.0,0.0,0.0,3.4251,3.4372,3.4759,3.4668,3.4759,3.5154,3.5371,3.5489,3.5606,3.5899,3.6035,3.6035,3.6035,3.6035,3.6035,3.6035,3.584,3.5508,3.5508,3.5273,3.4824,3.4473,3.4219,3.4062,3.3633,3.3418,3.3418,3.3418,3.3418,3.3398,3.2676,3.2246,3.2168,3.0976,3.0117,2.9687,2.9258,2.8867,2.8535,2.8516,2.8516,2.8516,2.8516,2.8516,2.8516,2.8516,2.8516,2.8535,2.8984,2.9336,2.9473,3.0566,3.1191,3.1133,3.1504,3.1894,3.2246,3.2344,3.2539,3.2871,3.291,3.3047,3.3379,3.3418,3.3418,3.3418,3.3418,3.3418,3.3418,3.3418,3.3418,3.3418,3.3418,3.3418,3.3418,3.3418,3.3418,3.3418,3.3418,3.3418,3.3418,3.3418,3.3418,3.3418,3.3418,3.3418,3.3418,3.3418,3.3418,3.3418,3.3418,3.3418,3.3418,3.3418,3.3418,3.3418,3.3418,3.3418,3.3418,3.3418,3.332,3.293,3.2285,3.1738,4.1133,4.1055,4.0684,4.0488,4.0257,3.9829,3.9271,3.8418,3.7137,3.6576,3.6356,3.5961,3.5916,3.5897,3.5641,3.5591,3.585,3.5643,3.5626,3.5879,3.6016,3.6035,3.6035,3.6035,3.6035,3.6035,3.6035,3.5996,3.5937,3.5918,3.5723,3.5332,3.5234,3.4824,3.4101,3.3633,3.3418,3.3418,3.3418,3.3418,3.3418,3.2949,3.2539,3.2148,3.1289,3.0586,3.0137,2.9707,2.9453,2.9394,2.9394,2.9394,2.9394,2.9394,2.9394,2.9394,2.9394,2.9394,2.9414,3.0156,3.0937,3.166,3.2226,3.2383,3.2031,3.2383,3.2637,3.2715,3.3008,3.3262,3.334,3.332,3.334,3.3398,3.3418,3.3418,3.3418,3.3418,3.3418,3.3418,3.3418,3.3418,3.3418,3.3418,3.3418,3.3418,3.3418,3.3418,3.3418,3.3418,3.3418,3.3418,3.3418,3.3418,3.3418,3.3418,3.3418,3.3418,3.3418,3.3418,3.3418,3.3418,3.3418,3.3418,3.3418,3.3418,3.3418,3.3418,3.3418,3.3418,3.3418,3.3379,3.3281,3.2871,3.2363,4.1172,4.1152,4.0957,4.0879,4.084,4.041,3.9693,3.8903,3.8348,3.7747,3.708,3.6971,3.6923,3.6885,3.6624,3.6591,3.6712,3.6286,3.6249,3.6367,3.6133,3.6035,3.6035,3.6035,3.6035,3.6035,3.6035,3.6035,3.6035,3.6035,3.5918,3.5723,3.5508,3.4961,3.4121,3.3867,3.3652,3.3418,3.3418,3.3418,3.3418,3.3008,3.2695,3.25,3.1894,3.1269,3.0586,3.0391,3.0059,2.959,2.9785,2.9902,2.9902,3.0137,3.0391,3.0605,3.0625,3.0723,3.0976,3.1367,3.1855,3.2461,3.2676,3.2832,3.2851,3.3027,3.3144,3.3144,3.332,3.3418,3.3418,3.3418,3.3418,3.3418,3.3418,3.3418,3.3418,3.3418,3.3418,3.3418,3.3544,3.367,3.367,3.3796,3.3922,3.3922,3.3796,3.367,3.367,3.3544,3.3418,3.3418,3.3418,3.3418,3.3418,3.3418,3.3418,3.3418,3.3418,3.3418,3.3418,3.3418,3.3418,3.3418,3.3418,3.3418,3.3418,3.3418,3.3418,3.3418,3.3418,3.3418,3.3379,3.3086,3.2519,4.1172,4.1172,4.1172,4.1172,4.1133,4.0703,4.0117,3.9492,3.9297,3.8728,3.7811,3.7682,3.7634,3.7595,3.7494,3.7441,3.7383,3.6992,3.6816,3.6777,3.6465,3.625,3.6172,3.6172,3.6113,3.6035,3.6035,3.6035,3.6035,3.6035,3.6035,3.5976,3.5605,3.5039,3.4505,3.4387,3.4132,3.3847,3.3828,3.3642,3.3418,3.323,3.3015,3.2897,3.2726,3.2194,3.1466,3.1407,3.1092,3.0463,3.0699,3.076,3.078,3.0976,3.1328,3.1621,3.166,3.1855,3.2387,3.2548,3.2726,3.3139,3.3178,3.3316,3.3631,3.367,3.3544,3.3418,3.3418,3.3418,3.3418,3.3418,3.3418,3.3418,3.3418,3.3544,3.3544,3.3544,3.367,3.367,3.3796,3.4047,3.4047,3.4298,3.4298,3.4298,3.4173,3.4047,3.3922,3.3796,3.367,3.3544,3.3418,3.3418,3.3418,3.3418,3.3418,3.3418,3.3418,3.3418,3.3418,3.3418,3.3418,3.3418,3.3418,3.3418,3.3418,3.3418,3.3418,3.3418,3.3418,3.3418,3.3398,3.3184,3.2734,4.1172,4.1172,4.1172,4.1172,4.1133,4.0723,4.0469,4.0273,3.957,3.918,3.8934,3.8691,3.8516,3.8457,3.8047,3.7871,3.7832,3.7441,3.7226,3.7226,3.7207,3.6973,3.6641,3.6621,3.6406,3.6074,3.6055,3.6055,3.6035,3.6016,3.6035,3.5976,3.5605,3.5465,3.5706,3.5369,3.5102,3.4919,3.4899,3.4445,3.3457,3.3631,3.3684,3.3287,3.3494,3.3498,3.2895,3.3015,3.2974,3.2894,3.2515,3.2435,3.2435,3.2253,3.207,3.2109,3.2109,3.2407,3.3168,3.3474,3.3777,3.4178,3.4218,3.4238,3.4298,3.4298,3.4047,3.3544,3.3418,3.3418,3.3418,3.3418,3.3418,3.3544,3.369,3.3796,3.3942,3.4173,3.4298,3.4298,3.4318,3.4423,3.4423,3.4548,3.4548,3.4548,3.4423,3.4423,3.4298,3.4298,3.4173,3.3922,3.367,3.3418,3.3418,3.3418,3.3418,3.3418,3.3418,3.3418,3.3418,3.3418,3.3418,3.3418,3.3418,3.3418,3.3418,3.3418,3.3418,3.3418,3.3418,3.3418,3.3418,3.3359,3.3086,4.1172,4.1172,4.1172,4.1172,4.1133,4.0976,4.0762,4.0488,4.0137,3.9707,3.9219,3.9023,3.8809,3.8555,3.8379,3.8301,3.8281,3.7851,3.7676,3.7637,3.7422,3.7207,3.7051,3.7051,3.6816,3.6426,3.6406,3.6269,3.6055,3.6132,3.6268,3.6248,3.636,3.6276,3.615,3.597,3.5801,3.5509,3.5489,3.514,3.4465,3.4312,3.4093,3.3933,3.4037,3.396,3.3558,3.3518,3.3518,3.3155,3.3135,3.3015,3.3015,3.2894,3.2893,3.3132,3.3391,3.359,3.3893,3.4037,3.4222,3.4403,3.4423,3.4423,3.4423,3.4423,3.4298,3.4047,3.4047,3.4047,3.4067,3.4047,3.4047,3.4087,3.4392,3.4572,3.4572,3.4699,3.4825,3.4805,3.496,3.5066,3.5046,3.5294,3.5418,3.5294,3.517,3.4922,3.4797,3.4548,3.4298,3.4173,3.4047,3.3796,3.3544,3.3418,3.3418,3.3418,3.3418,3.3418,3.3418,3.3418,3.3418,3.3418,3.3418,3.3418,3.3418,3.3418,3.3418,3.3418,3.3418,3.3418,3.3418,3.3418,3.332,4.1172,4.1172,4.1172,4.1172,4.1172,4.1172,4.0996,4.0703,4.0586,4.0156,3.957,3.9316,3.9043,3.875,3.8633,3.8574,3.8535,3.8242,3.8105,3.8066,3.7773,3.7578,3.748,3.748,3.7246,3.6894,3.6836,3.6621,3.6348,3.6578,3.6654,3.6654,3.6944,3.7052,3.6769,3.6861,3.677,3.6493,3.6452,3.6377,3.5927,3.5578,3.5167,3.4713,3.4797,3.4779,3.4595,3.4575,3.4309,3.4003,3.3841,3.372,3.3599,3.3599,3.3638,3.394,3.4366,3.4548,3.4673,3.4797,3.4797,3.4922,3.4922,3.4983,3.5064,3.5085,3.5167,3.5435,3.5415,3.5289,3.4604,3.4604,3.4644,3.4785,3.5234,3.5396,3.5544,3.5651,3.5779,3.5886,3.6059,3.5977,3.5997,3.6139,3.6178,3.6055,3.5788,3.5541,3.5294,3.5046,3.4797,3.4673,3.4673,3.4298,3.3796,3.367,3.3544,3.3544,3.3544,3.3418,3.3418,3.3418,3.3418,3.3418,3.3418,3.3418,3.3418,3.3418,3.3418,3.3418,3.3418,3.3418,3.3418,3.3418,3.3418,4.1172,4.1172,4.1172,4.1172,4.1172,4.1172,4.1152,4.1074,4.0723,4.0488,4.0293,3.9609,3.9199,3.9121,3.8769,3.8574,3.8574,3.8535,3.8516,3.8496,3.8476,3.8281,3.791,3.7891,3.7676,3.7305,3.7266,3.7171,3.7173,3.7184,3.7079,3.7079,3.7213,3.7348,3.7554,3.7955,3.8034,3.7879,3.8077,3.8124,3.7721,3.7763,3.6939,3.5707,3.5685,3.5932,3.6135,3.6258,3.6114,3.5725,3.5437,3.5067,3.482,3.4571,3.4447,3.4528,3.4797,3.5066,3.5356,3.5748,3.5995,3.622,3.6283,3.6512,3.6894,3.6936,3.7106,3.7678,3.7509,3.6981,3.5677,3.5341,3.5483,3.5807,3.6078,3.6377,3.6655,3.6912,3.7424,3.7657,3.7699,3.7591,3.7103,3.6678,3.6673,3.6609,3.6444,3.6321,3.6178,3.6034,3.5665,3.5418,3.517,3.4797,3.4423,3.4047,3.3922,3.3796,3.3544,3.3418,3.3418,3.3418,3.3418,3.3418,3.3418,3.3418,3.3418,3.3418,3.3418,3.3418,3.3418,3.3418,3.3418,3.3418,3.3418,4.1406,4.1172,4.1172,4.1172,4.1172,4.1172,4.1172,4.1152,4.1016,4.0781,4.0508,4.0176,3.9746,3.9199,3.9043,3.8828,3.8594,3.8574,3.8574,3.8574,3.8574,3.8496,3.8359,3.834,3.8269,3.8058,3.8141,3.7907,3.7666,3.7718,3.7901,3.7811,3.8017,3.8283,3.8549,3.8835,3.8861,3.8845,3.9085,3.911,3.868,3.8914,3.859,3.7962,3.7121,3.6724,3.6848,3.6572,3.63,3.6178,3.6055,3.6034,3.5932,3.5788,3.581,3.6061,3.6206,3.6478,3.6876,3.7065,3.7316,3.7588,3.7713,3.7859,3.8135,3.8304,3.8391,3.8543,3.8586,3.8186,3.8061,3.7361,3.7001,3.7168,3.744,3.7737,3.7866,3.7995,3.8252,3.8594,3.8803,3.8875,3.8869,3.8795,3.8451,3.7898,3.7833,3.7458,3.6832,3.6646,3.6423,3.6156,3.5932,3.5809,3.5418,3.4673,3.4173,3.3922,3.3796,3.3544,3.3544,3.3418,3.3418,3.3418,3.3418,3.3418,3.3418,3.3418,3.3418,3.3418,3.3418,3.3418,3.3418,3.3418,3.3418,4.1426,4.1191,4.1172,4.1172,4.1172,4.1172,4.1172,4.1172,4.1172,4.1016,4.0742,4.0586,4.0176,3.9629,3.9336,3.9062,3.8769,3.8652,3.8574,3.8574,3.8574,3.8574,3.8574,3.872,3.8728,3.8739,3.8846,3.8748,3.8641,3.8712,3.8833,3.8821,3.9045,3.9226,3.9363,3.9604,3.9735,3.9735,3.9975,4.0061,3.9799,4.0034,4.0157,4.0033,3.9045,3.8217,3.7962,3.766,3.7487,3.7363,3.7363,3.7363,3.724,3.724,3.7369,3.7649,3.7691,3.7842,3.8269,3.8334,3.8586,3.8838,3.8859,3.9007,3.939,3.9434,3.95,3.9611,3.9677,3.9831,3.988,3.9493,3.8914,3.868,3.8938,3.911,3.9261,3.9239,3.9497,3.9711,3.987,4.0128,4.0185,4.0175,3.9803,3.9221,3.9176,3.8731,3.7846,3.7471,3.7262,3.681,3.6667,3.6423,3.6055,3.5541,3.4797,3.4548,3.4173,3.3922,3.367,3.3544,3.3544,3.3418,3.3418,3.3418,3.3418,3.3418,3.3418,3.3418,3.3418,3.3418,3.3418,3.3418,3.3418,4.1191,4.1172,4.1172,4.1172,4.1172,4.1172,4.1172,4.1172,4.1172,4.1133,4.1035,4.0723,4.0527,4.0293,3.9668,3.9258,3.916,3.8828,3.8613,3.8574,3.8574,3.8574,3.872,3.9011,3.9301,3.9385,3.9577,3.9777,4.0054,4.0117,4.0108,3.9997,4.027,4.0299,3.9735,4.0409,4.0777,4.0777,4.1035,4.1293,4.1293,4.1377,4.146,4.1647,4.1216,4.0683,3.9904,3.9814,3.9578,3.9375,3.925,3.9192,3.8832,3.8832,3.8919,3.8919,3.8941,3.9088,3.9405,3.9449,3.9641,4.0038,3.9926,4.0298,4.0612,4.068,4.0837,4.1152,4.1287,4.1377,4.1354,4.1181,4.0879,4.0344,4.0148,4.03,4.0581,4.0755,4.0884,4.1203,4.1203,4.1206,4.1092,4.1136,4.0984,4.0624,4.0432,4.015,3.9286,3.8764,3.8321,3.767,3.7275,3.7011,3.6667,3.63,3.5788,3.517,3.4797,3.4423,3.4047,3.3796,3.367,3.3544,3.3418,3.3418,3.3418,3.3418,3.3418,3.3418,3.3418,3.3418,3.3418,3.3418,3.3418,4.1426,4.1172,4.1172,4.1172,4.1172,4.1172,4.1172,4.1172,4.1172,4.1172,4.1152,4.1035,4.082,4.0527,4.0215,3.9941,3.9648,3.9515,3.916,3.8779,3.8885,3.903,3.903,3.9445,3.9878,4.0289,4.0758,4.0933,4.1059,4.1146,4.1259,4.1234,4.1153,4.1309,4.1372,4.1472,4.1527,4.155,4.2061,4.2316,4.2316,4.257,4.2696,4.2799,4.266,4.2474,4.221,4.1191,4.0478,4.0107,4.0084,3.9961,3.9735,3.9588,3.9744,4.0033,4.0078,4.0382,4.0905,4.1076,4.1307,4.1731,4.1834,4.2028,4.2418,4.2441,4.2511,4.2673,4.2696,4.2673,4.2673,4.2696,4.2189,4.1035,4.0906,4.1164,4.1421,4.1934,4.2189,4.2316,4.2557,4.259,4.2544,4.2584,4.2273,4.2017,4.1847,4.1515,4.0808,4.0076,3.9538,3.8949,3.8386,3.7824,3.7483,3.7097,3.6646,3.5911,3.5418,3.4797,3.4423,3.4173,3.3922,3.367,3.3544,3.3418,3.3418,3.3418,3.3418,3.3418,3.3418,3.3418,3.3418,3.3418,3.3418,4.1562,4.1191,4.1172,4.1172,4.1172,4.1172,4.1172,4.1172,4.1172,4.1172,4.1172,4.1172,4.1035,4.0762,4.0739,4.0523,4.0381,4.0246,3.9957,3.9267,3.934,3.9445,3.9445,3.9858,4.0576,4.1289,4.1735,4.1869,4.2011,4.2384,4.2579,4.2502,4.2594,4.2632,4.273,4.2624,4.2522,4.2466,4.2822,4.2949,4.3075,4.32,4.3302,4.3451,4.3553,4.3701,4.3778,4.2815,4.2116,4.1623,4.1499,4.1374,4.1126,4.1148,4.1285,4.1514,4.1605,4.1845,4.227,4.2374,4.257,4.2949,4.2949,4.3051,4.3177,4.3326,4.3326,4.3326,4.3326,4.3326,4.3326,4.3326,4.2949,4.2189,4.2061,4.2189,4.242,4.2696,4.2949,4.3075,4.3177,4.3428,4.3678,4.3678,4.3583,4.3298,4.3103,4.2791,4.1953,4.1335,4.0837,4.0295,3.9567,3.8904,3.8408,3.7912,3.7517,3.6767,3.6034,3.5418,3.4922,3.4548,3.4423,3.3922,3.367,3.3418,3.3418,3.3418,3.3418,3.3418,3.3418,3.3418,3.3418,3.3418,3.3418,4.1582,4.1191,4.1172,4.1172,4.1172,4.1172,4.1172,4.1172,4.1172,4.1172,4.1327,4.1327,4.1308,4.121,4.1203,4.1178,4.1211,4.1153,4.105,4.0605,4.0222,3.9939,4.0022,4.0719,4.1452,4.2018,4.2441,4.284,4.3193,4.3609,4.3867,4.4097,4.4363,4.4262,4.3938,4.4044,4.382,4.349,4.3475,4.3553,4.3553,4.3428,4.3576,4.3927,4.4175,4.4446,4.4693,4.4596,4.4103,4.3404,4.306,4.3036,4.313,4.3302,4.3107,4.3004,4.3302,4.3153,4.3326,4.3326,4.3326,4.3451,4.3576,4.3451,4.3576,4.3701,4.3701,4.3701,4.3576,4.3576,4.3576,4.3576,4.3451,4.3451,4.32,4.3177,4.3326,4.3451,4.3576,4.3576,4.3678,4.3927,4.4299,4.4323,4.4299,4.4275,4.4103,4.3617,4.2985,4.2555,4.2146,4.1527,4.0652,4.0066,3.9402,3.8882,3.8462,3.7616,3.6889,3.6034,3.5418,3.5046,3.4548,3.4047,3.367,3.3544,3.3418,3.3418,3.3418,3.3418,3.3418,3.3418,3.3418,3.3418,3.3418,4.1836,4.1191,4.1172,4.1172,4.1172,4.1172,4.1172,4.1172,4.1172,4.1483,4.1618,4.1618,4.1773,4.2042,4.2096,4.2035,4.2068,4.2049,4.2126,4.2159,4.1731,4.1357,4.123,4.1735,4.2441,4.2861,4.328,4.3697,4.4388,4.464,4.4983,4.5411,4.5465,4.5318,4.5207,4.5015,4.484,4.4625,4.4763,4.4717,4.4693,4.4693,4.4816,4.4939,4.4939,4.5061,4.5208,4.5208,4.4693,4.3701,4.3451,4.3326,4.3451,4.3451,4.3451,4.3451,4.3326,4.3451,4.3678,4.3927,4.4075,4.4446,4.457,4.4693,4.4816,4.4693,4.4816,4.4816,4.484,4.4693,4.4693,4.4693,4.4693,4.4693,4.4199,4.3802,4.4075,4.4323,4.447,4.4693,4.4816,4.4816,4.4939,4.4963,4.4963,4.4939,4.4816,4.4669,4.4034,4.3671,4.3164,4.2583,4.1915,4.1108,4.0542,3.9997,3.9385,3.8545,3.7616,3.6646,3.5911,3.5294,3.4673,3.4047,3.3922,3.367,3.3544,3.3418,3.3418,3.3418,3.3418,3.3418,3.3418,3.3418,3.3418,4.1933,4.1172,4.1172,4.1172,4.1172,4.1327,4.1483,4.1463,4.1618,4.1773,4.2082,4.2082,4.2216,4.237,4.2677,4.283,4.2943,4.3174,4.3398,4.3341,4.2979,4.2629,4.2407,4.2721,4.3141,4.3697,4.4112,4.4503,4.5074,4.546,4.6001,4.6382,4.6414,4.6418,4.6371,4.6279,4.5906,4.5667,4.555,4.5576,4.5355,4.5331,4.5331,4.5331,4.5453,4.5574,4.5453,4.5453,4.5184,4.457,4.4199,4.4075,4.4199,4.4199,4.4075,4.4199,4.4199,4.4199,4.4446,4.457,4.4816,4.4963,4.5208,4.5331,4.5208,4.5331,4.5331,4.5208,4.5331,4.5331,4.5331,4.5331,4.5331,4.5208,4.4816,4.4446,4.4693,4.484,4.5086,4.5208,4.5331,4.5331,4.5453,4.5453,4.5453,4.5453,4.5331,4.5208,4.489,4.45,4.4062,4.3673,4.3068,4.2421,4.161,4.1014,4.0163,3.9294,3.8216,3.7253,3.6401,3.5541,3.5046,3.4423,3.4173,3.3922,3.367,3.3544,3.3418,3.3418,3.3418,3.3418,3.3418,3.3418,3.3418,4.1933,4.1172,4.1327,4.1327,4.1327,4.1618,4.1927,4.1927,4.2236,4.237,4.2524,4.2524,4.2677,4.2677,4.3442,4.3767,4.3767,4.431,4.4465,4.4418,4.4264,4.4035,4.3617,4.3463,4.3836,4.4388,4.5074,4.546,4.5731,4.6271,4.6697,4.7098,4.7473,4.752,4.7442,4.7586,4.715,4.6388,4.6217,4.6019,4.5673,4.5574,4.5574,4.5574,4.5696,4.5817,4.5817,4.5817,4.5696,4.5453,4.5331,4.5208,4.5208,4.5208,4.5208,4.5208,4.5061,4.5086,4.5208,4.5208,4.5331,4.5331,4.5453,4.5453,4.5453,4.5574,4.5574,4.5574,4.5428,4.5453,4.5453,4.5453,4.5453,4.5453,4.5453,4.5453,4.5453,4.5331,4.5331,4.5453,4.5453,4.5574,4.5696,4.5696,4.5574,4.5817,4.5696,4.5574,4.5453,4.5208,4.489,4.4646,4.4159,4.3625,4.2806,4.216,4.1135,4.0094,3.8754,3.7736,3.6646,3.5911,3.5418,3.4922,3.4548,3.4173,3.3796,3.367,3.3544,3.3418,3.3418,3.3418,3.3418,3.3418,3.3418,4.1933,4.1172,4.1463,4.1618,4.1773,4.2082,4.2216,4.237,4.237,4.283,4.3289,4.3289,4.3746,4.4201,4.4352,4.4504,4.4654,4.5084,4.5295,4.553,4.5721,4.5585,4.5367,4.5004,4.4937,4.5187,4.5866,4.6294,4.6697,4.6965,4.7497,4.7762,4.8026,4.8264,4.8248,4.8219,4.7852,4.7183,4.701,4.6634,4.6209,4.6084,4.6059,4.6059,4.6059,4.618,4.6205,4.618,4.618,4.5939,4.5574,4.5331,4.5331,4.5331,4.5331,4.5331,4.5331,4.5331,4.5331,4.5574,4.5696,4.5696,4.5817,4.6059,4.6059,4.6059,4.6059,4.6059,4.6059,4.6059,4.5939,4.6059,4.6059,4.5939,4.6059,4.6059,4.6059,4.5817,4.5817,4.5939,4.6059,4.6059,4.618,4.6059,4.6059,4.618,4.6059,4.5939,4.5817,4.5696,4.5453,4.5208,4.4964,4.4403,4.3869,4.3024,4.1898,4.0708,3.9482,3.8477,3.7396,3.6401,3.5911,3.5418,3.5046,3.4548,3.4173,3.3922,3.367,3.3544,3.3418,3.3418,3.3418,3.3418,3.3418,4.2408,4.1793,4.1927,4.2082,4.2236,4.2524,4.283,4.2984,4.3136,4.3594,4.405,4.4201,4.4504,4.5106,4.5256,4.5405,4.5704,4.6299,4.6624,4.6713,4.6786,4.6726,4.6633,4.6304,4.6001,4.6001,4.654,4.6965,4.7364,4.7786,4.805,4.8313,4.8706,4.8837,4.8837,4.8799,4.8657,4.8083,4.7658,4.723,4.6778,4.6426,4.6326,4.6326,4.6326,4.6326,4.6326,4.6326,4.6301,4.618,4.5939,4.5817,4.5817,4.5817,4.5817,4.5817,4.5817,4.5817,4.5817,4.5939,4.6059,4.6084,4.618,4.6301,4.6326,4.6326,4.6326,4.6326,4.6301,4.6301,4.6326,4.6301,4.6326,4.6326,4.6326,4.6326,4.6326,4.618,4.6059,4.6301,4.6301,4.6301,4.6301,4.6326,4.6301,4.618,4.618,4.6059,4.618,4.6059,4.5817,4.5696,4.5574,4.5183,4.4695,4.3772,4.2567,4.1422,4.0167,3.9323,3.85,3.7396,3.6401,3.5911,3.5418,3.5046,3.4548,3.4298,3.3922,3.3796,3.3544,3.3418,3.3418,3.3418,3.3418,4.2881,4.237,4.2524,4.2524,4.2677,4.3157,4.3462,4.3767,4.4222,4.4504,4.4955,4.5106,4.5405,4.5704,4.6002,4.6448,4.6891,4.7457,4.7813,4.7901,4.7702,4.7654,4.7436,4.7187,4.6965,4.6808,4.7232,4.763,4.7894,4.8313,4.8576,4.8706,4.8942,4.9202,4.9202,4.9436,4.9264,4.8686,4.8259,4.7682,4.7154,4.6677,4.6502,4.6326,4.6326,4.6326,4.6326,4.6326,4.6326,4.6326,4.6326,4.6326,4.6326,4.6326,4.6326,4.6326,4.618,4.628,4.6406,4.6381,4.6476,4.6426,4.6451,4.6376,4.6351,4.6326,4.6326,4.6326,4.6326,4.6326,4.6326,4.6326,4.6326,4.6326,4.6326,4.6326,4.6326,4.6326,4.6326,4.6326,4.6326,4.6326,4.6326,4.6326,4.6326,4.6326,4.6326,4.6326,4.6326,4.6301,4.6059,4.5939,4.5939,4.5696,4.5255,4.4257,4.3192,4.228,4.0971,4.0075,3.9396,3.8283,3.7175,3.6423,3.5911,3.5418,3.4922,3.4423,3.4173,3.3922,3.367,3.3418,3.3418,3.3418,3.3418,4.3175,4.2524,4.3136,4.3462,4.3462,4.4201,4.4504,4.4654,4.5106,4.5405,4.5853,4.6151,4.6448,4.6891,4.6891,4.7355,4.8064,4.8476,4.884,4.8967,4.8567,4.8392,4.8492,4.804,4.7943,4.8182,4.8182,4.8158,4.8445,4.8812,4.8967,4.9072,4.9332,4.9461,4.9461,4.9565,4.9364,4.8937,4.8611,4.8083,4.738,4.6954,4.6652,4.6351,4.6326,4.6326,4.6326,4.6326,4.6326,4.6326,4.6326,4.6326,4.6376,4.6376,4.6376,4.6401,4.6451,4.6652,4.6928,4.7004,4.7004,4.7004,4.7004,4.6753,4.6502,4.6351,4.6376,4.6326,4.6326,4.6326,4.6326,4.6326,4.6326,4.6326,4.6326,4.6326,4.6326,4.6326,4.6326,4.6326,4.6326,4.6326,4.6326,4.6326,4.6326,4.6326,4.6326,4.6326,4.6326,4.6326,4.618,4.618,4.618,4.6059,4.5768,4.4743,4.3651,4.3048,4.2065,4.0781,3.9956,3.8919,3.8065,3.7297,3.6423,3.5788,3.5294,3.4673,3.4298,3.4047,3.3796,3.3418,3.3418,3.3418,3.3418,4.3956,4.3462,4.3898,4.4352,4.4504,4.4955,4.5405,4.5704,4.6002,4.6299,4.6596,4.7061,4.7502,4.7772,4.8041,4.8499,4.8933,4.9365,4.951,4.9581,4.9331,4.9028,4.9058,4.8523,4.8649,4.8706,4.8682,4.8682,4.8812,4.9202,4.9332,4.9332,4.959,4.959,4.959,4.959,4.9464,4.9163,4.8887,4.8385,4.7506,4.7079,4.6552,4.6401,4.6326,4.6326,4.6326,4.6326,4.6326,4.6326,4.6326,4.6476,4.6627,4.6728,4.6728,4.6778,4.6954,4.7205,4.7481,4.7531,4.7531,4.7531,4.7531,4.7431,4.7154,4.6954,4.6602,4.6376,4.6326,4.6326,4.6326,4.6326,4.6326,4.6326,4.6326,4.6326,4.6326,4.6326,4.6326,4.6326,4.6326,4.6326,4.6326,4.6326,4.6326,4.6326,4.6326,4.6326,4.6326,4.6326,4.6326,4.6326,4.6301,4.618,4.5939,4.5206,4.4354,4.3748,4.2903,4.173,4.0638,3.9694,3.8799,3.8043,3.7175,3.6178,3.5541,3.517,3.4673,3.4173,3.3922,3.367,3.3418,3.3418,3.3418,4.4886,4.4504,4.4805,4.5256,4.5704,4.5704,4.6151,4.6743,4.6913,4.7186,4.7626,4.7918,4.8377,4.8667,4.9078,4.9509,4.9795,5.0246,5.0383,5.0041,4.9761,4.9634,4.9362,4.9002,4.8837,4.9202,4.9202,4.9202,4.9202,4.9461,4.959,4.959,4.959,4.959,4.959,4.959,4.959,4.9464,4.9188,4.8636,4.7832,4.6903,4.6326,4.6326,4.6326,4.6326,4.6326,4.6326,4.6326,4.6326,4.6351,4.6552,4.7029,4.723,4.733,4.7481,4.7782,4.7908,4.8083,4.8083,4.8083,4.8083,4.8083,4.8008,4.7732,4.7305,4.6928,4.6552,4.6326,4.6326,4.6326,4.6326,4.6326,4.6326,4.6326,4.6326,4.6326,4.6326,4.6326,4.6326,4.6326,4.6326,4.6326,4.6326,4.6326,4.6326,4.6326,4.6326,4.6326,4.6326,4.6326,4.6326,4.6301,4.618,4.5939,4.5696,4.5036,4.4451,4.3602,4.2518,4.1395,4.0449,3.9551,3.8515,3.7517,3.6524,3.6034,3.5418,3.4797,3.4423,3.4047,3.3796,3.3544,3.3418,3.3418,4.5831,4.5256,4.5704,4.6151,4.6448,4.6891,4.7208,4.7648,4.7941,4.8354,4.8621,4.9078,4.9365,4.9652,5.0222,5.0506,5.0789,5.0998,5.115,5.0587,5.021,4.9939,4.9735,4.9346,4.9252,4.9461,4.9461,4.959,4.9461,4.959,4.959,4.959,4.959,4.959,4.959,4.959,4.959,4.959,4.949,4.8912,4.7908,4.6853,4.6401,4.6326,4.6326,4.6326,4.6326,4.6326,4.6326,4.6326,4.6326,4.6577,4.7079,4.7581,4.8083,4.8284,4.8284,4.8134,4.856,4.8661,4.8661,4.8661,4.8661,4.8385,4.8033,4.7606,4.7255,4.7054,4.6652,4.6351,4.6326,4.6326,4.6326,4.6326,4.6326,4.6326,4.6326,4.6326,4.6326,4.6326,4.6326,4.6326,4.6326,4.6326,4.6326,4.6326,4.6326,4.6326,4.6326,4.6326,4.6326,4.6326,4.6326,4.618,4.6059,4.5817,4.55,4.4963,4.4208,4.319,4.206,4.094,3.9785,3.8769,3.7769,3.6911,3.6279,3.5665,3.4922,3.4548,3.4173,3.3796,3.3418,3.3418,3.3418,4.6915,4.6151,4.6743,4.7186,4.7648,4.8064,4.8354,4.8789,4.8957,4.9078,4.9365,4.9938,5.0364,5.0813,5.1236,5.1376,5.1327,5.1387,5.1196,5.0814,5.027,4.9859,4.9756,4.9481,4.9486,4.959,4.959,4.959,4.959,4.959,4.959,4.959,4.959,4.959,4.959,4.959,4.959,4.9414,4.8987,4.841,4.7757,4.6928,4.6326,4.6326,4.6326,4.6326,4.6326,4.6326,4.6326,4.6326,4.6326,4.6728,4.738,4.7857,4.8259,4.9138,4.9038,4.9012,4.9188,4.9238,4.9213,4.9238,4.9188,4.8987,4.8485,4.8159,4.7682,4.7154,4.6928,4.6677,4.6401,4.6326,4.6326,4.6326,4.6326,4.6326,4.6326,4.6326,4.6326,4.6326,4.6326,4.6326,4.6326,4.6326,4.6326,4.6326,4.6326,4.6326,4.6326,4.6326,4.6326,4.6326,4.6326,4.6301,4.618,4.5939,4.5574,4.5232,4.4866,4.3818,4.2583,4.1457,4.0249,3.9047,3.7956,3.724,3.6566,3.5932,3.5294,3.4797,3.4298,3.3922,3.3544,3.3418,3.3418,4.8373,4.7332,4.7918,4.8354,4.8667,4.891,4.9342,4.9795,4.9795,4.9938,5.0222,5.0648,5.1236,5.1681,5.182,5.1935,5.1911,5.1531,5.1123,5.0712,5.0298,4.9906,4.9686,4.959,4.959,4.959,4.959,4.959,4.959,4.959,4.959,4.959,4.959,4.959,4.959,4.959,4.959,4.9515,4.8535,4.8033,4.7732,4.6853,4.6426,4.6326,4.6326,4.6326,4.6326,4.6326,4.6326,4.6326,4.6502,4.7004,4.7707,4.8109,4.8611,4.9314,4.9439,4.9464,4.9515,4.954,4.959,4.959,4.959,4.9364,4.9063,4.8887,4.856,4.7707,4.7205,4.6928,4.6627,4.6451,4.6326,4.6326,4.6326,4.6326,4.6326,4.6326,4.6326,4.6326,4.6326,4.6326,4.6326,4.6326,4.6326,4.6326,4.6326,4.6326,4.6326,4.6326,4.6326,4.6326,4.6326,4.6301,4.618,4.6059,4.5696,4.5331,4.4963,4.4229,4.282,4.1813,4.0624,3.9462,3.8232,3.7284,3.6545,3.6055,3.5541,3.4797,3.4298,3.3922,3.367,3.3544,3.3418,4.9857,4.9221,4.891,4.9054,4.9365,4.9509,4.9938,5.0648,5.0648,5.093,5.1376,5.1681,5.1681,5.196,5.2213,5.2352,5.2302,5.2054,5.159,5.1039,5.0695,5.0092,4.9741,4.959,4.959,4.959,4.959,4.959,4.959,4.959,4.959,4.959,4.959,4.959,4.959,4.959,4.959,4.9364,4.8485,4.7933,4.7631,4.6954,4.6351,4.6326,4.6326,4.6326,4.6326,4.6326,4.6326,4.6326,4.6728,4.7205,4.7832,4.8335,4.8912,4.9414,4.959,4.959,4.959,4.959,4.959,4.959,4.959,4.9565,4.9389,4.9012,4.8711,4.8435,4.7732,4.7205,4.6928,4.6677,4.6351,4.6326,4.6326,4.6326,4.6326,4.6326,4.6326,4.6326,4.6326,4.6326,4.6326,4.6326,4.6326,4.6326,4.6326,4.6326,4.6326,4.6326,4.6326,4.6326,4.6326,4.6326,4.6326,4.6059,4.5696,4.5306,4.4939,4.4082,4.2962,4.1953,4.0762,3.962,3.8243,3.7371,3.6545,3.5911,3.5294,3.4673,3.4298,3.4047,3.367,3.3418,3.3418,5.0413,5.0222,5.0506,5.0506,5.0222,5.0506,5.0789,5.1376,5.1376,5.1656,5.2238,5.2238,5.2238,5.2491,5.2604,5.2454,5.2241,5.1715,5.1297,5.0745,5.0167,4.9816,4.9615,4.959,4.959,4.959,4.959,4.959,4.959,4.959,4.959,4.959,4.959,4.959,4.959,4.959,4.959,4.9264,4.856,4.7933,4.7682,4.6928,4.6326,4.6326,4.6326,4.6326,4.6326,4.6326,4.6326,4.6451,4.6878,4.738,4.7908,4.8485,4.9038,4.9515,4.959,4.959,4.959,4.959,4.959,4.959,4.959,4.959,4.959,4.9364,4.9088,4.8661,4.8083,4.7506,4.7104,4.6677,4.6326,4.6326,4.6326,4.6326,4.6326,4.6326,4.6326,4.6326,4.6326,4.6326,4.6326,4.6326,4.6326,4.6326,4.6326,4.6326,4.6326,4.6326,4.6326,4.6326,4.6326,4.618,4.618,4.5939,4.5696,4.5184,4.4816,4.3883,4.2856,4.1684,4.0518,3.9421,3.8309,3.7227,3.6279,3.5665,3.5046,3.4548,3.4298,3.4047,3.3796,3.3418,3.3418,5.1095,5.1095,5.1541,5.1541,5.1095,5.1236,5.1656,5.1935,5.1935,5.2238,5.2515,5.2515,5.2654,5.2767,5.2703,5.2528,5.2,5.1398,5.0845,5.0368,4.9967,4.964,4.959,4.959,4.959,4.959,4.959,4.959,4.959,4.959,4.959,4.959,4.959,4.959,4.959,4.959,4.9515,4.9138,4.851,4.7782,4.7581,4.6828,4.6326,4.6326,4.6326,4.6326,4.6326,4.6326,4.6326,4.6552,4.6954,4.7506,4.8033,4.856,4.9138,4.9439,4.959,4.959,4.959,4.959,4.959,4.959,4.959,4.959,4.959,4.959,4.9364,4.9063,4.8385,4.7757,4.7305,4.6803,4.6376,4.6326,4.6326,4.6326,4.6326,4.6326,4.6326,4.6326,4.6326,4.6326,4.6326,4.6326,4.6326,4.6326,4.6326,4.6326,4.6326,4.6326,4.6326,4.6326,4.6326,4.618,4.618,4.5817,4.5453,4.4816,4.4299,4.3802,4.2724,4.1507,4.0286,3.9321,3.8139,3.6961,3.6156,3.5418,3.4922,3.4548,3.4173,3.3922,3.367,3.3418,3.3418,5.182,5.182,5.182,5.182,5.182,5.182,5.196,5.2377,5.2377,5.2515,5.2792,5.2792,5.2792,5.2829,5.2477,5.2151,5.18,5.0971,5.0419,5.0193,4.9816,4.9615,4.959,4.959,4.959,4.959,4.959,4.959,4.959,4.959,4.959,4.959,4.959,4.959,4.959,4.959,4.9339,4.8812,4.8234,4.7732,4.7205,4.6627,4.6376,4.6326,4.6326,4.6326,4.6326,4.6326,4.6326,4.6426,4.728,4.7757,4.7958,4.8937,4.9464,4.9565,4.959,4.959,4.959,4.959,4.959,4.959,4.959,4.959,4.959,4.959,4.959,4.9314,4.8535,4.8008,4.7506,4.7004,4.6527,4.6326,4.6326,4.6326,4.6326,4.6326,4.6326,4.6326,4.6326,4.6326,4.6326,4.6326,4.6326,4.6326,4.6326,4.6326,4.6326,4.6326,4.6326,4.618,4.618,4.6059,4.5939,4.5574,4.5061,4.4546,4.3903,4.338,4.2451,4.1181,4.0073,3.9023,3.7811,3.6364,3.5788,3.5294,3.4797,3.4173,3.3796,3.3544,3.3418,3.3418,3.3418,5.2238,5.2238,5.2377,5.2515,5.2515,5.2238,5.2377,5.2654,5.2792,5.2792,5.2929,5.2929,5.2929,5.2754,5.2327,5.1875,5.1423,5.087,5.0318,4.9866,4.9665,4.964,4.959,4.959,4.959,4.959,4.959,4.959,4.959,4.959,4.959,4.959,4.959,4.959,4.959,4.9565,4.9339,4.8786,4.8209,4.7657,4.7129,4.6602,4.6326,4.6326,4.6326,4.6326,4.6326,4.6326,4.6326,4.6426,4.7305,4.7807,4.8058,4.8962,4.954,4.959,4.959,4.959,4.959,4.959,4.959,4.959,4.959,4.959,4.959,4.959,4.959,4.9364,4.8535,4.8033,4.7732,4.6878,4.6401,4.6326,4.6326,4.6326,4.6326,4.6326,4.6326,4.6326,4.6326,4.6326,4.6326,4.6326,4.6326,4.6326,4.6326,4.6326,4.6326,4.6326,4.6301,4.6205,4.6059,4.5939,4.5696,4.5331,4.4816,4.4299,4.3606,4.3013,4.1992,4.0638,3.9566,3.8466,3.716,3.5911,3.5418,3.4922,3.4298,3.367,3.3544,3.3418,3.3418,3.3418,3.3418,5.2654,5.2629,5.2792,5.2929,5.2792,5.2654,5.2654,5.2929,5.2929,5.2929,5.2929,5.2929,5.2779,5.2528,5.2051,5.1498,5.0971,5.0393,5.0042,4.9615,4.959,4.959,4.959,4.959,4.959,4.959,4.959,4.959,4.959,4.959,4.959,4.959,4.959,4.9439,4.9364,4.9188,4.8987,4.841,4.7857,4.733,4.6853,4.6502,4.6326,4.6326,4.6326,4.6326,4.6326,4.6326,4.6326,4.6577,4.7054,4.7707,4.8134,4.8686,4.9364,4.9515,4.959,4.959,4.959,4.959,4.959,4.959,4.959,4.959,4.959,4.959,4.9439,4.9088,4.841,4.7958,4.7556,4.6677,4.6401,4.6326,4.6326,4.6326,4.6326,4.6326,4.6326,4.6326,4.6326,4.6326,4.6326,4.6326,4.6326,4.6326,4.6326,4.6301,4.6301,4.6301,4.618,4.6059,4.5939,4.5696,4.5331,4.4939,4.4446,4.4051,4.331,4.2544,4.1399,4.0195,3.9059,3.7935,3.6618,3.5562,3.4922,3.4298,3.3922,3.367,3.3418,3.3418,3.3418,3.3418,3.3418,5.2929,5.2929,5.2929,5.2929,5.2929,5.2929,5.2929,5.2929,5.2929,5.2904,5.2879,5.2829,5.2553,5.2026,5.1498,5.0996,5.0494,4.9916,4.9715,4.9615,4.959,4.959,4.959,4.959,4.959,4.959,4.959,4.959,4.959,4.959,4.959,4.949,4.9414,4.9163,4.8887,4.8586,4.8335,4.7857,4.7531,4.7004,4.6552,4.6376,4.6326,4.6326,4.6326,4.6326,4.6326,4.6326,4.6326,4.6527,4.6878,4.738,4.7908,4.846,4.9012,4.9439,4.959,4.959,4.959,4.959,4.959,4.959,4.959,4.959,4.959,4.9565,4.9364,4.8912,4.8284,4.7732,4.7179,4.6753,4.6326,4.6326,4.6326,4.6326,4.6326,4.6326,4.6326,4.6326,4.6326,4.6326,4.6326,4.6326,4.6326,4.6326,4.6301,4.618,4.618,4.618,4.6059,4.5939,4.5696,4.5331,4.4939,4.457,4.3927,4.3428,4.2716,4.1926,4.0761,3.9538,3.8342,3.71,3.6039,3.5232,3.4568,3.4047,3.3796,3.3544,3.3418,3.3418,3.3418,3.3418,3.3418,5.2929,5.2929,5.2929,5.2929,5.2929,5.2929,5.2929,5.2929,5.2929,5.2754,5.2352,5.2352,5.2026,5.1473,5.0921,5.0594,5.0268,4.9916,4.969,4.959,4.959,4.959,4.959,4.959,4.959,4.959,4.959,4.959,4.959,4.959,4.9314,4.9063,4.9012,4.8661,4.8234,4.7807,4.7581,4.738,4.7129,4.6803,4.6451,4.6326,4.6326,4.6326,4.6326,4.6326,4.6326,4.6326,4.6326,4.6401,4.6853,4.7355,4.7883,4.846,4.9012,4.9515,4.959,4.959,4.959,4.959,4.959,4.959,4.959,4.959,4.959,4.949,4.9264,4.8686,4.8134,4.7556,4.7079,4.6652,4.6376,4.6326,4.6326,4.6326,4.6326,4.6326,4.6326,4.6326,4.6326,4.6326,4.6326,4.6326,4.6326,4.6326,4.618,4.618,4.6059,4.6059,4.5817,4.5696,4.5306,4.4939,4.457,4.4175,4.3428,4.2776,4.204,4.1194,3.9922,3.8685,3.7417,3.631,3.5293,3.4568,3.4047,3.3796,3.3544,3.3544,3.3418,3.3418,3.3418,3.3418,3.3418,5.2929,5.2929,5.2929,5.2929,5.2879,5.2703,5.2603,5.2603,5.2603,5.2402,5.2101,5.1875,5.1473,5.0971,5.0594,5.0318,5.0042,4.9791,4.959,4.959,4.959,4.959,4.959,4.959,4.959,4.959,4.959,4.959,4.9515,4.9264,4.8987,4.8485,4.8435,4.8083,4.7682,4.7355,4.7079,4.6903,4.6753,4.6602,4.6451,4.6326,4.6326,4.6326,4.6326,4.6326,4.6326,4.6326,4.6326,4.6326,4.6728,4.7054,4.7657,4.8309,4.8812,4.9264,4.949,4.954,4.959,4.959,4.959,4.959,4.9565,4.9439,4.9314,4.9163,4.8837,4.841,4.7883,4.738,4.6928,4.6552,4.6426,4.6326,4.6326,4.6326,4.6326,4.6326,4.6326,4.6326,4.6326,4.6326,4.6326,4.6326,4.6301,4.6301,4.618,4.5939,4.5939,4.5939,4.5574,4.5331,4.4939,4.457,4.4051,4.3678,4.2879,4.2155,4.1122,4.0211,3.9007,3.7799,3.6644,3.5603,3.4588,3.4047,3.3796,3.3544,3.3418,3.3418,3.3418,3.3418,3.3418,3.3418,3.3418,5.2929,5.2929,5.2879,5.2829,5.2779,5.2277,5.2051,5.2026,5.195,5.195,5.18,5.1423,5.0896,5.0419,5.0243,5.0017,4.9816,4.964,4.959,4.959,4.959,4.959,4.959,4.959,4.959,4.959,4.9464,4.9289,4.9213,4.8912,4.841,4.7883,4.7857,4.7581,4.7104,4.7004,4.6778,4.6527,4.6451,4.6376,4.6351,4.6326,4.6326,4.6326,4.6326,4.6326,4.6326,4.6326,4.6326,4.6326,4.6401,4.6652,4.733,4.8058,4.8535,4.8761,4.9012,4.9238,4.9289,4.9264,4.9364,4.9389,4.9464,4.9088,4.8812,4.8887,4.8661,4.8033,4.7456,4.7079,4.6652,4.6476,4.6351,4.6326,4.6326,4.6326,4.6326,4.6326,4.6326,4.6326,4.6326,4.6326,4.6326,4.6326,4.6326,4.618,4.6059,4.5817,4.5574,4.5574,4.5208,4.484,4.4446,4.4051,4.3428,4.3028,4.2351,4.1556,4.0434,3.9358,3.8265,3.7127,3.5914,3.5021,3.4047,3.3796,3.3544,3.3418,3.3418,3.3418,3.3292,3.3292,3.3292,3.3292,3.3292,5.2929,5.2879,5.2477,5.2302,5.2226,5.1724,5.1473,5.1423,5.0996,5.0845,5.0795,5.0645,5.0343,4.9916,4.9866,4.9715,4.964,4.959,4.959,4.959,4.959,4.959,4.959,4.959,4.959,4.9439,4.9213,4.8761,4.8435,4.8134,4.7857,4.738,4.7305,4.7054,4.6627,4.6577,4.6476,4.6326,4.6326,4.6326,4.6326,4.6326,4.6326,4.6326,4.6326,4.6326,4.6326,4.6326,4.6326,4.6326,4.6326,4.6627,4.7129,4.7782,4.8058,4.8159,4.8335,4.8636,4.8786,4.8736,4.8686,4.8736,4.8661,4.836,4.8284,4.8586,4.8385,4.7657,4.7104,4.6753,4.6502,4.6401,4.6326,4.6326,4.6326,4.6326,4.6326,4.6326,4.6326,4.6326,4.6326,4.6326,4.6326,4.6326,4.6326,4.618,4.5939,4.5696,4.5184,4.5061,4.457,4.4323,4.4051,4.3678,4.3051,4.2155,4.1556,4.0583,3.955,3.846,3.7359,3.6123,3.5021,3.4418,3.3796,3.3544,3.3418,3.3418,3.3418,3.3292,3.3165,3.3058,3.2931,3.2785,3.2931,5.2779,5.2503,5.1975,5.1749,5.1649,5.1147,5.0896,5.0795,5.0293,5.0042,5.0067,5.0017,4.9866,4.9615,4.959,4.959,4.959,4.959,4.959,4.959,4.959,4.959,4.959,4.954,4.9339,4.9163,4.8636,4.8134,4.7631,4.7506,4.7305,4.6878,4.6753,4.6652,4.6326,4.6326,4.6326,4.6326,4.6326,4.6326,4.6326,4.6326,4.6326,4.6326,4.6326,4.6326,4.6326,4.6326,4.6326,4.6326,4.6326,4.6376,4.6803,4.7255,4.7531,4.7657,4.7832,4.8033,4.8184,4.8134,4.8008,4.8109,4.8159,4.7983,4.7606,4.7832,4.7832,4.7179,4.6803,4.6451,4.6401,4.6326,4.6326,4.6326,4.6326,4.6326,4.6326,4.6326,4.6326,4.6326,4.6326,4.6326,4.6326,4.6326,4.618,4.5939,4.5817,4.5331,4.4939,4.4446,4.4051,4.3505,4.3232,4.313,4.265,4.1683,4.0545,3.966,3.8568,3.7401,3.6186,3.5041,3.4047,3.3796,3.367,3.3544,3.3418,3.3292,3.3184,3.3038,3.2931,3.2676,3.2549,3.2403,3.2256,5.2477,5.195,5.1398,5.1172,5.1096,5.0569,5.0318,5.0243,4.9816,4.9615,4.964,4.964,4.959,4.959,4.959,4.959,4.959,4.959,4.959,4.959,4.959,4.9464,4.9414,4.9414,4.9012,4.8535,4.8008,4.7531,4.7029,4.6979,4.6803,4.6401,4.6326,4.6326,4.6326,4.6326,4.6326,4.6326,4.6326,4.6326,4.6326,4.6326,4.6326,4.6326,4.6326,4.6326,4.6326,4.6326,4.6326,4.6326,4.6326,4.6351,4.6451,4.6803,4.6928,4.7104,4.728,4.7556,4.7732,4.7631,4.7657,4.7757,4.7757,4.7531,4.7154,4.7054,4.7054,4.6878,4.6502,4.6351,4.6326,4.6326,4.6326,4.6326,4.6326,4.6326,4.6326,4.6326,4.6326,4.6326,4.6326,4.6326,4.6326,4.6326,4.6059,4.5817,4.5453,4.4939,4.4422,4.3927,4.3428,4.2683,4.2086,4.2006,4.1752,4.1017,3.9814,3.8655,3.755,3.6248,3.5105,3.4483,3.3922,3.3796,3.3544,3.3292,3.3165,3.3058,3.2931,3.2804,3.2403,3.2166,3.2038,3.1763,3.1451,5.195,5.1373,5.082,5.0569,5.0494,4.9992,4.9766,4.9741,4.9665,4.959,4.959,4.959,4.959,4.959,4.959,4.959,4.959,4.959,4.959,4.959,4.949,4.9264,4.8987,4.8786,4.8284,4.7807,4.7355,4.7004,4.6702,4.6552,4.6451,4.6326,4.6326,4.6326,4.6326,4.6326,4.6326,4.6326,4.6326,4.6326,4.6326,4.6326,4.6326,4.6326,4.6326,4.6326,4.6326,4.6326,4.6326,4.6326,4.6326,4.6326,4.6376,4.6451,4.6552,4.6627,4.6803,4.6979,4.7104,4.6979,4.7029,4.723,4.7129,4.6803,4.6577,4.6577,4.6577,4.6577,4.6326,4.6326,4.6326,4.6326,4.6326,4.6326,4.6326,4.6326,4.6326,4.6326,4.6326,4.6326,4.6326,4.6326,4.6205,4.6084,4.5939,4.5574,4.5208,4.4693,4.4199,4.3553,4.2799,4.1983,4.1062,4.0396,4.0052,3.9919,3.8955,3.7678,3.6604,3.5455,3.4689,3.4213,3.3796,3.3544,3.3292,3.3038,3.2912,3.2676,3.2549,3.2275,3.1891,3.1506,3.1506,3.1176,3.0681]}]]